[[{"header":{"parameterUnit":"m.s-1","parameterCategory":1,"la1":31.0,"la2":29.5877,"lo1":-88.7671,"lo2":-86.6584,"dy":0.0162,"dx":0.0185,"nx":115,"ny":88,"refTime":"2025-08-19T00:00:00:Z","depth":0,"parameterNumber":2,"parameterNumberName":"U-component_of_WINDS"},"data":[0.0,0.0,0.0,0.0,0.0,0.0,0.0,0.0,0.0,0.0,0.0,0.0,0.0,0.0,0.0,0.0,0.0,0.0,0.0,0.0,0.0,0.0,0.0,0.0,0.0,0.0,0.0,0.0,0.0,0.0,0.0,0.0,0.0,0.0,0.0,0.0,0.0,0.0,0.0,0.0,0.0,0.0,0.0,0.0,0.0,0.0,0.0,0.0,0.0,0.0,0.0,0.0,0.0,0.0,0.0,0.0,0.0,0.0,0.0,0.0,0.0,0.0,0.0,0.0,0.0,0.0,0.0,0.0,0.0,0.0,0.0,0.0,0.0,0.0,0.0,0.0,0.0,0.0,0.0,0.0,0.0,0.0,0.0,0.0,0.0,0.0,0.0,0.0,0.0,0.0,0.0,0.0,0.0,0.0,0.0,0.0,0.0,0.0,0.0,0.0,0.0,0.0,0.0,0.0,0.0,0.0,0.0,0.0,0.0,0.0,0.0,0.0,0.0,0.0,0.0,0.0,0.0,0.0,0.0,0.0,0.0,0.0,0.0,0.0,0.0,0.0,0.0,0.0,0.0,0.0,0.0,0.0,0.0,0.0,0.0,0.0,0.0,0.0,0.0,0.0,0.0,0.0,0.0,0.0,0.0,0.0,0.0,0.0,0.0,0.0,0.0,0.0,0.0,0.0,0.0,0.0,0.0,0.0,0.0,0.0,0.0,0.0,0.0,0.0,0.0,0.0,0.0,0.0,0.0,0.0,0.0,0.0,0.0,0.0,0.0,0.0,0.0,0.0,0.0,0.0,0.0,0.0,0.0,0.0,0.0,0.0,0.0,0.0,0.0,0.0,0.0,0.0,0.0,0.0,0.0,0.0,0.0,0.0,0.0,0.0,0.0,0.0,0.0,0.0,0.0,0.0,0.0,0.0,0.0,0.0,0.0,0.0,0.0,0.0,0.0,0.0,0.0,0.0,0.0,0.0,0.0,0.0,0.0,0.0,0.0,0.0,0.0,0.0,0.0,0.0,0.0,0.0,0.0,0.0,0.0,0.0,0.0,0.0,0.0,0.0,0.0,0.0,0.0,0.0,0.0,0.0,0.0,0.0,0.0,0.0,0.0,0.0,0.0,0.0,0.0,0.0,0.0,0.0,0.0,0.0,0.0,0.0,0.0,0.0,0.0,0.0,0.0,0.0,0.0,0.0,0.0,0.0,0.0,0.0,0.0,0.0,0.0,0.0,0.0,0.0,0.0,0.0,0.0,0.0,0.0,0.0,0.0,0.0,0.0,0.0,0.0,0.0,0.0,0.0,0.0,0.0,0.0,0.0,0.0,0.0,0.0,0.0,0.0,0.0,0.0,0.0,0.0,0.0,0.0,0.0,0.0,0.0,0.0,0.0,0.0,0.0,0.0,0.0,0.0,0.0,0.0,0.0,0.0,0.0,0.0,0.0,0.0,0.0,0.0,0.0,0.0,0.0,0.0,0.0,0.0,0.0,0.0,0.0,0.0,0.0,0.0,0.0,0.0,0.0,0.0,0.0,0.0,0.0,0.0,0.0,0.0,0.0,0.0,0.0,0.0,0.0,0.0,0.0,0.0,0.0,0.0,0.0,0.0,0.0,0.0,0.0,0.0,0.0,0.0,0.0,0.0,0.0,0.0,0.0,0.0,0.0,0.0,0.0,0.0,0.0,0.0,0.0,0.0,0.0,0.0,0.0,0.0,0.0,0.0,0.0,0.0,0.0,0.0,0.0,0.0,0.0,0.0,0.0,0.0,0.0,0.0,0.0,0.0,0.0,0.0,0.0,0.0,0.0,0.0,0.0,0.0,0.0,0.0,0.0,0.0,0.0,0.0,0.0,0.0,0.0,0.0,0.0,0.0,0.0,0.0,0.0,0.0,0.0,0.0,0.0,0.0,0.0,0.0,0.0,0.0,0.0,0.0,0.0,0.0,0.0,0.0,0.0,0.0,0.0,0.0,0.0,0.0,0.0,0.0,0.0,0.0,0.0,0.0,0.0,0.0,0.0,0.0,0.0,0.0,0.0,0.0,0.0,0.0,0.0,0.0,0.0,0.0,0.0,0.0,0.0,0.0,0.0,0.0,0.0,0.0,0.0,0.0,0.0,0.0,0.0,0.0,0.0,0.0,0.0,0.0,0.0,0.0,0.0,0.0,0.0,0.0,0.0,0.0,0.0,0.0,0.0,0.0,0.0,0.0,0.0,0.0,0.0,0.0,0.0,0.0,0.0,0.0,0.0,0.0,0.0,0.0,0.0,0.0,0.0,0.0,0.0,0.0,0.0,0.0,0.0,0.0,0.0,0.0,0.0,0.0,0.0,0.0,0.0,0.0,0.0,0.0,0.0,0.0,0.0,0.0,0.0,0.0,0.0,0.0,0.0,0.0,0.0,0.0,0.0,0.0,0.0,0.0,0.0,0.0,0.0,0.0,0.0,0.0,0.0,0.0,0.0,0.0,0.0,0.0,0.0,0.0,0.0,0.0,0.0,0.0,0.0,0.0,0.0,0.0,0.0,0.0,0.0,0.0,0.0,0.0,0.0,0.0,0.0,0.0,0.0,0.0,0.0,0.0,0.0,0.0,0.0,0.0,0.0,0.0,0.0,0.0,0.0,0.0,0.0,0.0,0.0,0.0,0.0,0.0,0.0,0.0,0.0,0.0,0.0,0.0,0.0,0.0,0.0,0.0,0.0,0.0,0.0,0.0,0.0,0.0,0.0,0.0,0.0,0.0,0.0,0.0,0.0,0.0,0.0,0.0,0.0,0.0,0.0,0.0,0.0,0.0,0.0,0.0,0.0,0.0,0.0,0.0,0.0,0.0,0.0,0.0,0.0,0.0,0.0,0.0,0.0,0.0,0.0,0.0,0.0,0.0,0.0,0.0,0.0,0.0,0.0,0.0,0.0,0.0,0.0,0.0,0.0,0.0,0.0,0.0,0.0,0.0,0.0,0.0,0.0,0.0,0.0,0.0,0.0,0.0,0.0,0.0,0.0,0.0,0.0,0.0,0.0,0.0,0.0,0.0,0.0,0.0,0.0,0.0,0.0,0.0,0.0,0.0,0.0,0.0,0.0,0.0,0.0,0.0,0.0,0.0,0.0,0.0,0.0,0.0,0.0,0.0,0.0,0.0,0.0,0.0,0.0,0.0,0.0,0.0,0.0,0.0,0.0,0.0,0.0,0.0,0.0,0.0,0.0,0.0,0.0,0.0,0.0,0.0,0.0,0.0,0.0,0.0,0.0,0.0,0.0,0.0,0.0,0.0,0.0,0.0,0.0,0.0,0.0,0.0,0.0,0.0,0.0,0.0,0.0,0.0,0.0,0.0,0.0,0.0,0.0,0.0,0.0,0.0,0.0,0.0,0.0,0.0,0.0,0.0,0.0,0.0,0.0,0.0,0.0,0.0,0.0,0.0,0.0,0.0,0.0,0.0,0.0,0.0,0.0,0.0,0.0,0.0,0.0,0.0,0.0,0.0,0.0,0.0,0.0,0.0,0.0,0.0,0.0,0.0,0.0,0.0,0.0,0.0,0.0,0.0,0.0,0.0,0.0,0.0,0.0,0.0,0.0,0.0,0.0,0.0,0.0,0.0,0.0,0.0,0.0,0.0,0.0,0.0,0.0,0.0,0.0,0.0,0.0,0.0,0.0,0.0,0.0,0.0,0.0,0.0,0.0,0.0,0.0,0.0,0.0,0.0,0.0,0.0,0.0,0.0,0.0,0.0,0.0,0.0,0.0,0.0,0.0,0.0,0.0,0.0,0.0,0.0,0.0,0.0,0.0,0.0,0.0,0.0,0.0,0.0,0.0,0.0,0.0,0.0,0.0,0.0,0.0,0.0,0.0,0.0,0.0,0.0,0.0,0.0,0.0,0.0,0.0,0.0,0.0,0.0,0.0,0.0,0.0,0.0,0.0,0.0,0.0,0.0,0.0,0.0,0.0,0.0,0.0,0.0,0.0,0.0,0.0,0.0,0.0,0.0,0.0,0.0,0.0,0.0,0.0,0.0,0.0,0.0,0.0,0.0,0.0,0.0,0.0,0.0,0.0,0.0,0.0,0.0,0.0,0.0,0.0,0.0,0.0,0.0,0.0,0.0,0.0,0.0,0.0,0.0,0.0,0.0,0.0,0.0,0.0,0.0,0.0,0.0,0.0,0.0,0.0,0.0,0.0,0.0,0.0,0.0,0.0,0.0,0.0,0.0,0.0,0.0,0.0,0.0,0.0,0.0,0.0,0.0,0.0,0.0,0.0,0.0,0.0,0.0,0.0,-1.706,0.0,0.0,0.0,0.0,0.0,0.0,0.0,0.0,0.0,0.0,0.0,0.0,0.0,0.0,0.0,0.0,0.0,0.0,0.0,0.0,0.0,0.0,0.0,0.0,0.0,0.0,0.0,0.0,0.0,0.0,0.0,0.0,0.0,0.0,0.0,0.0,0.0,0.0,0.0,0.0,0.0,0.0,0.0,0.0,0.0,0.0,0.0,0.0,0.0,0.0,0.0,0.0,0.0,0.0,0.0,0.0,0.0,0.0,0.0,0.0,0.0,0.0,0.0,0.0,0.0,0.0,0.0,0.0,0.0,0.0,0.0,0.0,0.0,0.0,0.0,0.0,0.0,0.0,0.0,0.0,0.0,0.0,0.0,0.0,0.0,0.0,0.0,0.0,0.0,0.0,0.0,0.0,0.0,0.0,0.0,0.0,0.0,0.0,0.0,0.0,0.0,0.0,0.0,0.0,0.0,0.0,0.0,0.0,0.0,0.0,-1.8826,-1.9665,-1.9384,-1.8666,-1.7554,0.0,0.0,0.0,0.0,0.0,0.0,0.0,0.0,0.0,0.0,0.0,0.0,0.0,0.0,0.0,0.0,0.0,0.0,0.0,0.0,0.0,0.0,0.0,0.0,0.0,0.0,0.0,0.0,0.0,0.0,0.0,0.0,0.0,0.0,0.0,0.0,0.0,0.0,0.0,0.0,0.0,0.0,0.0,0.0,0.0,0.0,0.0,0.0,0.0,0.0,0.0,0.0,0.0,0.0,0.0,0.0,0.0,0.0,0.0,0.0,0.0,0.0,0.0,0.0,0.0,0.0,0.0,0.0,0.0,0.0,0.0,0.0,0.0,0.0,0.0,0.0,0.0,0.0,0.0,0.0,0.0,0.0,0.0,0.0,0.0,0.0,0.0,0.0,0.0,0.0,0.0,0.0,0.0,0.0,0.0,0.0,0.0,0.0,0.0,0.0,0.0,0.0,0.0,0.0,0.0,0.0,0.0,0.0,0.0,0.0,0.0,0.0,-2.0618,-1.9745,-1.8213,0.0,0.0,0.0,0.0,0.0,0.0,0.0,0.0,0.0,0.0,0.0,0.0,0.0,0.0,0.0,0.0,0.0,0.0,0.0,0.0,0.0,0.0,0.0,0.0,0.0,0.0,0.0,0.0,0.0,0.0,0.0,0.0,0.0,0.0,0.0,0.0,0.0,0.0,0.0,0.0,0.0,0.0,0.0,0.0,0.0,0.0,0.0,0.0,0.0,0.0,0.0,0.0,0.0,0.0,0.0,0.0,0.0,0.0,0.0,0.0,0.0,0.0,0.0,0.0,0.0,0.0,0.0,0.0,0.0,0.0,0.0,0.0,0.0,0.0,0.0,0.0,0.0,0.0,0.0,0.0,0.0,0.0,0.0,0.0,0.0,0.0,0.0,0.0,0.0,0.0,0.0,0.0,0.0,0.0,0.0,0.0,0.0,0.0,0.0,0.0,0.0,0.0,0.0,0.0,0.0,0.0,0.0,0.0,0.0,0.0,-2.1002,-2.2609,-2.2328,0.0,-1.9624,0.0,0.0,0.0,0.0,0.0,0.0,0.0,0.0,0.0,0.0,0.0,0.0,0.0,0.0,0.0,0.0,0.0,0.0,0.0,0.0,0.0,0.0,0.0,0.0,0.0,0.0,0.0,0.0,0.0,0.0,0.0,0.0,0.0,0.0,0.0,0.0,0.0,0.0,0.0,0.0,0.0,0.0,0.0,0.0,0.0,0.0,0.0,0.0,0.0,0.0,0.0,0.0,0.0,0.0,0.0,0.0,0.0,0.0,0.0,0.0,0.0,0.0,0.0,0.0,0.0,0.0,0.0,0.0,0.0,0.0,0.0,0.0,0.0,0.0,0.0,0.0,0.0,0.0,0.0,0.0,0.0,0.0,0.0,0.0,0.0,0.0,0.0,0.0,0.0,0.0,0.0,0.0,0.0,0.0,0.0,0.0,0.0,0.0,0.0,0.0,0.0,0.0,0.0,0.0,0.0,0.0,0.0,0.0,0.0,0.0,-2.2415,-2.312,-2.2164,-2.1023,0.0,0.0,0.0,0.0,0.0,0.0,0.0,0.0,0.0,0.0,0.0,0.0,0.0,0.0,0.0,0.0,0.0,0.0,0.0,0.0,0.0,0.0,0.0,0.0,0.0,0.0,0.0,0.0,0.0,0.0,0.0,0.0,0.0,0.0,0.0,0.0,0.0,0.0,0.0,0.0,0.0,0.0,0.0,0.0,0.0,0.0,0.0,0.0,0.0,0.0,0.0,0.0,0.0,0.0,0.0,0.0,0.0,0.0,0.0,0.0,0.0,0.0,0.0,0.0,0.0,0.0,0.0,0.0,0.0,0.0,0.0,0.0,0.0,0.0,0.0,0.0,0.0,0.0,0.0,0.0,0.0,0.0,0.0,0.0,0.0,0.0,0.0,0.0,0.0,0.0,0.0,0.0,0.0,0.0,0.0,0.0,0.0,0.0,0.0,0.0,0.0,0.0,0.0,0.0,0.0,0.0,0.0,0.0,0.0,0.0,-2.2977,-2.3647,-2.3785,-2.2522,-2.1151,-1.9829,0.0,0.0,0.0,0.0,0.0,0.0,0.0,0.0,0.0,0.0,0.0,0.0,0.0,0.0,0.0,0.0,0.0,0.0,0.0,0.0,0.0,0.0,0.0,0.0,0.0,0.0,0.0,0.0,0.0,0.0,0.0,0.0,0.0,0.0,0.0,0.0,0.0,0.0,0.0,0.0,0.0,0.0,0.0,0.0,0.0,0.0,0.0,0.0,0.0,0.0,0.0,0.0,0.0,0.0,0.0,0.0,0.0,0.0,0.0,0.0,0.0,0.0,0.0,0.0,0.0,0.0,0.0,0.0,0.0,0.0,0.0,0.0,0.0,0.0,0.0,0.0,0.0,0.0,0.0,0.0,0.0,0.0,0.0,0.0,0.0,0.0,0.0,0.0,0.0,0.0,0.0,0.0,0.0,0.0,0.0,0.0,0.0,0.0,0.0,0.0,0.0,0.0,0.0,0.0,0.0,0.0,0.0,0.0,0.0,-2.406,-2.4493,-2.5163,-2.4082,-2.2378,0.0,0.0,0.0,0.0,0.0,0.0,0.0,0.0,0.0,0.0,0.0,0.0,0.0,0.0,0.0,0.0,0.0,0.0,0.0,0.0,0.0,0.0,0.0,0.0,0.0,0.0,0.0,0.0,0.0,0.0,0.0,0.0,0.0,0.0,0.0,0.0,0.0,0.0,0.0,0.0,0.0,0.0,0.0,0.0,0.0,0.0,0.0,0.0,0.0,0.0,0.0,0.0,0.0,0.0,0.0,0.0,0.0,0.0,0.0,0.0,0.0,0.0,0.0,0.0,0.0,0.0,0.0,0.0,0.0,0.0,0.0,0.0,0.0,0.0,0.0,0.0,0.0,0.0,0.0,0.0,0.0,0.0,0.0,0.0,0.0,0.0,0.0,0.0,0.0,0.0,0.0,0.0,0.0,0.0,0.0,0.0,0.0,0.0,0.0,0.0,0.0,0.0,0.0,0.0,0.0,0.0,0.0,0.0,0.0,-2.2665,-2.318,-2.4512,-2.6568,-2.4009,-2.2145,0.0,0.0,0.0,0.0,0.0,0.0,0.0,0.0,0.0,0.0,0.0,0.0,0.0,0.0,0.0,0.0,0.0,0.0,0.0,0.0,0.0,0.0,0.0,0.0,0.0,0.0,0.0,0.0,0.0,0.0,0.0,0.0,0.0,0.0,0.0,0.0,0.0,0.0,0.0,0.0,0.0,0.0,0.0,0.0,0.0,0.0,0.0,0.0,0.0,0.0,0.0,0.0,0.0,0.0,0.0,0.0,0.0,0.0,0.0,0.0,0.0,0.0,0.0,0.0,0.0,0.0,0.0,0.0,0.0,0.0,0.0,0.0,0.0,0.0,0.0,0.0,0.0,0.0,0.0,0.0,0.0,0.0,0.0,0.0,0.0,0.0,0.0,0.0,0.0,0.0,0.0,0.0,0.0,0.0,0.0,0.0,0.0,0.0,0.0,0.0,0.0,0.0,0.0,0.0,0.0,0.0,0.0,0.0,0.0,-2.3267,0.0,-2.5546,-2.6949,-2.4366,-2.2289,0.0,0.0,0.0,0.0,0.0,0.0,0.0,0.0,0.0,0.0,0.0,0.0,0.0,0.0,0.0,0.0,0.0,0.0,0.0,0.0,0.0,0.0,0.0,0.0,0.0,0.0,0.0,0.0,0.0,0.0,0.0,0.0,0.0,0.0,0.0,0.0,0.0,0.0,0.0,0.0,0.0,0.0,0.0,0.0,0.0,0.0,0.0,0.0,0.0,0.0,0.0,0.0,0.0,0.0,0.0,0.0,0.0,0.0,0.0,0.0,0.0,0.0,0.0,0.0,0.0,0.0,0.0,0.0,0.0,0.0,0.0,0.0,0.0,0.0,0.0,0.0,0.0,0.0,0.0,0.0,0.0,0.0,0.0,0.0,0.0,0.0,0.0,0.0,0.0,0.0,0.0,0.0,0.0,0.0,0.0,0.0,0.0,0.0,0.0,0.0,0.0,0.0,0.0,0.0,0.0,0.0,0.0,0.0,-2.3222,-2.6021,-2.7464,-2.7481,-2.6268,-2.5216,-2.2865,0.0,0.0,0.0,0.0,0.0,0.0,0.0,0.0,0.0,0.0,0.0,0.0,0.0,0.0,0.0,0.0,0.0,0.0,0.0,0.0,0.0,0.0,0.0,0.0,0.0,0.0,0.0,0.0,0.0,0.0,0.0,0.0,0.0,0.0,0.0,0.0,0.0,0.0,0.0,0.0,0.0,0.0,0.0,0.0,0.0,0.0,0.0,0.0,0.0,0.0,0.0,0.0,0.0,0.0,0.0,0.0,0.0,0.0,0.0,0.0,0.0,0.0,0.0,0.0,0.0,0.0,0.0,0.0,0.0,0.0,0.0,0.0,0.0,0.0,0.0,0.0,0.0,0.0,0.0,0.0,0.0,0.0,0.0,0.0,0.0,0.0,0.0,0.0,0.0,0.0,0.0,0.0,0.0,0.0,0.0,0.0,0.0,0.0,0.0,0.0,0.0,0.0,0.0,0.0,0.0,0.0,0.0,0.0,0.0,-2.4663,-2.5624,-2.6634,-2.7578,-2.4924,-2.308,0.0,0.0,0.0,0.0,0.0,0.0,0.0,0.0,0.0,0.0,0.0,0.0,0.0,0.0,0.0,0.0,0.0,0.0,0.0,0.0,0.0,0.0,0.0,0.0,0.0,0.0,0.0,0.0,0.0,0.0,0.0,0.0,0.0,0.0,0.0,0.0,0.0,0.0,0.0,0.0,0.0,0.0,0.0,0.0,0.0,0.0,0.0,0.0,0.0,0.0,0.0,0.0,0.0,0.0,0.0,0.0,0.0,0.0,0.0,0.0,0.0,0.0,0.0,0.0,0.0,0.0,0.0,0.0,0.0,0.0,0.0,0.0,0.0,0.0,0.0,0.0,0.0,0.0,0.0,0.0,0.0,0.0,0.0,0.0,0.0,0.0,0.0,0.0,0.0,0.0,0.0,0.0,0.0,0.0,0.0,0.0,0.0,0.0,0.0,0.0,0.0,0.0,0.0,0.0,0.0,0.0,0.0,0.0,0.0,-2.5875,-2.6867,-2.7734,-2.848,-2.5817,-2.3803,-2.2613,0.0,0.0,0.0,0.0,0.0,0.0,0.0,0.0,0.0,0.0,0.0,0.0,0.0,0.0,0.0,0.0,0.0,0.0,0.0,0.0,0.0,0.0,0.0,0.0,0.0,0.0,0.0,0.0,0.0,0.0,0.0,0.0,0.0,0.0,0.0,0.0,0.0,0.0,0.0,0.0,0.0,0.0,0.0,0.0,0.0,0.0,0.0,0.0,0.0,0.0,0.0,0.0,0.0,0.0,0.0,0.0,0.0,0.0,0.0,0.0,0.0,0.0,0.0,0.0,0.0,0.0,0.0,0.0,0.0,0.0,0.0,0.0,0.0,0.0,0.0,0.0,0.0,0.0,0.0,0.0,0.0,0.0,0.0,0.0,0.0,0.0,0.0,0.0,0.0,0.0,0.0,0.0,0.0,0.0,0.0,0.0,0.0,0.0,0.0,0.0,0.0,0.0,0.0,0.0,0.0,0.0,0.0,0.0,-2.9011,-3.0587,-3.0652,-2.9081,-2.772,-2.5022,0.0,0.0,0.0,0.0,0.0,0.0,0.0,0.0,0.0,0.0,0.0,0.0,0.0,0.0,0.0,0.0,0.0,0.0,0.0,0.0,0.0,0.0,0.0,0.0,0.0,0.0,0.0,0.0,0.0,0.0,0.0,0.0,0.0,0.0,0.0,0.0,0.0,0.0,0.0,0.0,0.0,0.0,0.0,0.0,0.0,0.0,0.0,0.0,0.0,0.0,0.0,0.0,0.0,0.0,0.0,0.0,0.0,0.0,0.0,0.0,0.0,0.0,0.0,0.0,0.0,0.0,0.0,0.0,0.0,0.0,0.0,0.0,0.0,0.0,0.0,0.0,0.0,0.0,0.0,0.0,0.0,0.0,0.0,0.0,0.0,0.0,0.0,0.0,0.0,0.0,0.0,0.0,0.0,0.0,0.0,0.0,0.0,0.0,0.0,0.0,0.0,0.0,0.0,0.0,0.0,0.0,0.0,0.0,0.0,-2.9453,-3.2457,-3.3615,-3.2587,-2.92,-2.6629,0.0,0.0,0.0,0.0,0.0,0.0,0.0,0.0,0.0,0.0,0.0,0.0,0.0,0.0,0.0,0.0,0.0,0.0,0.0,0.0,0.0,0.0,0.0,0.0,0.0,0.0,0.0,0.0,0.0,0.0,0.0,0.0,0.0,0.0,0.0,0.0,0.0,0.0,0.0,0.0,0.0,0.0,0.0,0.0,0.0,0.0,0.0,0.0,0.0,0.0,0.0,0.0,0.0,0.0,0.0,0.0,0.0,0.0,0.0,0.0,0.0,0.0,0.0,0.0,0.0,0.0,0.0,0.0,0.0,0.0,0.0,0.0,0.0,0.0,0.0,0.0,0.0,0.0,0.0,0.0,0.0,0.0,0.0,0.0,0.0,0.0,0.0,0.0,0.0,0.0,0.0,0.0,0.0,0.0,0.0,0.0,0.0,0.0,0.0,0.0,0.0,0.0,0.0,0.0,0.0,0.0,0.0,0.0,-2.8764,-3.0723,-3.4522,-3.6115,-3.5313,-3.0976,-2.7695,0.0,0.0,0.0,0.0,0.0,0.0,0.0,0.0,0.0,0.0,0.0,0.0,0.0,0.0,0.0,0.0,0.0,0.0,0.0,0.0,0.0,0.0,0.0,0.0,0.0,0.0,0.0,0.0,0.0,0.0,0.0,0.0,0.0,0.0,0.0,0.0,0.0,0.0,0.0,0.0,0.0,0.0,0.0,0.0,0.0,0.0,0.0,0.0,0.0,0.0,0.0,0.0,0.0,0.0,0.0,0.0,0.0,0.0,0.0,0.0,0.0,0.0,0.0,0.0,0.0,0.0,0.0,0.0,0.0,0.0,0.0,0.0,0.0,0.0,0.0,0.0,0.0,0.0,0.0,0.0,0.0,0.0,0.0,0.0,0.0,0.0,0.0,0.0,0.0,0.0,0.0,0.0,0.0,0.0,0.0,0.0,0.0,0.0,0.0,0.0,0.0,0.0,0.0,0.0,0.0,0.0,0.0,0.0,-3.0975,-3.2304,-3.6206,-3.7828,-3.6871,-3.2619,-2.8561,0.0,0.0,0.0,0.0,0.0,0.0,0.0,0.0,0.0,0.0,0.0,0.0,0.0,0.0,0.0,0.0,0.0,0.0,0.0,0.0,0.0,0.0,0.0,0.0,0.0,0.0,0.0,0.0,0.0,0.0,0.0,0.0,0.0,0.0,0.0,0.0,0.0,0.0,0.0,0.0,0.0,0.0,0.0,0.0,0.0,0.0,0.0,0.0,0.0,0.0,0.0,0.0,0.0,0.0,0.0,0.0,0.0,0.0,0.0,0.0,0.0,0.0,0.0,0.0,0.0,0.0,0.0,0.0,0.0,0.0,0.0,0.0,0.0,0.0,0.0,0.0,0.0,0.0,0.0,0.0,0.0,0.0,0.0,0.0,0.0,0.0,0.0,0.0,0.0,0.0,0.0,0.0,0.0,0.0,0.0,0.0,0.0,0.0,0.0,0.0,0.0,0.0,0.0,0.0,0.0,0.0,0.0,0.0,-3.0321,-3.2357,-3.5549,-3.6814,-3.6008,-3.273,-2.97,0.0,0.0,0.0,0.0,0.0,0.0,0.0,0.0,0.0,0.0,0.0,0.0,0.0,0.0,0.0,0.0,0.0,0.0,0.0,0.0,0.0,0.0,0.0,0.0,0.0,0.0,0.0,0.0,0.0,0.0,0.0,0.0,0.0,0.0,0.0,0.0,0.0,0.0,0.0,0.0,0.0,0.0,0.0,0.0,0.0,0.0,0.0,0.0,-2.623,0.0,0.0,0.0,0.0,0.0,0.0,0.0,0.0,0.0,0.0,0.0,0.0,0.0,0.0,0.0,0.0,0.0,0.0,0.0,0.0,0.0,0.0,0.0,0.0,0.0,0.0,0.0,0.0,0.0,0.0,0.0,0.0,0.0,0.0,0.0,0.0,0.0,0.0,0.0,0.0,0.0,0.0,0.0,0.0,0.0,0.0,0.0,0.0,0.0,0.0,0.0,0.0,0.0,0.0,0.0,0.0,0.0,0.0,0.0,-3.0757,-3.3161,-3.5629,-3.66,-3.5899,-3.3665,-3.0787,0.0,0.0,0.0,0.0,0.0,0.0,0.0,0.0,0.0,0.0,0.0,0.0,0.0,0.0,0.0,0.0,0.0,0.0,0.0,0.0,0.0,0.0,0.0,0.0,0.0,0.0,0.0,0.0,0.0,0.0,0.0,0.0,0.0,0.0,0.0,0.0,0.0,0.0,0.0,0.0,0.0,0.0,0.0,0.0,0.0,0.0,0.0,0.0,0.0,0.0,0.0,0.0,0.0,0.0,0.0,0.0,0.0,0.0,0.0,0.0,0.0,0.0,0.0,0.0,0.0,0.0,0.0,0.0,0.0,0.0,0.0,0.0,0.0,0.0,0.0,0.0,0.0,0.0,0.0,0.0,0.0,0.0,0.0,0.0,0.0,0.0,0.0,0.0,0.0,0.0,0.0,0.0,0.0,0.0,0.0,0.0,0.0,0.0,0.0,0.0,0.0,0.0,0.0,0.0,0.0,0.0,0.0,-2.8953,-3.1426,-3.4375,-3.5912,-3.6492,-3.6101,-3.4576,-3.1688,-2.7409,0.0,0.0,0.0,0.0,0.0,0.0,0.0,0.0,0.0,0.0,0.0,0.0,0.0,0.0,0.0,0.0,0.0,0.0,0.0,0.0,0.0,0.0,0.0,0.0,0.0,0.0,0.0,0.0,0.0,0.0,0.0,0.0,0.0,0.0,0.0,0.0,0.0,0.0,-1.991,-2.1817,0.0,0.0,0.0,0.0,0.0,0.0,0.0,0.0,-3.0884,0.0,0.0,0.0,0.0,0.0,0.0,0.0,0.0,0.0,0.0,0.0,0.0,0.0,0.0,0.0,0.0,0.0,0.0,0.0,0.0,0.0,0.0,0.0,0.0,0.0,0.0,0.0,0.0,0.0,0.0,0.0,0.0,0.0,0.0,0.0,0.0,0.0,0.0,0.0,0.0,0.0,0.0,0.0,0.0,0.0,0.0,0.0,0.0,0.0,0.0,0.0,0.0,0.0,0.0,0.0,0.0,-2.9656,-2.9212,-3.1247,-3.589,-3.5823,-3.5683,-3.5589,-3.4296,-3.1854,-2.8337,0.0,0.0,0.0,0.0,0.0,0.0,0.0,0.0,0.0,0.0,0.0,0.0,0.0,0.0,0.0,0.0,0.0,0.0,0.0,0.0,0.0,0.0,0.0,0.0,0.0,0.0,0.0,0.0,0.0,0.0,0.0,0.0,0.0,0.0,0.0,0.0,0.0,0.0,0.0,-2.3764,-2.4884,0.0,0.0,0.0,0.0,0.0,0.0,0.0,0.0,-3.204,0.0,0.0,0.0,0.0,0.0,0.0,0.0,0.0,0.0,0.0,0.0,0.0,0.0,0.0,0.0,0.0,0.0,0.0,0.0,0.0,0.0,0.0,0.0,0.0,0.0,0.0,0.0,0.0,0.0,0.0,0.0,0.0,0.0,0.0,0.0,0.0,0.0,0.0,0.0,0.0,0.0,0.0,0.0,0.0,0.0,0.0,0.0,0.0,0.0,0.0,0.0,0.0,0.0,0.0,0.0,-2.9234,-3.0042,-3.2214,-3.5871,-3.5701,-3.5489,-3.5459,-3.3544,-3.1183,0.0,0.0,0.0,0.0,0.0,0.0,0.0,0.0,0.0,0.0,0.0,0.0,0.0,0.0,0.0,0.0,0.0,0.0,0.0,0.0,0.0,0.0,0.0,0.0,0.0,0.0,0.0,0.0,0.0,0.0,0.0,0.0,0.0,0.0,0.0,0.0,0.0,0.0,0.0,0.0,-2.5581,-2.6898,-2.8965,0.0,0.0,0.0,0.0,0.0,0.0,-3.1722,-3.2026,0.0,0.0,0.0,0.0,0.0,0.0,0.0,0.0,0.0,0.0,0.0,0.0,0.0,0.0,0.0,0.0,0.0,0.0,0.0,0.0,0.0,0.0,0.0,0.0,0.0,0.0,0.0,0.0,0.0,0.0,0.0,0.0,0.0,0.0,0.0,0.0,0.0,0.0,0.0,0.0,0.0,0.0,0.0,0.0,0.0,0.0,0.0,0.0,0.0,0.0,0.0,0.0,0.0,0.0,0.0,-2.8441,-3.0651,-3.3047,-3.5569,-3.5604,-3.5522,-3.5444,-3.2901,-3.0528,0.0,0.0,0.0,0.0,0.0,0.0,0.0,0.0,0.0,0.0,0.0,0.0,0.0,0.0,0.0,0.0,0.0,0.0,0.0,0.0,0.0,0.0,0.0,0.0,0.0,0.0,0.0,0.0,0.0,0.0,0.0,0.0,0.0,0.0,0.0,0.0,0.0,0.0,0.0,0.0,0.0,-2.9129,-3.1126,-3.0844,0.0,0.0,0.0,0.0,-3.1216,-3.2434,0.0,0.0,0.0,0.0,0.0,0.0,0.0,0.0,0.0,0.0,0.0,0.0,0.0,0.0,0.0,0.0,0.0,0.0,0.0,0.0,0.0,0.0,0.0,0.0,0.0,0.0,0.0,0.0,0.0,0.0,0.0,0.0,0.0,0.0,0.0,0.0,0.0,0.0,0.0,0.0,0.0,0.0,0.0,0.0,0.0,0.0,0.0,0.0,0.0,0.0,0.0,0.0,0.0,0.0,0.0,0.0,-2.8094,-3.0212,-3.2708,-3.5524,-3.5688,-3.5606,-3.5474,-3.2901,-3.0584,0.0,0.0,0.0,0.0,0.0,0.0,0.0,0.0,0.0,0.0,0.0,0.0,0.0,0.0,0.0,0.0,0.0,0.0,0.0,0.0,0.0,0.0,0.0,0.0,0.0,0.0,0.0,0.0,0.0,0.0,0.0,0.0,0.0,0.0,0.0,0.0,0.0,0.0,0.0,0.0,0.0,-3.1065,-3.2031,-3.1539,-3.1286,0.0,0.0,-3.3372,-3.4589,-3.5992,0.0,0.0,0.0,0.0,0.0,0.0,0.0,0.0,0.0,0.0,0.0,0.0,0.0,0.0,0.0,0.0,0.0,0.0,0.0,0.0,0.0,0.0,0.0,0.0,0.0,0.0,0.0,0.0,0.0,0.0,0.0,0.0,0.0,0.0,0.0,0.0,0.0,0.0,0.0,0.0,0.0,0.0,0.0,0.0,0.0,0.0,0.0,0.0,0.0,0.0,0.0,0.0,0.0,0.0,0.0,-2.5705,-2.8275,-3.1304,-3.3876,-3.5757,-3.5389,-3.5082,-3.4906,-3.1255,-2.8712,0.0,0.0,0.0,0.0,0.0,0.0,0.0,0.0,0.0,0.0,0.0,0.0,0.0,0.0,0.0,0.0,0.0,0.0,0.0,0.0,0.0,0.0,0.0,0.0,0.0,0.0,0.0,0.0,0.0,0.0,0.0,0.0,0.0,0.0,0.0,0.0,0.0,0.0,0.0,0.0,0.0,0.0,-3.2866,-3.2768,0.0,0.0,0.0,-3.3844,-3.3818,0.0,0.0,0.0,0.0,0.0,0.0,0.0,0.0,0.0,0.0,0.0,0.0,0.0,0.0,0.0,0.0,0.0,0.0,0.0,0.0,0.0,0.0,0.0,0.0,0.0,0.0,0.0,0.0,0.0,0.0,0.0,0.0,0.0,0.0,0.0,0.0,0.0,0.0,0.0,0.0,0.0,0.0,0.0,0.0,0.0,0.0,0.0,0.0,0.0,0.0,0.0,0.0,0.0,0.0,0.0,0.0,0.0,-2.8403,-3.2272,-3.4774,-3.5749,-3.4985,-3.4483,-3.4282,-3.0648,0.0,0.0,0.0,0.0,0.0,0.0,0.0,0.0,0.0,0.0,0.0,0.0,0.0,0.0,0.0,0.0,0.0,0.0,0.0,0.0,0.0,0.0,0.0,0.0,0.0,0.0,0.0,-1.7126,0.0,0.0,0.0,0.0,0.0,0.0,0.0,0.0,0.0,0.0,0.0,0.0,0.0,0.0,-3.1642,-3.323,-3.3609,-3.4084,0.0,0.0,-3.4272,-3.3761,-3.5691,-3.6045,0.0,0.0,0.0,0.0,0.0,0.0,0.0,0.0,0.0,0.0,0.0,0.0,0.0,0.0,0.0,0.0,0.0,0.0,0.0,0.0,0.0,0.0,0.0,0.0,0.0,0.0,0.0,0.0,0.0,0.0,0.0,0.0,0.0,0.0,0.0,0.0,0.0,0.0,0.0,0.0,0.0,0.0,0.0,0.0,0.0,0.0,0.0,0.0,0.0,0.0,0.0,0.0,0.0,0.0,0.0,-2.8488,-3.2413,-3.4709,-3.5217,-3.4576,-3.4135,-3.391,-3.2355,-2.9991,0.0,0.0,0.0,0.0,0.0,0.0,0.0,0.0,0.0,0.0,0.0,0.0,0.0,0.0,0.0,0.0,0.0,0.0,0.0,0.0,0.0,0.0,0.0,0.0,0.0,0.0,0.0,0.0,0.0,0.0,0.0,0.0,0.0,0.0,0.0,0.0,0.0,0.0,0.0,0.0,0.0,-3.2597,-3.2737,-3.3626,-3.4904,0.0,0.0,-3.5261,-3.6413,-3.7828,-3.7382,-3.3051,0.0,0.0,0.0,0.0,0.0,0.0,0.0,0.0,0.0,0.0,0.0,0.0,0.0,0.0,0.0,0.0,0.0,0.0,0.0,0.0,0.0,0.0,0.0,0.0,0.0,0.0,0.0,0.0,0.0,0.0,0.0,0.0,0.0,0.0,0.0,0.0,0.0,0.0,0.0,0.0,0.0,0.0,0.0,0.0,0.0,0.0,0.0,0.0,0.0,0.0,0.0,0.0,0.0,-2.6195,-2.7142,-3.1536,-3.4094,-3.4529,-3.3918,-3.3523,-3.3347,-3.1635,-2.9303,0.0,0.0,0.0,0.0,0.0,0.0,0.0,0.0,0.0,0.0,0.0,0.0,0.0,0.0,0.0,0.0,0.0,0.0,0.0,0.0,0.0,0.0,0.0,0.0,0.0,0.0,0.0,0.0,-2.0595,-2.0609,-1.9795,0.0,0.0,0.0,0.0,0.0,0.0,0.0,0.0,0.0,0.0,-3.2105,-3.42,-3.4539,0.0,0.0,-3.6157,-3.5559,-3.5248,-3.5859,-3.5279,-3.1989,-3.0544,0.0,0.0,0.0,0.0,0.0,0.0,0.0,0.0,0.0,0.0,0.0,0.0,0.0,0.0,0.0,0.0,0.0,0.0,0.0,0.0,0.0,0.0,0.0,0.0,0.0,0.0,0.0,0.0,0.0,0.0,0.0,0.0,0.0,0.0,0.0,0.0,0.0,0.0,0.0,0.0,0.0,0.0,0.0,0.0,0.0,0.0,0.0,0.0,0.0,0.0,0.0,0.0,-2.5727,-2.6657,-3.1105,-3.3571,-3.3931,-3.3288,-3.2922,-3.2778,-3.1409,-2.9489,0.0,0.0,0.0,0.0,0.0,0.0,0.0,0.0,0.0,0.0,0.0,0.0,0.0,0.0,0.0,0.0,0.0,0.0,0.0,0.0,0.0,0.0,0.0,0.0,0.0,0.0,0.0,0.0,-2.1057,-2.1057,-1.9836,0.0,0.0,0.0,0.0,0.0,0.0,0.0,0.0,0.0,0.0,-3.1822,-3.3765,-3.3915,-3.4164,-3.5,-3.4777,-3.4309,-3.3715,-3.3883,-3.3431,-3.1364,0.0,0.0,0.0,0.0,0.0,0.0,0.0,0.0,0.0,0.0,0.0,0.0,0.0,0.0,0.0,0.0,0.0,0.0,0.0,0.0,0.0,0.0,0.0,0.0,0.0,0.0,0.0,0.0,0.0,0.0,0.0,0.0,0.0,0.0,0.0,0.0,0.0,0.0,0.0,0.0,0.0,0.0,0.0,0.0,0.0,0.0,0.0,0.0,0.0,0.0,0.0,0.0,0.0,-2.598,-2.7396,-3.1305,-3.3383,-3.3413,-3.2767,-3.2444,-3.2428,-3.2244,-3.1209,-2.9113,0.0,0.0,0.0,0.0,0.0,0.0,0.0,0.0,0.0,0.0,0.0,0.0,0.0,0.0,0.0,0.0,0.0,0.0,0.0,0.0,0.0,0.0,0.0,0.0,0.0,0.0,-1.8323,-1.9084,-1.9795,0.0,0.0,0.0,0.0,0.0,0.0,0.0,0.0,0.0,0.0,-3.0237,-3.1973,-3.0801,-3.1323,-3.1993,-3.2132,-3.1385,-3.1208,-3.2388,-3.2563,-3.2303,0.0,0.0,0.0,0.0,0.0,0.0,0.0,0.0,0.0,0.0,0.0,0.0,0.0,0.0,0.0,0.0,0.0,0.0,0.0,0.0,0.0,0.0,0.0,0.0,0.0,0.0,0.0,-2.3911,-2.3029,0.0,0.0,0.0,0.0,0.0,0.0,0.0,0.0,0.0,0.0,0.0,-2.9073,-2.9273,0.0,0.0,0.0,0.0,0.0,0.0,0.0,0.0,0.0,0.0,0.0,0.0,-2.5742,-2.6788,-3.0658,-3.2736,-3.2721,-3.2505,-3.2398,-3.2398,-3.237,-3.1034,-2.8269,0.0,0.0,0.0,0.0,0.0,0.0,0.0,0.0,0.0,0.0,0.0,0.0,0.0,0.0,0.0,0.0,0.0,0.0,0.0,0.0,0.0,0.0,0.0,0.0,0.0,-2.0857,0.0,0.0,0.0,0.0,0.0,0.0,0.0,0.0,0.0,0.0,0.0,-2.7195,-2.8793,-2.9528,-3.0269,-3.1268,-3.1431,-3.1993,0.0,0.0,0.0,0.0,0.0,0.0,0.0,0.0,0.0,0.0,0.0,0.0,0.0,0.0,-3.2832,-3.1664,-3.1922,-3.2374,-3.2463,0.0,0.0,0.0,0.0,0.0,0.0,0.0,0.0,0.0,0.0,0.0,0.0,0.0,0.0,0.0,0.0,-2.6013,0.0,0.0,0.0,0.0,0.0,0.0,0.0,0.0,-3.072,-3.1832,-3.1859,-3.2287,-3.2228,0.0,-3.0458,-2.8304,0.0,0.0,0.0,0.0,0.0,0.0,0.0,0.0,-2.5988,-2.6788,-3.0443,-3.2398,-3.2398,-3.2398,-3.2398,-3.2398,-3.2188,-3.0803,-2.8137,-2.5905,-2.3854,0.0,0.0,0.0,0.0,0.0,0.0,0.0,0.0,0.0,0.0,0.0,0.0,0.0,0.0,0.0,0.0,0.0,0.0,0.0,0.0,0.0,0.0,0.0,-2.1358,0.0,0.0,0.0,0.0,0.0,0.0,0.0,0.0,0.0,-2.5873,-2.7485,-2.9005,-2.992,-3.0276,-3.0535,-3.0712,0.0,0.0,0.0,0.0,0.0,0.0,0.0,-3.0072,-2.9589,-2.9515,-2.98,-3.061,-3.1543,-3.2492,-3.3304,0.0,0.0,-3.3521,-3.3938,-3.4562,-3.4875,-3.4896,-3.4896,-3.4945,-3.5209,-3.5416,0.0,0.0,0.0,0.0,0.0,0.0,0.0,0.0,-3.0763,-2.9602,0.0,-2.8965,0.0,0.0,0.0,0.0,0.0,0.0,0.0,0.0,-3.4752,-3.5737,-3.4582,-3.4536,-3.4551,-3.4474,-3.3152,-3.2151,-3.1332,-2.755,0.0,0.0,0.0,0.0,0.0,0.0,-2.668,-2.758,-3.0735,-3.2398,-3.2398,-3.2398,-3.2398,-3.2342,-3.1781,-3.0602,-2.8798,-2.7423,-2.6173,-2.4932,-2.1986,0.0,0.0,0.0,0.0,0.0,0.0,0.0,0.0,0.0,0.0,0.0,0.0,0.0,0.0,0.0,0.0,0.0,0.0,0.0,0.0,-2.0273,0.0,0.0,0.0,0.0,0.0,0.0,0.0,0.0,0.0,0.0,-2.7162,-2.8967,-3.0391,-3.0364,0.0,0.0,0.0,0.0,-3.0432,-2.8302,-2.7895,-2.8153,-2.8763,-2.9767,-3.0853,-3.1988,0.0,0.0,-3.3196,-3.268,-3.2395,-3.2368,-3.3835,-3.5118,-3.5812,-3.5969,-3.6053,-3.6105,-3.6171,-3.6067,-3.6147,-3.7034,-3.7539,-3.4313,0.0,0.0,0.0,0.0,-3.0254,-3.1597,-3.3575,-3.4182,-3.3401,-3.1705,-3.2242,0.0,0.0,0.0,0.0,0.0,0.0,-3.2194,-3.3627,-3.4628,-3.5383,-3.5907,-3.5922,-3.5937,-3.5922,-3.5491,-3.523,-3.4937,-3.2875,-2.9443,-2.4758,0.0,0.0,0.0,0.0,-2.7372,-2.951,-3.1428,-3.2398,-3.2398,-3.2398,-3.2188,-3.1766,-3.1116,-3.0303,-2.9296,-2.8495,-2.7244,-2.5565,-2.4283,0.0,0.0,0.0,0.0,0.0,0.0,0.0,0.0,0.0,0.0,0.0,0.0,0.0,0.0,0.0,0.0,0.0,0.0,0.0,-2.1473,-2.1459,-2.1557,0.0,0.0,0.0,0.0,0.0,0.0,0.0,0.0,0.0,-2.9998,-3.0228,-3.0242,0.0,0.0,-2.9129,-2.8085,-2.9129,-3.0235,-3.0798,0.0,0.0,0.0,-3.1992,-3.1789,-3.2164,-3.3122,-3.3853,-3.3691,-3.4258,-3.4706,-3.4692,-3.5452,-3.6171,-3.6415,-3.7427,-3.8186,-3.8612,-3.9017,-3.938,-3.9585,-3.9975,-4.0306,-3.856,-3.5277,-3.3431,-3.2819,-3.3076,-3.2913,-3.3876,-3.5649,-3.6232,-3.5632,-3.4274,-3.4771,-3.316,-2.9997,-3.0212,0.0,0.0,0.0,-3.3624,-3.5306,-3.5306,-3.5722,-3.6461,-3.6492,-3.6492,-3.6492,-3.6492,-3.6353,-3.6076,-3.4706,-3.1921,-2.7811,0.0,0.0,-2.5964,-2.7265,-2.8741,-3.0371,-3.172,-3.2398,-3.2398,-3.216,-3.1737,-3.1131,-3.045,-2.9811,-2.917,-2.8785,-2.8053,-2.6877,-2.5898,-2.4312,0.0,0.0,0.0,0.0,0.0,0.0,0.0,0.0,0.0,0.0,0.0,-1.8846,-1.7142,0.0,0.0,0.0,-2.0906,-2.2097,-2.3093,-2.2923,0.0,0.0,0.0,0.0,0.0,0.0,0.0,-2.7986,-2.9608,-3.0936,-3.1549,-3.1327,-3.1151,-3.1232,-3.0635,-3.0011,-2.955,0.0,-3.1477,-3.2137,-3.2205,-3.2426,-3.3094,-3.305,-3.3037,-3.3512,-3.4149,-3.4599,-3.4626,-3.5222,-3.5696,-3.575,-3.6008,-3.6239,-3.6252,-3.7248,-3.8391,-3.9086,-3.9517,-3.9894,-4.029,-4.0617,-4.1015,-4.2004,-4.0395,-3.5539,-3.4669,-3.6314,-3.5093,-3.5504,-3.7092,-3.7291,-3.6734,-3.5752,-3.6645,-3.545,-3.2718,-3.228,0.0,0.0,-3.4496,-3.5441,-3.6492,-3.6492,-3.6492,-3.6492,-3.6492,-3.6492,-3.6492,-3.6445,-3.6091,-3.5475,-3.4075,-3.2705,-3.1409,-3.0735,-2.9725,-2.855,-2.9627,-3.0279,-3.0417,-3.1613,-3.2262,-3.2327,-3.1794,-3.1146,-3.045,-2.9785,-2.9164,-2.8605,-2.8532,-2.8546,-2.8546,-2.6999,-2.6079,-2.5778,0.0,0.0,0.0,0.0,0.0,0.0,0.0,0.0,0.0,0.0,0.0,0.0,0.0,0.0,0.0,-2.3026,0.0,-2.4735,-2.4661,0.0,0.0,0.0,-2.6074,-2.8235,-2.8485,-2.9205,-3.0931,0.0,0.0,-3.2158,0.0,-3.2729,-3.3894,-3.388,-3.3379,-3.2331,-3.304,-3.3515,-3.2535,-3.2426,-3.2494,-3.2833,-3.3498,-3.4355,-3.5316,-3.571,-3.5655,-3.5642,-3.5669,-3.571,-3.571,-3.5723,-3.5737,-3.5723,-3.6253,-3.6848,-3.796,-3.8301,-3.8505,-3.8956,-3.9371,-3.9749,-4.3851,-4.3243,-3.9928,-3.8022,-3.7273,-3.7419,-3.7646,-3.7965,-3.856,-3.8185,-3.7219,-3.7436,-3.6847,-3.5672,-3.5473,-3.5581,-3.5935,-3.6014,-3.6215,-3.6492,-3.6492,-3.6492,-3.6492,-3.6492,-3.6492,-3.6461,-3.5968,-3.566,-3.546,-3.4091,-3.2705,-3.1439,-3.0709,-2.9725,-2.8473,-2.8695,-2.9396,-3.0402,-3.0709,-3.1124,-3.1707,-3.1566,-3.094,-2.9752,-2.9205,-2.8805,-2.8592,-2.8166,-2.8125,-2.8546,-2.818,-2.7325,-2.5928,-2.3188,0.0,0.0,0.0,0.0,0.0,0.0,0.0,0.0,0.0,-2.0344,-1.7181,0.0,-2.2137,0.0,-2.2535,-2.5058,-2.7198,-2.6646,0.0,0.0,-2.6997,-2.7331,-2.8369,-2.959,-3.0215,-2.9834,-3.0918,-3.1967,-3.263,-3.2746,-3.334,-3.5006,-3.3729,-3.2494,-3.2273,-3.3149,-3.3826,-3.3623,-3.4244,-3.4869,-3.4814,-3.5046,-3.5331,-3.5629,-3.571,-3.571,-3.571,-3.571,-3.571,-3.571,-3.571,-3.571,-3.5683,-3.5845,-3.5966,-3.6289,-3.7024,-3.7646,-3.7445,-3.7655,-3.7587,-4.4416,-4.3942,-4.2061,-4.0294,-3.8727,-3.8241,-3.7927,-3.7791,-3.8291,-3.8075,-3.739,-3.7297,-3.7111,-3.6847,-3.6677,-3.6631,-3.6677,-3.6631,-3.6554,-3.6492,-3.6492,-3.6492,-3.6492,-3.6492,-3.6369,-3.603,-3.5691,-3.5183,-3.4537,-3.3783,-3.2875,-3.1844,-3.149,-3.0602,-2.9335,-2.8704,-2.8667,-2.9185,-2.9501,-3.0258,-3.142,-3.0925,-3.0025,-2.8792,-2.8182,-2.7586,-2.703,-2.6687,-2.6508,-2.6606,-2.685,-2.643,-2.5154,-2.3323,-2.202,0.0,0.0,0.0,0.0,0.0,0.0,0.0,0.0,0.0,0.0,0.0,-2.3602,0.0,-2.5048,-2.7144,-2.8237,-2.7828,-2.782,-2.8575,-2.8676,-2.9084,-3.0216,-3.0939,-3.129,-3.1289,-3.1861,-3.2641,-3.3539,-3.3458,-3.3721,-3.5088,-3.4138,-3.3436,-3.3758,-3.4339,-3.4694,-3.4734,-3.5249,-3.571,-3.571,-3.571,-3.571,-3.571,-3.571,-3.571,-3.571,-3.571,-3.571,-3.571,-3.571,-3.5588,-3.5345,-3.5263,-3.5165,-3.4945,-3.5328,-3.6019,-3.6674,-3.6615,-3.6074,-4.4436,-4.3778,-4.2981,-4.1876,-4.0564,-3.8766,-3.7755,-3.7373,-3.7654,-3.7583,-3.7249,-3.6986,-3.6986,-3.714,-3.6862,-3.6754,-3.6754,-3.6708,-3.6647,-3.6507,-3.6492,-3.6492,-3.6492,-3.6492,-3.6184,-3.5614,-3.546,-3.4722,-3.3552,-3.3367,-3.2906,-3.2167,-3.2136,-3.1474,-3.014,-2.8907,-2.8063,-2.769,-2.8417,-2.9542,-3.0951,-2.9731,-2.8549,-2.7464,-2.6795,-2.5993,-2.5059,-2.4937,-2.4665,-2.4258,-2.4734,-2.4842,-2.4435,-2.3323,-2.2726,0.0,-2.1315,0.0,0.0,0.0,0.0,0.0,0.0,0.0,0.0,-2.5101,-2.5729,-2.7012,-2.8562,-2.9302,-2.8848,-2.8882,-2.928,-3.0158,-3.029,-3.0919,-3.2315,-3.2057,-3.2133,-3.333,-3.2914,-3.3043,-3.4124,-3.3924,-3.3827,-3.4413,-3.4624,-3.471,-3.5359,-3.5534,-3.5615,-3.571,-3.571,-3.571,-3.571,-3.571,-3.571,-3.571,-3.571,-3.571,-3.571,-3.571,-3.571,-3.571,-3.5588,-3.5345,-3.4799,-3.4675,-3.433,-3.3751,-3.3675,-3.4272,-3.5613,-3.5541,-3.4888,-4.5433,-4.5113,-4.378,-4.3057,-4.2682,-4.1282,-3.9691,-3.8148,-3.8815,-3.903,-3.8811,-3.806,-3.7857,-3.798,-3.7279,-3.7014,-3.7104,-3.6831,-3.6693,-3.6662,-3.6554,-3.6492,-3.6492,-3.6492,-3.643,-3.6245,-3.5183,-3.4551,-3.4274,-3.3165,-3.1967,-3.0801,-3.0771,-3.0109,-2.8818,0.0,0.0,0.0,-2.882,-2.9186,-2.8483,-2.7301,-2.6302,-2.5558,-2.4925,0.0,-2.4978,-2.4516,-2.4462,-2.4815,-2.4937,0.0,0.0,0.0,0.0,0.0,0.0,0.0,0.0,0.0,0.0,0.0,-2.6373,-2.5632,-2.5308,-2.5736,-2.6982,-2.913,-2.9337,-2.9835,-3.0967,-3.1086,-3.1187,-3.1368,-3.1416,-3.1532,-3.1869,-3.1793,-3.1837,-3.2001,-3.1957,-3.2189,-3.2957,-3.2957,-3.3129,-3.3797,-3.4343,-3.4716,-3.484,-3.5345,-3.5669,-3.571,-3.571,-3.571,-3.571,-3.571,-3.571,-3.571,-3.571,-3.571,-3.571,-3.5669,-3.5669,-3.5683,-3.5263,-3.4881,-3.4675,-3.4259,-3.367,-3.3,-3.2884,-3.3027,-3.3582,-3.3458,-3.3015,-4.5846,0.0,-4.4836,-4.4274,0.0,-4.3225,-4.1743,-3.9792,-3.993,-3.9736,-3.9267,-3.8827,-3.8686,-3.878,-3.8263,-3.806,-3.8075,-3.7499,-3.7204,-3.7063,-3.6708,-3.6492,-3.6492,-3.6492,-3.6322,-3.5968,-3.5337,-3.4643,-3.3937,-3.3229,-3.2228,-3.098,-3.0937,-3.0437,-2.9451,-2.9106,-2.8605,-2.7974,-2.8149,-2.8381,-2.8579,-2.7748,-2.6827,-2.5914,0.0,0.0,0.0,0.0,0.0,0.0,0.0,0.0,0.0,0.0,0.0,-2.7149,-2.6687,-2.6864,-2.8017,-2.8125,-2.8641,-2.9808,-2.9903,-2.904,-2.6999,-2.8247,-2.9489,-3.035,-3.0723,-3.1168,-3.1653,-3.1705,-3.1705,-3.1705,-3.1705,-3.1705,-3.1705,-3.1705,-3.1705,-3.1705,-3.1705,-3.1969,-3.2581,-3.2407,-3.2494,-3.3086,-3.3458,-3.3755,-3.3839,-3.4881,-3.571,-3.571,-3.571,-3.571,-3.571,-3.571,-3.5669,-3.571,-3.571,-3.571,-3.571,-3.5426,-3.5223,-3.5168,-3.4675,-3.4134,-3.3755,-3.3416,-3.3,-3.2407,-3.2232,-3.2245,-3.2325,-3.2257,-3.2101,-4.5998,-4.5972,-4.571,-4.5251,-4.4706,-4.466,-4.3553,-4.1617,0.0,0.0,0.0,-3.9566,-3.9518,-3.9503,-3.9297,-3.906,-3.8825,-3.82,-3.7684,-3.7324,-3.6769,-3.6523,-3.6492,-3.6492,-3.623,-3.5676,-3.5568,-3.4829,-3.3614,-3.3475,-3.2776,-3.1597,-3.148,-3.1116,-3.0359,-3.0228,-2.9634,-2.854,-2.7492,-2.7624,-2.8937,-2.8328,-2.7501,-2.6524,-2.6467,-2.6007,-2.5059,-2.5005,-2.48,-2.4448,-2.4801,-2.5154,-2.5466,-2.5955,-2.6809,-2.8071,-2.8288,-2.9048,-3.0595,-3.073,-3.1178,-3.2286,-3.2593,-3.1699,-2.9194,-3.0931,-3.1807,-3.1093,-3.1932,-3.2264,-3.1749,-3.1705,-3.1705,-3.1705,-3.1705,-3.1705,-3.1705,-3.1705,-3.1705,-3.1705,-3.1705,-3.1881,-3.2407,-3.2057,-3.1881,-3.2407,-3.2698,-3.2754,-3.3043,-3.4301,-3.5223,-3.5209,-3.5182,-3.5291,-3.5291,-3.5263,-3.5345,-3.5223,-3.5291,-3.5345,-3.525,-3.4881,-3.4551,-3.4509,-3.3966,-3.3386,-3.284,-3.2624,-3.2307,-3.1793,-3.1705,-3.1705,-3.1705,-3.1705,-3.1705,-4.5998,-4.5972,-4.571,-4.5537,-4.5451,-4.5319,-4.4478,-4.3059,-4.1337,-4.0815,-4.1224,-4.0656,-4.0419,-4.0387,-3.9724,-3.9047,-3.8403,-3.8293,-3.7732,0.0,-3.6708,-3.66,-3.6492,-3.6492,-3.6445,-3.6307,-3.5768,-3.5106,-3.4366,-3.3706,-3.2776,-3.1656,-3.148,-3.0852,-2.9723,-2.9195,-2.8834,-2.8574,-2.7982,-2.7494,-2.7179,-2.6079,-2.5439,-2.5276,-2.5317,-2.5195,-2.5018,-2.5032,-2.5208,-2.5602,-2.5236,-2.571,-2.7216,-2.7406,-2.822,-2.9889,-3.05,-3.1137,-3.1857,-3.1974,-3.2259,-3.281,-3.1988,-3.137,-3.1455,-3.2171,-3.2374,-3.17,-3.1789,-3.1793,-3.1705,-3.1705,-3.1705,-3.1705,-3.1705,-3.1705,-3.1705,-3.1705,-3.1705,-3.1705,-3.1705,-3.1705,-3.1837,-3.1793,-3.1749,-3.1925,-3.2276,-3.284,-3.3258,-3.3755,-3.3966,-3.3966,-3.3953,-3.3966,-3.4134,-3.4008,-3.4079,-3.3979,-3.4079,-3.4134,-3.4176,-3.3966,-3.3852,-3.3839,-3.3288,-3.2828,-3.2624,-3.2232,-3.1925,-3.1705,-3.1705,-3.1705,-3.1705,-3.1705,-3.1705,-4.6115,-4.6097,-4.5897,-4.577,-4.5641,-4.4746,-4.4037,-4.336,-4.1837,-4.1304,-4.1541,-4.1257,-4.113,-4.1099,-4.0783,-4.037,-3.9894,-3.9077,-3.8482,-3.7903,-3.708,-3.6739,-3.6754,-3.6677,-3.66,-3.6585,-3.6245,-3.5691,-3.5045,-3.4287,-3.3126,-3.1514,-3.0155,-2.9102,-2.8533,-2.795,-2.781,-2.8085,-2.7865,-2.7742,-2.7759,-2.7244,-2.6959,-2.6945,-2.6959,-2.6945,-2.6959,-2.6959,-2.7067,-2.7352,-2.7406,-2.7845,-2.8614,-2.898,-2.9686,-3.0798,-3.1137,-3.1544,-3.2164,-3.2517,-3.2816,-3.3064,-3.2788,-3.251,-3.2391,-3.1997,-3.1749,-3.1689,-3.1705,-3.1705,-3.1705,-3.1705,-3.1705,-3.1705,-3.1705,-3.1705,-3.1705,-3.1705,-3.1705,-3.1705,-3.1705,-3.1705,-3.1705,-3.1705,-3.1705,-3.1705,-3.2013,-3.232,-3.2612,-3.2643,-3.2902,-3.3543,-3.3713,-3.3713,-3.367,-3.3713,-3.3713,-3.3713,-3.3713,-3.3713,-3.367,-3.3471,-3.3172,-3.3129,-3.2612,-3.2232,-3.2189,-3.1925,-3.1749,-3.1705,-3.1705,-3.1705,-3.1705,-3.1749,-3.1805,-4.6214,-4.6189,-4.6048,-4.5897,-4.5624,-4.4322,-4.3672,-4.3393,-4.2301,-4.1737,-4.1621,-4.1588,-4.1588,-4.1588,-4.1588,-4.1316,-4.0742,-3.972,-3.8967,-3.8465,-3.7359,-3.6877,-3.6984,-3.6831,-3.6754,-3.6754,-3.6677,-3.623,-3.5553,-3.4802,-3.3277,-3.1077,-2.8917,-2.7804,-2.7567,-2.6935,-2.7033,-2.7824,-2.7631,-2.7854,-2.856,-2.8587,-2.8587,-2.8587,-2.8573,-2.8587,-2.8587,-2.8587,-2.8655,-2.8804,-2.9257,-2.9556,-2.9733,-3.0147,-3.0663,-3.1219,-3.13,-3.1612,-3.2318,-3.2668,-3.2985,-3.323,-3.3291,-3.3193,-3.2771,-3.1767,-3.1259,-3.1633,-3.1705,-3.1705,-3.1705,-3.1705,-3.1705,-3.1705,-3.1705,-3.1705,-3.1705,-3.1705,-3.1705,-3.1705,-3.1705,-3.1705,-3.1705,-3.1705,-3.1705,-3.1705,-3.1705,-3.1705,-3.1705,-3.1705,-3.2176,-3.2859,-3.3245,-3.3159,-3.3245,-3.3202,-3.3202,-3.3258,-3.3215,-3.3116,-3.3074,-3.2754,-3.255,-3.2407,-3.2101,-3.1805,-3.1705,-3.1705,-3.1705,-3.1705,-3.1705,-3.1705,-3.1761,-3.1849,-3.1893,-4.6196,-4.6172,-4.6073,-4.5863,-4.5563,-4.4872,-4.4169,-4.3482,-4.2787,-4.2158,-4.1654,-4.1588,-4.1588,-4.1588,-4.1588,-4.0876,-3.966,-3.9472,-3.8654,-3.7373,-3.7182,-3.7089,-3.7015,-3.6984,-3.6984,-3.6984,-3.6954,-3.6505,-3.5734,-3.4957,-3.2915,-2.9973,-2.8857,-2.8107,-2.7278,-2.6442,-2.6836,-2.8454,-2.7437,-2.7447,-2.8519,-2.8587,-2.8587,-2.8587,-2.8587,-2.8587,-2.8587,-2.8587,-2.8864,-2.9366,-2.9461,-2.9726,-3.0228,-3.0378,-3.0676,-3.1232,-3.1314,-3.1775,-3.2833,-3.2471,-3.2656,-3.3515,-3.2695,-3.2272,-3.2623,-3.2047,-3.1645,-3.1705,-3.1705,-3.1705,-3.1705,-3.1705,-3.1705,-3.1705,-3.1705,-3.1705,-3.1705,-3.1705,-3.1705,-3.1705,-3.1705,-3.1705,-3.1705,-3.1705,-3.1705,-3.1705,-3.1705,-3.1705,-3.1705,-3.1705,-3.1669,-3.1889,-3.1901,-3.1933,-3.1952,-3.1925,-3.1984,-3.1965,-3.1913,-3.2021,-3.1996,-3.1977,-3.1793,-3.1969,-3.1849,-3.1761,-3.1717,-3.1705,-3.1749,-3.1805,-3.1805,-3.1805,-3.1893,-3.1893,-3.1793,-4.5793,-4.6196,-4.6165,-4.5998,-4.5744,-4.5008,-4.4524,-4.414,-4.3047,-4.2412,-4.2142,-4.1769,-4.1588,-4.1588,-4.1588,-4.1019,-4.0039,-3.9172,-3.848,-3.7805,-3.7035,-3.6847,-3.724,-3.7165,-3.7119,-3.7089,-3.703,-3.6798,-3.629,-3.5061,-3.3079,-3.0753,-2.9668,-2.8816,-2.8088,-2.7357,-2.7584,-2.8605,-2.8168,-2.8321,-2.9006,-2.878,-2.8587,-2.8587,-2.8587,-2.8587,-2.8587,-2.8587,-2.8709,-2.8953,-2.9312,-2.9624,-2.9849,-3.0201,-3.0676,-3.1295,-3.2217,-3.3102,-3.3939,-3.3634,-3.3673,-3.418,-3.3049,-3.2432,-3.2643,-3.2101,-3.1705,-3.1705,-3.1705,-3.1705,-3.1705,-3.1705,-3.1705,-3.1705,-3.1705,-3.1705,-3.1705,-3.1705,-3.1705,-3.1705,-3.1705,-3.1705,-3.1705,-3.1705,-3.1705,-3.1705,-3.1705,-3.1705,-3.1705,-3.1705,-3.1573,-3.132,-3.1235,-3.1247,-3.1259,-3.1524,-3.1404,-3.1036,-3.1276,-3.1645,-3.1344,-3.156,-3.1705,-3.1705,-3.1805,-3.1849,-3.1893,-3.2025,-3.2113,-3.2125,-3.2125,-3.2125,-3.2213,-3.2288,-3.2245,-4.5567,-4.6161,-4.6214,-4.6122,-4.593,-4.5213,-4.4644,-4.417,-4.3177,-4.2534,-4.2122,-4.1755,-4.1588,-4.1588,-4.1588,-4.1225,-4.0466,-3.922,-3.8448,-3.8129,-3.7046,-3.6778,-3.7196,-3.7296,-3.7284,-3.7254,-3.7195,-3.703,-3.6631,-3.5253,-3.3396,-3.1507,-3.0344,-2.9428,-2.8586,-2.8034,-2.8176,-2.8861,-2.8798,-2.9048,-2.9549,-2.9162,-2.8876,-2.8876,-2.8876,-2.8876,-2.8876,-2.878,-2.8748,-2.8729,-2.9334,-2.973,-2.9894,-3.0535,-3.1288,-3.2069,-3.3129,-3.4004,-3.4519,-3.4203,-3.3979,-3.3989,-3.3073,-3.255,-3.2506,-3.2101,-3.1849,-3.1893,-3.1893,-3.1893,-3.1705,-3.1705,-3.1705,-3.1705,-3.1705,-3.1705,-3.1705,-3.1705,-3.1705,-3.1705,-3.1705,-3.1705,-3.1705,-3.1705,-3.1705,-3.1805,-3.1805,-3.1849,-3.1801,-3.176,-3.1506,-3.11,-3.09,-3.0748,-3.073,-3.0934,-3.0771,-3.0579,-3.0826,-3.1103,-3.0922,-3.1308,-3.1677,-3.1697,-3.1901,-3.2038,-3.2125,-3.23,-3.2388,-3.24,-3.24,-3.2431,-3.2463,-3.2593,-3.2593,-4.5717,-4.6144,-4.6196,-4.6105,-4.5947,-4.5546,-4.4526,-4.3367,-4.3145,-4.2384,-4.1324,-4.15,-4.1588,-4.1542,-4.1526,-4.1225,-4.0546,-3.9708,-3.8728,-3.7731,-3.7385,-3.7054,-3.6519,-3.7148,-3.7433,-3.7291,-3.7324,-3.6951,-3.6166,-3.5424,-3.3765,-3.1426,-3.0779,-2.9732,-2.8552,-2.8137,-2.8423,-2.942,-2.9078,-2.9197,-2.9903,-2.9741,-2.954,-2.954,-2.954,-2.9509,-2.9477,-2.9226,-2.9067,-2.9099,-2.9619,-3.0185,-3.0798,-3.1692,-3.2695,-3.3856,-3.3963,-3.4122,-3.4376,-3.3548,-3.2957,-3.3008,-3.2575,-3.2169,-3.2431,-3.2157,-3.2113,-3.2344,-3.23,-3.2169,-3.1849,-3.1805,-3.1749,-3.1705,-3.1749,-3.1749,-3.1705,-3.1761,-3.1717,-3.1705,-3.1761,-3.1805,-3.1749,-3.1705,-3.1813,-3.1901,-3.1957,-3.1965,-3.1993,-3.1773,-3.1449,-3.1198,-3.0833,-3.0385,-3.0194,-3.035,-3.0332,-3.0109,-3.0121,-3.038,-3.0706,-3.0995,-3.1378,-3.1707,-3.1899,-3.2047,-3.2264,-3.2388,-3.2487,-3.2487,-3.2531,-3.2562,-3.268,-3.2519,-3.2574,-4.4576,-4.5554,-4.6003,-4.6172,-4.6097,-4.5871,-4.5044,-4.3894,-4.3838,-4.2837,-4.1507,-4.174,-4.1438,-4.0578,-4.0863,-4.083,-4.0498,-3.9408,-3.8602,-3.7986,-3.6785,-3.6232,-3.6393,-3.6263,-3.6181,-3.62,-3.6595,-3.6531,-3.6025,-3.5691,-3.4399,-3.2445,-3.1896,-3.1087,-2.9968,-2.9635,-2.9838,-3.0175,-3.0011,-3.0066,-3.0372,-3.031,-3.0235,-3.0205,-2.9806,-2.9602,-2.9602,-2.9477,-2.9415,-2.9415,-2.9638,-3.0029,-3.0699,-3.212,-3.3691,-3.5203,-3.5588,-3.5701,-3.5552,-3.4807,-3.4069,-3.3594,-3.2785,-3.2313,-3.2356,-3.23,-3.23,-3.24,-3.24,-3.23,-3.2213,-3.2169,-3.2081,-3.1937,-3.2025,-3.2069,-3.1981,-3.2038,-3.2081,-3.1994,-3.2038,-3.2157,-3.2125,-3.2157,-3.2023,-3.1748,-3.1675,-3.1583,-3.132,-3.1104,-3.0896,-3.0564,-3.0237,-2.9951,-2.9468,-2.9891,-3.0031,-2.9733,-2.9706,-3.0027,-3.0384,-3.0627,-3.0997,-3.1479,-3.1749,-3.2001,-3.2209,-3.2487,-3.2537,-3.2692,-3.2704,-3.2667,-3.2952,-3.2822,-3.2865,-4.4096,-4.4782,-4.5512,-4.5828,-4.5804,-4.5581,-4.4852,-4.3829,-4.3449,-4.2427,-4.1185,-4.1373,-4.094,-4.016,-4.0292,-4.0341,-4.0135,-3.9044,-3.8523,-3.8349,-3.6579,-3.5853,-3.5963,-3.56,-3.5505,-3.5774,-3.6156,-3.6124,-3.5539,-3.5337,-3.4265,-3.252,-3.2288,-3.1671,-3.0772,-3.0612,-3.0612,-3.0612,-3.0612,-3.0598,-3.0612,-3.0612,-3.0612,-3.0538,-3.0144,-2.9913,-2.9913,-2.982,-2.9772,-2.9772,-2.9772,-3.0185,-3.1172,-3.3141,-3.4696,-3.5662,-3.6107,-3.6097,-3.556,-3.4951,-3.4249,-3.3645,-3.2957,-3.2519,-3.2605,-3.2562,-3.2562,-3.2605,-3.2649,-3.2605,-3.2519,-3.2562,-3.2475,-3.2213,-3.23,-3.2356,-3.2181,-3.2257,-3.2245,-3.2145,-3.2269,-3.2412,-3.2444,-3.2228,-3.1958,-3.1619,-3.1514,-3.1193,-3.0993,-3.0733,-3.056,-3.0177,-2.9927,-2.9653,-2.9364,-2.9569,-2.9675,-2.9415,-2.937,-2.9735,-3.0045,-3.0307,-3.0684,-3.1181,-3.1549,-3.1866,-3.2129,-3.2419,-3.2599,-3.278,-3.2712,-3.2552,-3.2825,-3.3081,-3.3081,-4.4577,-4.4085,-4.4764,-4.508,-4.5032,-4.4662,-4.3828,-4.2852,-4.2051,-4.1255,-4.0224,-4.0388,-4.0381,-3.9994,-3.9919,-3.9814,-3.947,-3.8728,-3.846,-3.8349,-3.6993,-3.5995,-3.5489,-3.5347,-3.5524,-3.5988,-3.6237,-3.5707,-3.4687,-3.4226,-3.3412,-3.2391,-3.1798,-3.1293,-3.0612,-3.0612,-3.0612,-3.0612,-3.0612,-3.0612,-3.0612,-3.0612,-3.0612,-3.0612,-3.0552,-3.0507,-3.0538,-3.0249,-3.014,-3.0138,-3.0183,-3.091,-3.2616,-3.4703,-3.5849,-3.5465,-3.554,-3.513,-3.4264,-3.37,-3.3343,-3.2927,-3.2754,-3.281,-3.2952,-3.2853,-3.281,-3.2982,-3.3038,-3.2982,-3.2766,-3.2896,-3.2865,-3.2475,-3.2431,-3.2475,-3.2431,-3.24,-3.2307,-3.2178,-3.2413,-3.2593,-3.2481,-3.221,-3.184,-3.1749,-3.1456,-3.1112,-3.1038,-3.0701,-3.058,-3.0403,-3.0009,-2.958,-2.9403,-2.926,-2.9219,-2.918,-2.9241,-2.9428,-2.9776,-3.0103,-3.0378,-3.0868,-3.1282,-3.1556,-3.1664,-3.1951,-3.2102,-3.2215,-3.2252,-3.2503,-3.2842,-3.3124,-3.3124,-4.4187,-4.3447,-4.4009,-4.429,-4.4249,-4.4113,-4.3419,-4.2447,-4.2304,-4.1418,-4.0211,-4.0496,-4.018,-3.9372,-3.9216,-3.9171,-3.9017,-3.8249,-3.8049,-3.8191,-3.704,-3.6074,-3.5426,-3.4889,-3.4624,-3.4544,-3.4535,-3.4272,-3.3804,-3.3562,-3.2912,-3.192,-3.1573,-3.1192,-3.0641,-3.0612,-3.0612,-3.0612,-3.0612,-3.0612,-3.0612,-3.0612,-3.0612,-3.0612,-3.0612,-3.0612,-3.0612,-3.0492,-3.0648,-3.1007,-3.1096,-3.2113,-3.4138,-3.5247,-3.6136,-3.7026,-3.6708,-3.6068,-3.5183,-3.4371,-3.3611,-3.3142,-3.2982,-3.2982,-3.3081,-3.3025,-3.2995,-3.3068,-3.3124,-3.3025,-3.3025,-3.3025,-3.2952,-3.2649,-3.2766,-3.2766,-3.2599,-3.2568,-3.2413,-3.2201,-3.2548,-3.2896,-3.2896,-3.2566,-3.2142,-3.1585,-3.1339,-3.1079,-3.047,-3.0256,-3.0055,-3.0018,-2.9714,-2.9638,-2.956,-2.9521,-2.9495,-2.9417,-2.9378,-2.939,-2.9677,-2.9878,-3.0194,-3.0471,-3.0926,-3.1192,-3.1298,-3.1348,-3.1474,-3.1851,-3.2102,-3.2466,-3.2973,-3.3061,-3.2973,-4.3565,-4.2762,-4.3331,-4.3575,-4.3483,-4.35,-4.294,-4.2026,-4.1875,-4.1019,-3.996,-4.01,-3.9757,-3.8962,-3.8841,-3.8805,-3.8656,-3.8097,-3.7998,-3.8041,-3.702,-3.6184,-3.571,-3.5031,-3.4242,-3.3685,-3.3659,-3.3362,-3.2781,-3.2601,-3.2076,-3.1313,-3.1163,-3.0988,-3.0641,-3.0612,-3.0612,-3.0612,-3.0612,-3.0612,-3.0612,-3.0612,-3.0612,-3.0612,-3.0612,-3.0612,-3.0612,-3.0612,-3.0872,-3.1496,-3.1946,-3.3079,-3.4593,-3.5299,-3.6136,-3.6633,-3.6617,-3.5989,-3.5196,-3.4288,-3.3738,-3.3197,-3.3124,-3.3124,-3.3124,-3.3124,-3.3124,-3.3124,-3.3124,-3.3124,-3.3124,-3.3124,-3.3025,-3.2896,-3.2982,-3.2925,-3.2616,-3.2486,-3.2389,-3.2135,-3.2269,-3.239,-3.2294,-3.2135,-3.1926,-3.1235,-3.0922,-3.0683,-2.9967,-2.9817,-2.9792,-2.9804,-2.9753,-2.974,-2.9779,-2.9779,-2.9779,-2.9702,-2.9624,-2.9624,-2.9788,-2.9813,-3.0002,-3.0115,-3.0442,-3.0693,-3.0796,-3.067,-3.0733,-3.1273,-3.1813,-3.1851,-3.2064,-3.2554,-3.2604,-4.2857,-4.2062,-4.2735,-4.2957,-4.2773,-4.275,-4.2335,-4.1555,-4.0834,-4.0163,-3.9563,-3.9475,-3.9236,-3.8903,-3.8848,-3.8697,-3.8448,-3.8367,-3.8193,-3.7819,-3.7014,-3.6397,-3.6058,-3.5379,-3.4407,-3.3421,-3.3434,-3.3,-3.2009,-3.1661,-3.1073,-3.0715,-3.0699,-3.0627,-3.0612,-3.0612,-3.0612,-3.0612,-3.0612,-3.0612,-3.0612,-3.0612,-3.0612,-3.0612,-3.0612,-3.0612,-3.0612,-3.0699,-3.0974,-3.1611,-3.2788,-3.359,-3.4012,-3.5314,-3.5705,-3.5372,-3.545,-3.509,-3.44,-3.3725,-3.3197,-3.3124,-3.3124,-3.3124,-3.3124,-3.3124,-3.3124,-3.3124,-3.3124,-3.3124,-3.3124,-3.3124,-3.3081,-3.3068,-3.298,-3.2717,-3.2252,-3.2123,-3.1938,-3.1748,-3.1559,-3.1333,-3.1182,-3.0976,-3.0856,-3.0645,-3.0344,-3.0105,-2.9867,-2.9779,-2.9779,-2.9779,-2.9779,-2.9779,-2.9779,-2.9779,-2.9779,-2.9779,-2.974,-2.9753,-2.9792,-2.9804,-2.9804,-2.9892,-2.9993,-3.0206,-3.0294,-3.0218,-3.0432,-3.1022,-3.1198,-3.1009,-3.1348,-3.1989,-3.2265,-4.3207,-4.2445,-4.2481,-4.236,-4.2145,-4.2145,-4.1947,-4.1528,-4.0755,-4.0269,-4.0011,-3.953,-3.9262,-3.9164,-3.8887,-3.875,-3.8683,-3.8504,-3.8363,-3.8165,-3.7452,-3.6502,-3.5684,-3.4936,-3.401,-3.3029,-3.2901,-3.2384,-3.1524,-3.1336,-3.1043,-3.0642,-3.0612,-3.0612,-3.0612,-3.0612,-3.0612,-3.0612,-3.0612,-3.0612,-3.0612,-3.0612,-3.0612,-3.0612,-3.0612,-3.0612,-3.0656,-3.1032,-3.1584,-3.2249,-3.347,-3.4433,-3.4748,-3.4895,-3.5129,-3.547,-3.4668,-3.4268,-3.4238,-3.3569,-3.3167,-3.3124,-3.3124,-3.3124,-3.3124,-3.3124,-3.3124,-3.3124,-3.3124,-3.3111,-3.3124,-3.3124,-3.3124,-3.3074,-3.2742,-3.2277,-3.1825,-3.1587,-3.1333,-3.0633,-3.1016,-3.1104,-3.096,-3.0938,-3.0909,-3.062,-3.0394,-3.0181,-2.9892,-2.9779,-2.9779,-2.9779,-2.9779,-2.9779,-2.9779,-2.9779,-2.9779,-2.9779,-2.9779,-2.9779,-2.9792,-2.9792,-2.9792,-2.9817,-2.9854,-3.003,-2.9993,-2.993,-3.0382,-3.0821,-3.0746,-3.0696,-3.1248,-3.1825,-3.1876,-4.3084,-4.2609,-4.247,-4.2228,-4.1934,-4.1895,-4.1697,-4.1277,-4.0707,-4.0319,-4.0087,-3.9556,-3.9315,-3.9272,-3.9094,-3.9013,-3.8985,-3.8865,-3.8683,-3.8414,-3.7674,-3.6554,-3.5539,-3.5005,-3.4468,-3.3256,-3.2722,-3.2228,-3.1709,-3.1263,-3.0866,-3.0672,-3.0642,-3.0642,-3.0612,-3.0672,-3.0672,-3.0598,-3.0612,-3.0612,-3.0612,-3.0612,-3.0612,-3.0612,-3.0612,-3.0612,-3.0685,-3.1177,-3.183,-3.2556,-3.347,-3.4298,-3.4907,-3.4879,-3.5039,-3.5671,-3.4603,-3.4206,-3.4253,-3.3656,-3.3167,-3.3124,-3.3124,-3.3124,-3.3061,-3.2893,-3.2754,-3.3086,-3.2867,-3.2867,-3.3086,-3.3124,-3.3124,-3.3061,-3.2566,-3.2102,-3.175,-3.1562,-3.1041,-3.0548,-3.0451,-3.0656,-3.0461,-3.0656,-3.057,-3.0344,-3.0206,-3.003,-2.9854,-2.9817,-2.9779,-2.9779,-2.9779,-2.9779,-2.9779,-2.9779,-2.9779,-2.9779,-2.9779,-2.9779,-2.9779,-2.9779,-2.9779,-2.9779,-2.9779,-2.9817,-2.9892,-2.9955,-3.0168,-3.0419,-3.0357,-3.0432,-3.0859,-3.1587,-3.1612,-4.2787,-4.2649,-4.2649,-4.2371,-4.198,-4.1917,-4.1613,-4.1024,-4.0587,-4.0212,-3.9884,-3.9484,-3.9315,-3.9315,-3.9245,-3.9288,-3.9272,-3.9218,-3.8968,-3.8521,-3.7775,-3.6707,-3.5497,-3.5786,-3.5293,-3.4206,-3.3045,-3.2561,-3.2144,-3.1279,-3.0777,-3.0732,-3.0791,-3.0762,-3.0732,-3.0791,-3.0762,-3.0732,-3.0702,-3.0702,-3.0702,-3.0732,-3.0732,-3.0732,-3.0672,-3.0642,-3.0758,-3.1135,-3.1683,-3.2452,-3.3155,-3.3786,-3.4312,-3.4822,-3.4866,-3.4668,-3.4123,-3.386,-3.4206,-3.3341,-3.3061,-3.3086,-3.3124,-3.3061,-3.288,-3.2541,-3.2478,-3.2855,-3.2503,-3.2591,-3.3011,-3.3124,-3.3036,-3.288,-3.2466,-3.2252,-3.2039,-3.165,-3.111,-3.062,-3.008,-2.9842,-2.9779,-2.9779,-2.9817,-3.0068,-2.998,-2.9917,-2.9829,-2.9804,-2.9779,-2.9779,-2.9779,-2.9779,-2.9779,-2.9779,-2.9779,-2.9779,-2.9779,-2.9779,-2.9779,-2.9779,-2.9779,-2.9779,-2.9779,-2.993,-3.0143,-3.0206,-3.0156,-3.0206,-3.0269,-3.0068,-3.0043,-3.106,-3.1486,-4.2881,-4.2825,-4.2843,-4.2611,-4.2267,-4.2187,-4.1744,-4.1001,-4.0587,-4.0212,-3.9884,-3.9484,-3.9315,-3.9315,-3.9315,-3.9315,-3.9315,-3.9282,-3.898,-3.8348,-3.8154,-3.7162,-3.6138,-3.6215,-3.5782,-3.4924,-3.4225,-3.3417,-3.2604,-3.1821,-3.1292,-3.1014,-3.0984,-3.1028,-3.0984,-3.0984,-3.1028,-3.0984,-3.0984,-3.0955,-3.0955,-3.0955,-3.0955,-3.0955,-3.0821,-3.0762,-3.0746,-3.0758,-3.1337,-3.2353,-3.3137,-3.3566,-3.3504,-3.317,-3.2982,-3.2725,-3.2096,-3.1983,-3.251,-3.2663,-3.2616,-3.3074,-3.3099,-3.288,-3.2428,-3.229,-3.2252,-3.239,-3.229,-3.2441,-3.2968,-3.3124,-3.2855,-3.2541,-3.229,-3.2001,-3.1599,-3.111,-3.062,-3.0181,-2.9917,-2.9779,-2.9779,-2.9779,-2.9779,-2.9779,-2.9779,-2.9779,-2.9779,-2.9779,-2.9779,-2.9779,-2.9779,-2.9779,-2.9779,-2.9779,-2.9779,-2.9779,-2.9779,-2.9628,-2.9641,-2.9679,-2.9641,-2.9691,-2.9779,-2.9967,-3.0131,-3.0043,-2.9917,-3.0055,-3.0156,-3.003,-3.0131,-3.0909,-3.1373,-4.2919,-4.2919,-4.2919,-4.267,-4.2328,-4.2287,-4.1913,-4.1255,-4.0635,-4.0294,-4.0054,-3.9573,-3.9315,-3.9315,-3.9315,-3.9315,-3.9315,-3.9299,-3.9116,-3.8709,-3.8401,-3.798,-3.7656,-3.7091,-3.6555,-3.5304,-3.4474,-3.3721,-3.2856,-3.1971,-3.1263,-3.1132,-3.1161,-3.1132,-3.1132,-3.1161,-3.1132,-3.1087,-3.1087,-3.1087,-3.1087,-3.1087,-3.1087,-3.1073,-3.0984,-3.0955,-3.0925,-3.1203,-3.1587,-3.2272,-3.3075,-3.3451,-3.3136,-3.2506,-3.2067,-3.1814,-3.1435,-3.1508,-3.2184,-3.2297,-3.2478,-3.3018,-3.3124,-3.2742,-3.229,-3.2014,-3.1989,-3.2077,-3.2077,-3.2127,-3.293,-3.2754,-3.2503,-3.2277,-3.1964,-3.1612,-3.1122,-3.0771,-3.0532,-3.0181,-2.998,-2.9842,-2.9779,-2.9779,-2.9779,-2.9779,-2.9779,-2.9779,-2.9779,-2.9779,-2.9779,-2.9779,-2.9779,-2.9779,-2.9779,-2.9779,-2.9779,-2.9779,-2.9779,-2.9528,-2.9315,-2.939,-2.9453,-2.9553,-2.9666,-2.9779,-2.9892,-2.9792,-2.9792,-2.988,-2.9967,-2.998,-3.0156,-3.0595,-3.1009,-4.2919,-4.2919,-4.2919,-4.2689,-4.2389,-4.2348,-4.204,-4.1458,-4.0664,-4.0263,-4.0093,-3.9415,-3.8901,-3.9232,-3.9133,-3.9166,-3.9299,-3.9315,-3.9216,-3.9133,-3.8477,-3.8411,-3.8467,-3.8074,-3.7078,-3.5243,-3.4668,-3.3948,-3.2888,-3.1884,-3.1293,-3.119,-3.1263,-3.1263,-3.122,-3.1278,-3.1307,-3.122,-3.119,-3.1205,-3.1205,-3.1205,-3.1205,-3.119,-3.1132,-3.1132,-3.1191,-3.1423,-3.1803,-3.1929,-3.277,-3.3038,-3.2905,-3.2506,-3.1856,-3.175,-3.1276,-3.1435,-3.1842,-3.2066,-3.2277,-3.288,-3.3099,-3.2717,-3.2164,-3.1738,-3.1712,-3.1863,-3.1964,-3.2244,-3.296,-3.2616,-3.2265,-3.1989,-3.1587,-3.1072,-3.0645,-3.0482,-3.0394,-3.0344,-3.0018,-2.9804,-2.9779,-2.9779,-2.9779,-2.9779,-2.9779,-2.9779,-2.9779,-2.9779,-2.9779,-2.9779,-2.9779,-2.9779,-2.9779,-2.9779,-2.9779,-2.9767,-2.9767,-2.9428,-2.9114,-2.9139,-2.9252,-2.9428,-2.9553,-2.9616,-2.9716,-2.9779,-2.9792,-2.9792,-2.993,-3.0105,-3.0206,-3.0306,-3.0658,-4.2919,-4.2919,-4.2919,-4.2767,-4.257,-4.2532,-4.2107,-4.1296,-4.0337,-3.9894,-3.9775,-3.8294,-3.8321,-3.8901,-3.8609,-3.8725,-3.9199,-3.9315,-3.9315,-3.9199,-3.8626,-3.8477,-3.851,-3.8434,-3.736,-3.6168,-3.5279,-3.4275,-3.2863,-3.1825,-3.1409,-3.1424,-3.1438,-3.1409,-3.1409,-3.1453,-3.1438,-3.138,-3.1395,-3.1395,-3.1395,-3.1395,-3.1395,-3.1395,-3.1307,-3.1308,-3.1264,-3.1192,-3.1346,-3.1767,-3.1378,-3.1504,-3.1843,-3.2001,-3.1466,-3.0685,-3.0381,-3.0635,-3.1063,-3.1398,-3.1775,-3.2303,-3.2747,-3.2508,-3.18,-3.1449,-3.1424,-3.1712,-3.2265,-3.286,-3.3048,-3.2478,-3.1989,-3.1574,-3.106,-3.0557,-3.0131,-2.9993,-3.0005,-3.0018,-2.9867,-2.9779,-2.9779,-2.9779,-2.9779,-2.9779,-2.9779,-2.9779,-2.9779,-2.9779,-2.9779,-2.9779,-2.9779,-2.9779,-2.9779,-2.9779,-2.9779,-2.9754,-2.9666,-2.9327,-2.9076,-2.8938,-2.8988,-2.8913,-2.9089,-2.9277,-2.9428,-2.9679,-2.9767,-2.9754,-2.9993,-3.0269,-3.0181,-3.0131,-3.0419,-4.2919,-4.2919,-4.2919,-4.2786,-4.2629,-4.2609,-4.2187,-4.145,-4.0649,-4.0148,-3.9606,-3.8487,-3.8245,-3.8884,-3.8526,-3.8609,-3.9149,-3.9315,-3.9315,-3.9183,-3.895,-3.8758,-3.8742,-3.8742,-3.764,-3.6448,-3.5584,-3.4573,-3.2996,-3.1955,-3.1554,-3.1496,-3.1496,-3.1496,-3.1496,-3.1496,-3.1496,-3.1496,-3.1496,-3.1496,-3.1496,-3.1496,-3.1496,-3.1467,-3.1497,-3.1588,-3.1857,-3.1795,-3.204,-3.2444,-3.2173,-3.1847,-3.1715,-3.1589,-3.127,-3.0228,-2.9946,-3.0135,-3.0534,-3.0964,-3.1332,-3.1754,-3.2185,-3.1908,-3.1289,-3.0997,-3.1122,-3.1512,-3.2014,-3.2629,-3.2591,-3.2114,-3.1574,-3.1047,-3.0545,-3.0131,-2.988,-2.9804,-2.9779,-2.9779,-2.9779,-2.9779,-2.9779,-2.9779,-2.9779,-2.9779,-2.9779,-2.9779,-2.9779,-2.9779,-2.9779,-2.9779,-2.9779,-2.9779,-2.9741,-2.9679,-2.9654,-2.9628,-2.9402,-2.9076,-2.8687,-2.8436,-2.8185,-2.7996,-2.8298,-2.8649,-2.9277,-2.9566,-2.9628,-2.9716,-2.9892,-3.0005,-2.9942,-3.0005,-3.0269,-4.2556,-4.2411,-4.2411,-4.2335,-4.2201,-4.2182,-4.1832,-4.1268,-4.0461,-4.004,-3.9823,-3.8539,-3.8271,-3.895,-3.8825,-3.8758,-3.9299,-3.9315,-3.9315,-3.9299,-3.9249,-3.9265,-3.9299,-3.9063,-3.8179,-3.6329,-3.5644,-3.4635,-3.3111,-3.2009,-3.1569,-3.1496,-3.1496,-3.1496,-3.1496,-3.1496,-3.1496,-3.1496,-3.1496,-3.1496,-3.1496,-3.1496,-3.1496,-3.1555,-3.1615,-3.19,-3.2048,-3.2191,-3.2301,-3.2523,-3.2458,-3.2223,-3.17,-3.1479,-3.1022,-3.0381,-3.019,-3.0303,-3.0517,-3.0873,-3.1153,-3.1413,-3.1645,-3.1364,-3.0968,-3.084,-3.0836,-3.1276,-3.1712,-3.2051,-3.1989,-3.1549,-3.111,-3.0696,-3.0193,-2.9792,-2.9804,-2.9779,-2.9779,-2.9779,-2.9779,-2.9779,-2.9779,-2.9779,-2.9779,-2.9779,-2.9779,-2.9779,-2.9779,-2.9779,-2.9779,-2.9779,-2.9779,-2.9779,-2.9704,-2.9528,-2.9465,-2.939,-2.8988,-2.8561,-2.8109,-2.7682,-2.7519,-2.7457,-2.7394,-2.7821,-2.8637,-2.9377,-2.9465,-2.9566,-2.9704,-2.9792,-2.9829,-2.9854,-3.0018,-4.1415,-4.08,-4.08,-4.0782,-4.08,-4.0836,-4.0653,-4.0241,-3.9015,-3.8842,-3.9442,-3.7605,-3.7577,-3.8778,-3.9183,-3.9183,-3.9282,-3.9315,-3.9315,-3.9315,-3.9315,-3.9315,-3.9315,-3.9315,-3.8097,-3.6421,-3.5644,-3.4305,-3.2859,-3.1858,-3.1511,-3.1496,-3.1496,-3.1496,-3.1496,-3.1496,-3.1496,-3.1496,-3.1496,-3.1496,-3.1496,-3.1496,-3.1496,-3.163,-3.1959,-3.2199,-3.2024,-3.2234,-3.2303,-3.1764,-3.1504,-3.1246,-3.1086,-3.1086,-3.0936,-3.0647,-3.0495,-3.0356,-3.0509,-3.0803,-3.1046,-3.121,-3.157,-3.1583,-3.1159,-3.0823,-3.0768,-3.0683,-3.1185,-3.1502,-3.1452,-3.1075,-3.0733,-3.0457,-3.0093,-2.9842,-2.9779,-2.9779,-2.9779,-2.9779,-2.9779,-2.9779,-2.9779,-2.9779,-2.9779,-2.9779,-2.9779,-2.9779,-2.9779,-2.9779,-2.9779,-2.9779,-2.9741,-2.9729,-2.9515,-2.9352,-2.9151,-2.9076,-2.8561,-2.8059,-2.7708,-2.7392,-2.7291,-2.7216,-2.7077,-2.7268,-2.8222,-2.8863,-2.9176,-2.9453,-2.9628,-2.9729,-2.9792,-2.9817,-2.9842,-4.0437,-4.0492,-4.0492,-4.0492,-4.0492,-4.0492,-4.0293,-3.9828,-3.8971,-3.8617,-3.8528,-3.7104,-3.7045,-3.8225,-3.8861,-3.9299,-3.9315,-3.9282,-3.9299,-3.9282,-3.9282,-3.9282,-3.9315,-3.9189,-3.8206,-3.6556,-3.55,-3.4305,-3.2826,-3.184,-3.1496,-3.1496,-3.1496,-3.1496,-3.1496,-3.1496,-3.1496,-3.1496,-3.1496,-3.1496,-3.1496,-3.1496,-3.1496,-3.154,-3.2168,-3.2436,-3.257,-3.2703,-3.2958,-3.2618,-3.2258,-3.164,-3.1505,-3.1296,-3.0949,-3.0874,-3.0798,-3.0634,-3.0496,-3.0791,-3.0855,-3.0855,-3.1048,-3.1048,-3.0804,-3.0688,-3.0789,-3.0939,-3.1142,-3.1242,-3.1135,-3.0893,-3.0524,-3.022,-3.0045,-2.9931,-2.983,-2.9779,-2.9779,-2.9779,-2.9779,-2.9779,-2.9779,-2.9779,-2.9779,-2.9779,-2.9779,-2.9779,-2.9779,-2.9779,-2.9779,-2.9779,-2.9729,-2.9666,-2.9352,-2.9051,-2.875,-2.8536,-2.7996,-2.757,-2.7381,-2.719,-2.704,-2.6901,-2.6751,-2.7203,-2.7934,-2.8373,-2.8712,-2.9139,-2.9578,-2.9692,-2.978,-2.9805,-2.9855,-3.9423,-3.993,-3.993,-3.9913,-3.9912,-3.993,-3.9626,-3.9179,-3.8614,-3.8269,-3.7877,-3.7094,-3.7043,-3.7678,-3.8676,-3.9172,-3.9352,-3.9143,-3.906,-3.9033,-3.9033,-3.9,-3.8954,-3.8851,-3.8052,-3.6238,-3.5387,-3.4138,-3.2772,-3.1845,-3.1496,-3.1496,-3.1496,-3.1496,-3.1496,-3.1496,-3.1496,-3.1496,-3.1496,-3.1496,-3.1496,-3.1496,-3.1615,-3.1899,-3.2363,-3.2868,-3.3132,-3.3293,-3.3552,-3.2849,-3.2241,-3.1603,-3.1566,-3.1222,-3.1024,-3.0986,-3.0949,-3.0861,-3.071,-3.0737,-3.0685,-3.0647,-3.0647,-3.0827,-3.0611,-3.0495,-3.0509,-3.088,-3.0919,-3.0892,-3.0814,-3.0749,-3.0532,-3.02,-2.9972,-2.9908,-2.9869,-2.983,-2.9792,-2.9779,-2.9779,-2.9779,-2.9779,-2.9779,-2.9779,-2.9779,-2.9779,-2.9779,-2.9767,-2.9754,-2.9741,-2.9729,-2.9691,-2.9541,-2.9088,-2.8762,-2.8424,-2.8009,-2.7469,-2.713,-2.7002,-2.6839,-2.6688,-2.6549,-2.6487,-2.6738,-2.7291,-2.7758,-2.8285,-2.8888,-2.9402,-2.9668,-2.9807,-2.9781,-2.9805,-3.8317,-3.8354,-3.8408,-3.8462,-3.8445,-3.8355,-3.8131,-3.7898,-3.7339,-3.72,-3.7233,-3.7337,-3.761,-3.8263,-3.8413,-3.8879,-3.9368,-3.8768,-3.8458,-3.8304,-3.8295,-3.8394,-3.8471,-3.833,-3.779,-3.6368,-3.5328,-3.4012,-3.2628,-3.1835,-3.157,-3.1496,-3.1496,-3.1496,-3.1496,-3.1496,-3.1496,-3.1496,-3.1496,-3.157,-3.1585,-3.166,-3.1869,-3.2497,-3.2989,-3.3132,-3.2419,-3.299,-3.2793,-3.1932,-3.1579,-3.1259,-3.1259,-3.1123,-3.1024,-3.1024,-3.1024,-3.0949,-3.0911,-3.0911,-3.0949,-3.0936,-3.0936,-3.0874,-3.0685,-3.066,-3.0636,-3.0624,-3.0739,-3.0611,-3.0548,-3.0432,-3.0445,-3.0254,-3.0049,-2.9972,-2.9946,-2.983,-2.9792,-2.9792,-2.9779,-2.9779,-2.9779,-2.9779,-2.9779,-2.9779,-2.9779,-2.9779,-2.9716,-2.9691,-2.9666,-2.9654,-2.9628,-2.939,-2.8863,-2.8436,-2.7959,-2.7507,-2.7052,-2.6801,-2.6625,-2.6487,-2.6487,-2.6487,-2.6487,-2.6537,-2.6688,-2.7369,-2.8035,-2.8775,-2.9189,-2.9315,-2.958,-2.9681,-2.9756,-3.8209,-3.8209,-3.8209,-3.8209,-3.8209,-3.8209,-3.8106,-3.7827,-3.7207,-3.6596,-3.6276,-3.67,-3.7021,-3.7373,-3.7786,-3.802,-3.822,-3.7928,-3.7702,-3.7834,-3.7965,-3.8162,-3.8312,-3.8313,-3.8093,-3.654,-3.536,-3.4058,-3.2571,-3.1824,-3.1585,-3.1496,-3.1496,-3.1496,-3.1496,-3.1496,-3.1511,-3.1525,-3.157,-3.166,-3.2093,-3.2138,-3.2422,-3.311,-3.3754,-3.3655,-3.3211,-3.3575,-3.2905,-3.2051,-3.1663,-3.1371,-3.1061,-3.1024,-3.1024,-3.1024,-3.1024,-3.1024,-3.1024,-3.1024,-3.1024,-3.1024,-3.0986,-3.0949,-3.0849,-3.0874,-3.0836,-3.0798,-3.0748,-3.0672,-3.0584,-3.0584,-3.0521,-3.0305,-3.0152,-3.0126,-3.0011,-2.9946,-2.9895,-2.9934,-2.9856,-2.9779,-2.9779,-2.9779,-2.9779,-2.9779,-2.9779,-2.9767,-2.9704,-2.9528,-2.9453,-2.9277,-2.9214,-2.8762,-2.8235,-2.7808,-2.7442,-2.7052,-2.665,-2.6575,-2.6487,-2.6487,-2.6487,-2.6487,-2.6487,-2.6512,-2.6751,-2.7195,-2.7759,-2.8286,-2.8612,-2.8737,-2.9088,-2.9555,-2.9706,-3.8209,-3.8209,-3.8209,-3.8209,-3.8209,-3.8209,-3.8123,-3.788,-3.7208,-3.6416,-3.5656,-3.6043,-3.6407,-3.667,-3.7026,-3.7474,-3.7533,-3.7326,-3.7118,-3.7261,-3.7577,-3.7882,-3.8077,-3.7953,-3.7452,-3.6299,-3.4969,-3.3536,-3.2527,-3.1809,-3.1555,-3.1496,-3.1496,-3.1496,-3.1496,-3.1511,-3.1585,-3.175,-3.1839,-3.2123,-3.2721,-3.2826,-3.3125,-3.3694,-3.4218,-3.4182,-3.3717,-3.3704,-3.3157,-3.2326,-3.1773,-3.1468,-3.1198,-3.1024,-3.1024,-3.1024,-3.1024,-3.1024,-3.1024,-3.1024,-3.1024,-3.1024,-3.1024,-3.0986,-3.1024,-3.1024,-3.0949,-3.0986,-3.0986,-3.0911,-3.0773,-3.0761,-3.0723,-3.0558,-3.0419,-3.0356,-3.0241,-3.0164,-3.0075,-3.0037,-2.996,-2.9895,-2.9856,-2.9856,-2.983,-2.983,-2.9779,-2.9767,-2.9704,-2.9453,-2.9101,-2.8875,-2.8637,-2.8059,-2.7431,-2.7356,-2.7278,-2.6876,-2.6562,-2.6537,-2.6487,-2.6487,-2.6487,-2.6487,-2.6487,-2.6487,-2.6663,-2.6929,-2.7318,-2.777,-2.8133,-2.8597,-2.8938,-2.9429,-2.9681,-3.8209,-3.8209,-3.8209,-3.8209,-3.8209,-3.8209,-3.7985,-3.7632,-3.7113,-3.6454,-3.5717,-3.5757,-3.6073,-3.6546,-3.6686,-3.6926,-3.7141,-3.6797,-3.6508,-3.659,-3.7036,-3.727,-3.7218,-3.7048,-3.693,-3.5883,-3.4514,-3.3256,-3.2497,-3.1824,-3.1555,-3.1615,-3.1675,-3.1585,-3.1525,-3.1525,-3.1839,-3.2363,-3.2392,-3.2886,-3.3335,-3.3484,-3.3829,-3.4337,-3.4577,-3.454,-3.4132,-3.3585,-3.3073,-3.2434,-3.1529,-3.1222,-3.1235,-3.1061,-3.1024,-3.1024,-3.1024,-3.1024,-3.1024,-3.1024,-3.1024,-3.1024,-3.1024,-3.1024,-3.1024,-3.1024,-3.1024,-3.1024,-3.0986,-3.0986,-3.0986,-3.0986,-3.0911,-3.0798,-3.066,-3.0508,-3.0419,-3.0305,-3.0228,-3.0177,-3.0152,-3.0088,-3.0011,-2.9972,-2.9908,-2.9869,-2.9779,-2.9729,-2.9616,-2.9214,-2.8737,-2.8285,-2.7984,-2.7595,-2.713,-2.7193,-2.709,-2.6688,-2.6487,-2.6487,-2.6487,-2.6487,-2.6487,-2.6487,-2.6487,-2.6487,-2.6487,-2.6537,-2.6939,-2.7354,-2.8129,-2.8644,-2.8987,-2.9214,-2.9416,-3.8209,-3.8209,-3.8209,-3.8209,-3.8209,-3.8209,-3.8106,-3.7845,-3.7226,-3.6597,-3.6071,-3.5778,-3.5684,-3.5938,-3.6062,-3.6208,-3.6247,-3.6154,-3.5816,-3.591,-3.6473,-3.6705,-3.677,-3.6837,-3.6577,-3.5728,-3.4297,-3.3094,-3.2497,-3.1854,-3.1869,-3.2019,-3.1974,-3.1899,-3.1765,-3.1839,-3.2318,-3.2572,-3.2931,-3.3469,-3.4053,-3.4188,-3.4442,-3.5038,-3.5021,-3.4753,-3.4216,-3.3492,-3.2967,-3.2506,-3.1676,-3.1222,-3.1371,-3.1334,-3.1024,-3.1024,-3.1024,-3.1024,-3.1024,-3.1024,-3.1024,-3.1024,-3.1024,-3.1024,-3.1024,-3.1024,-3.1024,-3.1024,-3.1024,-3.1024,-3.0986,-3.0986,-3.0949,-3.0773,-3.066,-3.0533,-3.0457,-3.0419,-3.033,-3.033,-3.0305,-3.0292,-3.0216,-3.0114,-3.0037,-2.9897,-2.9821,-2.9491,-2.9315,-2.8712,-2.8185,-2.7657,-2.7304,-2.704,-2.6851,-2.6927,-2.6914,-2.6625,-2.6487,-2.6487,-2.6487,-2.6487,-2.6487,-2.6487,-2.6487,-2.6487,-2.6487,-2.6499,-2.6562,-2.6974,-2.7698,-2.8052,-2.8131,-2.8523,-2.9026,-3.8209,-3.8209,-3.8209,-3.8209,-3.8209,-3.8209,-3.8123,-3.7845,-3.7207,-3.6661,-3.6259,-3.5822,-3.5616,-3.5616,-3.5616,-3.5616,-3.56,-3.5549,-3.556,-3.5621,-3.6155,-3.6476,-3.6679,-3.6651,-3.6046,-3.53,-3.4349,-3.3285,-3.2328,-3.1836,-3.1943,-3.2258,-3.2317,-3.2049,-3.1914,-3.2093,-3.2363,-3.2751,-3.3335,-3.3903,-3.4517,-3.4844,-3.4882,-3.497,-3.4894,-3.4691,-3.3939,-3.3339,-3.2826,-3.2519,-3.1932,-3.1259,-3.1431,-3.1371,-3.1024,-3.1024,-3.1024,-3.1024,-3.1024,-3.1024,-3.1024,-3.1024,-3.1024,-3.1024,-3.1024,-3.1024,-3.1024,-3.1024,-3.1024,-3.1024,-3.1024,-3.1024,-3.0949,-3.0811,-3.0773,-3.0685,-3.0685,-3.0634,-3.0596,-3.0596,-3.052,-3.0482,-3.0419,-3.0304,-3.0203,-3.0024,-2.9834,-2.9403,-2.8938,-2.8359,-2.7843,-2.7389,-2.6974,-2.6785,-2.6672,-2.6612,-2.6587,-2.6499,-2.6487,-2.6521,-2.6487,-2.6487,-2.6487,-2.6487,-2.6487,-2.6487,-2.6487,-2.6512,-2.6537,-2.6663,-2.7037,-2.7276,-2.7278,-2.7846,-2.8586,-3.8209,-3.8209,-3.8209,-3.8209,-3.8209,-3.8209,-3.7967,-3.7523,-3.7094,-3.6698,-3.6322,-3.5849,-3.5684,-3.5667,-3.565,-3.5684,-3.5684,-3.5667,-3.5577,-3.5706,-3.6087,-3.63,-3.6265,-3.6036,-3.5498,-3.4627,-3.3765,-3.3077,-3.2118,-3.2096,-3.2254,-3.2451,-3.2347,-3.2347,-3.2392,-3.2243,-3.2512,-3.3095,-3.3634,-3.4307,-3.504,-3.5355,-3.5127,-3.4986,-3.471,-3.4442,-3.3768,-3.3024,-3.2613,-3.216,-3.1529,-3.1222,-3.1061,-3.1024,-3.1024,-3.1024,-3.1024,-3.1024,-3.1024,-3.1024,-3.1024,-3.1024,-3.1024,-3.1024,-3.1024,-3.1024,-3.1024,-3.1024,-3.1024,-3.1024,-3.1024,-3.1024,-3.0986,-3.0949,-3.0949,-3.0949,-3.0949,-3.0949,-3.0949,-3.0874,-3.0761,-3.0672,-3.052,-3.0443,-3.0122,-2.9878,-2.9561,-2.9129,-2.8651,-2.8077,-2.7609,-2.7331,-2.6965,-2.6656,-2.6568,-2.6624,-2.6555,-2.6589,-2.6555,-2.6568,-2.6521,-2.6487,-2.6487,-2.6487,-2.6487,-2.6487,-2.6487,-2.6487,-2.6499,-2.665,-2.6788,-2.6851,-2.6989,-2.7507,-2.816,-3.8209,-3.8209,-3.8209,-3.8209,-3.8209,-3.8209,-3.8123,-3.7915,-3.7264,-3.6801,-3.6678,-3.592,-3.5859,-3.6383,-3.587,-3.5994,-3.6028,-3.5926,-3.5667,-3.5729,-3.5836,-3.5958,-3.5933,-3.5751,-3.5045,-3.4397,-3.3708,-3.3047,-3.2353,-3.2317,-3.2925,-3.3426,-3.2855,-3.3066,-3.2976,-3.2616,-3.2931,-3.338,-3.3904,-3.4592,-3.522,-3.5489,-3.5246,-3.5052,-3.4938,-3.4658,-3.4288,-3.3283,-3.3003,-3.3234,-3.1823,-3.1235,-3.1773,-3.1334,-3.1024,-3.1024,-3.1024,-3.1024,-3.1024,-3.1024,-3.1024,-3.1024,-3.1024,-3.1024,-3.1024,-3.1024,-3.1024,-3.1024,-3.1024,-3.1024,-3.1024,-3.1024,-3.1024,-3.1024,-3.1024,-3.1024,-3.1024,-3.1024,-3.1024,-3.0986,-3.0874,-3.0836,-3.0722,-3.0245,-2.9897,-2.965,-2.9277,-2.8795,-2.8354,-2.7793,-2.7446,-2.7192,-2.704,-2.6777,-2.6807,-2.6875,-2.6773,-2.6692,-2.6658,-2.6636,-2.6555,-2.6521,-2.6487,-2.6487,-2.6487,-2.6487,-2.6487,-2.6487,-2.6487,-2.6487,-2.66,-2.6637,-2.6776,-2.7253,-2.7758,-3.8256,-3.8209,-3.8209,-3.8209,-3.8209,-3.8209,-3.8209,-3.8037,-3.7264,-3.69,-3.6781,-3.5985,-3.5853,-3.6129,-3.5802,-3.5802,-3.6146,-3.5842,-3.5616,-3.5616,-3.5616,-3.571,-3.5726,-3.5671,-3.5183,-3.4535,-3.3961,-3.3474,-3.2702,-3.2547,-3.3025,-3.3803,-3.3456,-3.3578,-3.3593,-3.3171,-3.308,-3.3589,-3.4128,-3.4681,-3.5145,-3.5457,-3.5344,-3.5133,-3.51,-3.4953,-3.4587,-3.3367,-3.3178,-3.3269,-3.1616,-3.1235,-3.1603,-3.1198,-3.1024,-3.1024,-3.1024,-3.1024,-3.1024,-3.1024,-3.1024,-3.1024,-3.1024,-3.1024,-3.1024,-3.1024,-3.1024,-3.1024,-3.1024,-3.1024,-3.1024,-3.1024,-3.1024,-3.1024,-3.1024,-3.1024,-3.1024,-3.1024,-3.1024,-3.1024,-3.0986,-3.0986,-3.0714,-3.0134,-2.9681,-2.9418,-2.9012,-2.8421,-2.801,-2.7545,-2.7276,-2.7088,-2.7024,-2.6956,-2.7024,-2.7058,-2.6943,-2.6875,-2.6841,-2.6773,-2.6624,-2.6589,-2.6589,-2.6521,-2.6487,-2.6487,-2.6487,-2.6487,-2.6487,-2.6452,-2.6349,-2.6386,-2.6483,-2.6763,-2.7306,-3.8352,-3.8209,-3.8209,-3.8209,-3.8209,-3.8209,-3.8209,-3.8089,-3.7264,-3.69,-3.6741,-3.6032,-3.5768,-3.6,-3.5752,-3.5735,-3.5926,-3.5769,-3.5616,-3.5616,-3.5616,-3.5627,-3.5698,-3.5702,-3.5274,-3.4816,-3.4272,-3.3634,-3.3063,-3.2764,-3.2883,-3.3802,-3.2806,-3.2928,-3.3954,-3.3291,-3.329,-3.4068,-3.4173,-3.4397,-3.519,-3.5392,-3.5166,-3.461,-3.4394,-3.4109,-3.3422,-3.272,-3.2087,-3.1882,-3.1542,-3.1061,-3.1061,-3.1061,-3.1024,-3.1024,-3.1024,-3.1024,-3.1024,-3.1024,-3.1024,-3.1024,-3.1024,-3.1024,-3.1024,-3.1024,-3.1024,-3.1024,-3.1024,-3.1024,-3.1024,-3.1024,-3.1024,-3.1024,-3.1024,-3.1024,-3.1024,-3.1024,-3.1024,-3.1024,-3.1024,-3.0934,-3.0531,-2.9952,-2.9278,-2.9099,-2.8673,-2.8025,-2.7775,-2.739,-2.7224,-2.7092,-2.7126,-2.7146,-2.7146,-2.718,-2.7079,-2.7045,-2.7011,-2.6909,-2.6794,-2.6726,-2.6658,-2.6624,-2.6555,-2.6533,-2.6499,-2.6349,-2.6198,-2.6094,-2.606,-2.6164,-2.6223,-2.6169,-2.7009,-3.8223,-3.8209,-3.8209,-3.8209,-3.8209,-3.8209,-3.8209,-3.8123,-3.7282,-3.6917,-3.6781,-3.6402,-3.6222,-3.6254,-3.5785,-3.5785,-3.6197,-3.5769,-3.5633,-3.5616,-3.5616,-3.5616,-3.5577,-3.5585,-3.5292,-3.4805,-3.4241,-3.3541,-3.2812,-3.2518,-3.2627,-3.3279,-3.2693,-3.3153,-3.4,-3.3321,-3.3665,-3.4429,-3.4518,-3.4607,-3.5325,-3.5489,-3.5311,-3.4971,-3.4758,-3.4361,-3.3665,-3.2826,-3.2326,-3.1978,-3.1371,-3.1099,-3.1024,-3.1024,-3.1024,-3.1024,-3.1024,-3.1024,-3.1024,-3.1024,-3.1024,-3.1024,-3.1024,-3.1024,-3.1024,-3.1024,-3.1024,-3.1024,-3.1024,-3.1024,-3.1024,-3.1024,-3.1024,-3.1024,-3.1024,-3.1024,-3.1024,-3.1024,-3.1024,-3.1024,-3.1024,-3.0725,-3.0285,-2.9741,-2.9064,-2.8504,-2.8051,-2.7633,-2.7646,-2.7442,-2.7421,-2.7315,-2.7382,-2.7403,-2.7335,-2.7302,-2.7248,-2.7235,-2.7201,-2.71,-2.693,-2.6829,-2.6726,-2.6692,-2.6645,-2.6555,-2.6314,-2.5886,-2.5734,-2.5734,-2.5511,-2.5511,-2.5063,-2.4874,-2.6226,-3.829,-3.8209,-3.8209,-3.8209,-3.8209,-3.8209,-3.8209,-3.8126,-3.7787,-3.7355,-3.6818,-3.6322,-3.6122,-3.6288,-3.5791,-3.5752,-3.6197,-3.5802,-3.565,-3.5616,-3.5616,-3.5616,-3.5554,-3.5424,-3.5102,-3.4673,-3.3944,-3.3203,-3.252,-3.2459,-3.2665,-3.3058,-3.3005,-3.3043,-3.3653,-3.3743,-3.3876,-3.4474,-3.4698,-3.5102,-3.5492,-3.5459,-3.5489,-3.5279,-3.5085,-3.4791,-3.4341,-3.3471,-3.2791,-3.2232,-3.1616,-3.1099,-3.1024,-3.1024,-3.1024,-3.1024,-3.1024,-3.1024,-3.1024,-3.1024,-3.1024,-3.1024,-3.1024,-3.1024,-3.1024,-3.1024,-3.1024,-3.1024,-3.1024,-3.1024,-3.1024,-3.1024,-3.1024,-3.1024,-3.1024,-3.1024,-3.1024,-3.1024,-3.1024,-3.1024,-3.0908,-3.0662,-3.0285,-2.99,-2.921,-2.8573,-2.7994,-2.7706,-2.762,-2.7503,-2.7503,-2.7503,-2.7503,-2.7503,-2.7436,-2.7436,-2.7436,-2.7403,-2.7356,-2.7201,-2.7045,-2.6897,-2.6794,-2.676,-2.6645,-2.6555,-2.6233,-2.5851,-2.5558,-2.5523,-2.5146,-2.4743,-2.4264,-2.3911,-2.4987,-3.8354,-3.8209,-3.8209,-3.8209,-3.8209,-3.8209,-3.8281,-3.8377,-3.8435,-3.8037,-3.7259,-3.628,-3.5768,-3.5616,-3.5616,-3.5616,-3.5616,-3.565,-3.5616,-3.5616,-3.5616,-3.5616,-3.5464,-3.5224,-3.4927,-3.4415,-3.3675,-3.3055,-3.2425,-3.2444,-3.2628,-3.3016,-3.292,-3.2732,-3.3484,-3.3789,-3.3803,-3.4374,-3.481,-3.5257,-3.5419,-3.5432,-3.5385,-3.5415,-3.5317,-3.5285,-3.481,-3.4187,-3.3297,-3.2698,-3.2005,-3.1505,-3.1161,-3.1123,-3.1024,-3.1024,-3.1024,-3.1024,-3.1024,-3.1024,-3.1024,-3.1024,-3.1024,-3.1024,-3.1024,-3.1024,-3.1024,-3.1024,-3.1024,-3.1024,-3.1024,-3.1024,-3.1024,-3.1024,-3.1024,-3.1024,-3.1024,-3.1024,-3.1024,-3.1024,-3.0843,-3.0623,-3.0348,-2.9939,-2.9428,-2.8778,-2.8328,-2.8033,-2.7811,-2.7594,-2.7503,-2.7503,-2.7503,-2.7503,-2.7503,-2.7503,-2.7503,-2.7503,-2.7436,-2.7268,-2.718,-2.7134,-2.6998,-2.6794,-2.6692,-2.6658,-2.6452,-2.6094,-2.5804,-2.5406,-2.485,-2.4373,-2.3852,-2.3645,-2.3931,-3.8224,-3.8209,-3.8209,-3.8209,-3.8209,-3.8227,-3.8571,-3.8993,-3.8422,-3.8292,-3.8168,-3.7156,-3.6265,-3.5616,-3.5616,-3.5616,-3.5616,-3.5616,-3.5616,-3.5616,-3.5616,-3.5616,-3.5532,-3.5287,-3.4857,-3.4194,-3.3469,-3.2949,-3.248,-3.2413,-3.2388,-3.2489,-3.2446,-3.2532,-3.2982,-3.3228,-3.3516,-3.4046,-3.4575,-3.5013,-3.4965,-3.5008,-3.5087,-3.4847,-3.4401,-3.4336,-3.4085,-3.365,-3.3332,-3.2911,-3.234,-3.1846,-3.1542,-3.1235,-3.1061,-3.1024,-3.1024,-3.1024,-3.1024,-3.1024,-3.1024,-3.1024,-3.1024,-3.1024,-3.1024,-3.1024,-3.1024,-3.1024,-3.1024,-3.1024,-3.1024,-3.1024,-3.1024,-3.1024,-3.1024,-3.1024,-3.1024,-3.1024,-3.1024,-3.1024,-3.0947,-3.0786,-3.0635,-3.0223,-2.9751,-2.9144,-2.8629,-2.832,-2.7968,-2.7725,-2.7516,-2.7503,-2.7503,-2.7503,-2.7503,-2.7503,-2.7503,-2.7503,-2.7469,-2.7369,-2.7335,-2.7423,-2.7255,-2.6964,-2.6875,-2.6854,-2.6602,-2.6349,-2.5838,-2.537,-2.4636,-2.4047,-2.3522,-2.3174,-2.3335]},{"header":{"parameterUnit":"m.s-1","parameterCategory":1,"la1":31.0,"la2":29.5877,"lo1":-88.7671,"lo2":-86.6584,"dy":0.0162,"dx":0.0185,"nx":115,"ny":88,"refTime":"2025-08-19T00:00:00:Z","depth":0,"parameterNumber":3,"parameterNumberName":"V-component_of_WINDS"},"data":[0.0,0.0,0.0,0.0,0.0,0.0,0.0,0.0,0.0,0.0,0.0,0.0,0.0,0.0,0.0,0.0,0.0,0.0,0.0,0.0,0.0,0.0,0.0,0.0,0.0,0.0,0.0,0.0,0.0,0.0,0.0,0.0,0.0,0.0,0.0,0.0,0.0,0.0,0.0,0.0,0.0,0.0,0.0,0.0,0.0,0.0,0.0,0.0,0.0,0.0,0.0,0.0,0.0,0.0,0.0,0.0,0.0,0.0,0.0,0.0,0.0,0.0,0.0,0.0,0.0,0.0,0.0,0.0,0.0,0.0,0.0,0.0,0.0,0.0,0.0,0.0,0.0,0.0,0.0,0.0,0.0,0.0,0.0,0.0,0.0,0.0,0.0,0.0,0.0,0.0,0.0,0.0,0.0,0.0,0.0,0.0,0.0,0.0,0.0,0.0,0.0,0.0,0.0,0.0,0.0,0.0,0.0,0.0,0.0,0.0,0.0,0.0,0.0,0.0,0.0,0.0,0.0,0.0,0.0,0.0,0.0,0.0,0.0,0.0,0.0,0.0,0.0,0.0,0.0,0.0,0.0,0.0,0.0,0.0,0.0,0.0,0.0,0.0,0.0,0.0,0.0,0.0,0.0,0.0,0.0,0.0,0.0,0.0,0.0,0.0,0.0,0.0,0.0,0.0,0.0,0.0,0.0,0.0,0.0,0.0,0.0,0.0,0.0,0.0,0.0,0.0,0.0,0.0,0.0,0.0,0.0,0.0,0.0,0.0,0.0,0.0,0.0,0.0,0.0,0.0,0.0,0.0,0.0,0.0,0.0,0.0,0.0,0.0,0.0,0.0,0.0,0.0,0.0,0.0,0.0,0.0,0.0,0.0,0.0,0.0,0.0,0.0,0.0,0.0,0.0,0.0,0.0,0.0,0.0,0.0,0.0,0.0,0.0,0.0,0.0,0.0,0.0,0.0,0.0,0.0,0.0,0.0,0.0,0.0,0.0,0.0,0.0,0.0,0.0,0.0,0.0,0.0,0.0,0.0,0.0,0.0,0.0,0.0,0.0,0.0,0.0,0.0,0.0,0.0,0.0,0.0,0.0,0.0,0.0,0.0,0.0,0.0,0.0,0.0,0.0,0.0,0.0,0.0,0.0,0.0,0.0,0.0,0.0,0.0,0.0,0.0,0.0,0.0,0.0,0.0,0.0,0.0,0.0,0.0,0.0,0.0,0.0,0.0,0.0,0.0,0.0,0.0,0.0,0.0,0.0,0.0,0.0,0.0,0.0,0.0,0.0,0.0,0.0,0.0,0.0,0.0,0.0,0.0,0.0,0.0,0.0,0.0,0.0,0.0,0.0,0.0,0.0,0.0,0.0,0.0,0.0,0.0,0.0,0.0,0.0,0.0,0.0,0.0,0.0,0.0,0.0,0.0,0.0,0.0,0.0,0.0,0.0,0.0,0.0,0.0,0.0,0.0,0.0,0.0,0.0,0.0,0.0,0.0,0.0,0.0,0.0,0.0,0.0,0.0,0.0,0.0,0.0,0.0,0.0,0.0,0.0,0.0,0.0,0.0,0.0,0.0,0.0,0.0,0.0,0.0,0.0,0.0,0.0,0.0,0.0,0.0,0.0,0.0,0.0,0.0,0.0,0.0,0.0,0.0,0.0,0.0,0.0,0.0,0.0,0.0,0.0,0.0,0.0,0.0,0.0,0.0,0.0,0.0,0.0,0.0,0.0,0.0,0.0,0.0,0.0,0.0,0.0,0.0,0.0,0.0,0.0,0.0,0.0,0.0,0.0,0.0,0.0,0.0,0.0,0.0,0.0,0.0,0.0,0.0,0.0,0.0,0.0,0.0,0.0,0.0,0.0,0.0,0.0,0.0,0.0,0.0,0.0,0.0,0.0,0.0,0.0,0.0,0.0,0.0,0.0,0.0,0.0,0.0,0.0,0.0,0.0,0.0,0.0,0.0,0.0,0.0,0.0,0.0,0.0,0.0,0.0,0.0,0.0,0.0,0.0,0.0,0.0,0.0,0.0,0.0,0.0,0.0,0.0,0.0,0.0,0.0,0.0,0.0,0.0,0.0,0.0,0.0,0.0,0.0,0.0,0.0,0.0,0.0,0.0,0.0,0.0,0.0,0.0,0.0,0.0,0.0,0.0,0.0,0.0,0.0,0.0,0.0,0.0,0.0,0.0,0.0,0.0,0.0,0.0,0.0,0.0,0.0,0.0,0.0,0.0,0.0,0.0,0.0,0.0,0.0,0.0,0.0,0.0,0.0,0.0,0.0,0.0,0.0,0.0,0.0,0.0,0.0,0.0,0.0,0.0,0.0,0.0,0.0,0.0,0.0,0.0,0.0,0.0,0.0,0.0,0.0,0.0,0.0,0.0,0.0,0.0,0.0,0.0,0.0,0.0,0.0,0.0,0.0,0.0,0.0,0.0,0.0,0.0,0.0,0.0,0.0,0.0,0.0,0.0,0.0,0.0,0.0,0.0,0.0,0.0,0.0,0.0,0.0,0.0,0.0,0.0,0.0,0.0,0.0,0.0,0.0,0.0,0.0,0.0,0.0,0.0,0.0,0.0,0.0,0.0,0.0,0.0,0.0,0.0,0.0,0.0,0.0,0.0,0.0,0.0,0.0,0.0,0.0,0.0,0.0,0.0,0.0,0.0,0.0,0.0,0.0,0.0,0.0,0.0,0.0,0.0,0.0,0.0,0.0,0.0,0.0,0.0,0.0,0.0,0.0,0.0,0.0,0.0,0.0,0.0,0.0,0.0,0.0,0.0,0.0,0.0,0.0,0.0,0.0,0.0,0.0,0.0,0.0,0.0,0.0,0.0,0.0,0.0,0.0,0.0,0.0,0.0,0.0,0.0,0.0,0.0,0.0,0.0,0.0,0.0,0.0,0.0,0.0,0.0,0.0,0.0,0.0,0.0,0.0,0.0,0.0,0.0,0.0,0.0,0.0,0.0,0.0,0.0,0.0,0.0,0.0,0.0,0.0,0.0,0.0,0.0,0.0,0.0,0.0,0.0,0.0,0.0,0.0,0.0,0.0,0.0,0.0,0.0,0.0,0.0,0.0,0.0,0.0,0.0,0.0,0.0,0.0,0.0,0.0,0.0,0.0,0.0,0.0,0.0,0.0,0.0,0.0,0.0,0.0,0.0,0.0,0.0,0.0,0.0,0.0,0.0,0.0,0.0,0.0,0.0,0.0,0.0,0.0,0.0,0.0,0.0,0.0,0.0,0.0,0.0,0.0,0.0,0.0,0.0,0.0,0.0,0.0,0.0,0.0,0.0,0.0,0.0,0.0,0.0,0.0,0.0,0.0,0.0,0.0,0.0,0.0,0.0,0.0,0.0,0.0,0.0,0.0,0.0,0.0,0.0,0.0,0.0,0.0,0.0,0.0,0.0,0.0,0.0,0.0,0.0,0.0,0.0,0.0,0.0,0.0,0.0,0.0,0.0,0.0,0.0,0.0,0.0,0.0,0.0,0.0,0.0,0.0,0.0,0.0,0.0,0.0,0.0,0.0,0.0,0.0,0.0,0.0,0.0,0.0,0.0,0.0,0.0,0.0,0.0,0.0,0.0,0.0,0.0,0.0,0.0,0.0,0.0,0.0,0.0,0.0,0.0,0.0,0.0,0.0,0.0,0.0,0.0,0.0,0.0,0.0,0.0,0.0,0.0,0.0,0.0,0.0,0.0,0.0,0.0,0.0,0.0,0.0,0.0,0.0,0.0,0.0,0.0,0.0,0.0,0.0,0.0,0.0,0.0,0.0,0.0,0.0,0.0,0.0,0.0,0.0,0.0,0.0,0.0,0.0,0.0,0.0,0.0,0.0,0.0,0.0,0.0,0.0,0.0,0.0,0.0,0.0,0.0,0.0,0.0,0.0,0.0,0.0,0.0,0.0,0.0,0.0,0.0,0.0,0.0,0.0,0.0,0.0,0.0,0.0,0.0,0.0,0.0,0.0,0.0,0.0,0.0,0.0,0.0,0.0,0.0,0.0,0.0,0.0,0.0,0.0,0.0,0.0,0.0,0.0,0.0,0.0,0.0,0.0,0.0,0.0,0.0,0.0,0.0,0.0,0.0,0.0,0.0,0.0,0.0,0.0,0.0,0.0,0.0,0.0,0.0,0.0,0.0,0.0,0.0,0.0,0.0,0.0,0.0,0.0,0.0,0.0,0.0,0.0,0.0,0.0,0.0,0.0,0.0,0.0,0.0,0.0,0.0,0.0,0.0,0.0,0.0,0.0,0.0,0.0,0.0,0.0,-1.3091,0.0,0.0,0.0,0.0,0.0,0.0,0.0,0.0,0.0,0.0,0.0,0.0,0.0,0.0,0.0,0.0,0.0,0.0,0.0,0.0,0.0,0.0,0.0,0.0,0.0,0.0,0.0,0.0,0.0,0.0,0.0,0.0,0.0,0.0,0.0,0.0,0.0,0.0,0.0,0.0,0.0,0.0,0.0,0.0,0.0,0.0,0.0,0.0,0.0,0.0,0.0,0.0,0.0,0.0,0.0,0.0,0.0,0.0,0.0,0.0,0.0,0.0,0.0,0.0,0.0,0.0,0.0,0.0,0.0,0.0,0.0,0.0,0.0,0.0,0.0,0.0,0.0,0.0,0.0,0.0,0.0,0.0,0.0,0.0,0.0,0.0,0.0,0.0,0.0,0.0,0.0,0.0,0.0,0.0,0.0,0.0,0.0,0.0,0.0,0.0,0.0,0.0,0.0,0.0,0.0,0.0,0.0,0.0,0.0,0.0,-1.309,-1.3421,-1.3858,-1.3749,-1.3019,0.0,0.0,0.0,0.0,0.0,0.0,0.0,0.0,0.0,0.0,0.0,0.0,0.0,0.0,0.0,0.0,0.0,0.0,0.0,0.0,0.0,0.0,0.0,0.0,0.0,0.0,0.0,0.0,0.0,0.0,0.0,0.0,0.0,0.0,0.0,0.0,0.0,0.0,0.0,0.0,0.0,0.0,0.0,0.0,0.0,0.0,0.0,0.0,0.0,0.0,0.0,0.0,0.0,0.0,0.0,0.0,0.0,0.0,0.0,0.0,0.0,0.0,0.0,0.0,0.0,0.0,0.0,0.0,0.0,0.0,0.0,0.0,0.0,0.0,0.0,0.0,0.0,0.0,0.0,0.0,0.0,0.0,0.0,0.0,0.0,0.0,0.0,0.0,0.0,0.0,0.0,0.0,0.0,0.0,0.0,0.0,0.0,0.0,0.0,0.0,0.0,0.0,0.0,0.0,0.0,0.0,0.0,0.0,0.0,0.0,0.0,0.0,-1.4104,-1.3922,-1.3111,0.0,0.0,0.0,0.0,0.0,0.0,0.0,0.0,0.0,0.0,0.0,0.0,0.0,0.0,0.0,0.0,0.0,0.0,0.0,0.0,0.0,0.0,0.0,0.0,0.0,0.0,0.0,0.0,0.0,0.0,0.0,0.0,0.0,0.0,0.0,0.0,0.0,0.0,0.0,0.0,0.0,0.0,0.0,0.0,0.0,0.0,0.0,0.0,0.0,0.0,0.0,0.0,0.0,0.0,0.0,0.0,0.0,0.0,0.0,0.0,0.0,0.0,0.0,0.0,0.0,0.0,0.0,0.0,0.0,0.0,0.0,0.0,0.0,0.0,0.0,0.0,0.0,0.0,0.0,0.0,0.0,0.0,0.0,0.0,0.0,0.0,0.0,0.0,0.0,0.0,0.0,0.0,0.0,0.0,0.0,0.0,0.0,0.0,0.0,0.0,0.0,0.0,0.0,0.0,0.0,0.0,0.0,0.0,0.0,0.0,-1.3704,-1.4128,-1.4639,0.0,-1.4193,0.0,0.0,0.0,0.0,0.0,0.0,0.0,0.0,0.0,0.0,0.0,0.0,0.0,0.0,0.0,0.0,0.0,0.0,0.0,0.0,0.0,0.0,0.0,0.0,0.0,0.0,0.0,0.0,0.0,0.0,0.0,0.0,0.0,0.0,0.0,0.0,0.0,0.0,0.0,0.0,0.0,0.0,0.0,0.0,0.0,0.0,0.0,0.0,0.0,0.0,0.0,0.0,0.0,0.0,0.0,0.0,0.0,0.0,0.0,0.0,0.0,0.0,0.0,0.0,0.0,0.0,0.0,0.0,0.0,0.0,0.0,0.0,0.0,0.0,0.0,0.0,0.0,0.0,0.0,0.0,0.0,0.0,0.0,0.0,0.0,0.0,0.0,0.0,0.0,0.0,0.0,0.0,0.0,0.0,0.0,0.0,0.0,0.0,0.0,0.0,0.0,0.0,0.0,0.0,0.0,0.0,0.0,0.0,0.0,0.0,-1.3736,-1.3892,-1.4462,-1.4618,0.0,0.0,0.0,0.0,0.0,0.0,0.0,0.0,0.0,0.0,0.0,0.0,0.0,0.0,0.0,0.0,0.0,0.0,0.0,0.0,0.0,0.0,0.0,0.0,0.0,0.0,0.0,0.0,0.0,0.0,0.0,0.0,0.0,0.0,0.0,0.0,0.0,0.0,0.0,0.0,0.0,0.0,0.0,0.0,0.0,0.0,0.0,0.0,0.0,0.0,0.0,0.0,0.0,0.0,0.0,0.0,0.0,0.0,0.0,0.0,0.0,0.0,0.0,0.0,0.0,0.0,0.0,0.0,0.0,0.0,0.0,0.0,0.0,0.0,0.0,0.0,0.0,0.0,0.0,0.0,0.0,0.0,0.0,0.0,0.0,0.0,0.0,0.0,0.0,0.0,0.0,0.0,0.0,0.0,0.0,0.0,0.0,0.0,0.0,0.0,0.0,0.0,0.0,0.0,0.0,0.0,0.0,0.0,0.0,0.0,-1.3636,-1.3999,-1.415,-1.4591,-1.4639,-1.4209,0.0,0.0,0.0,0.0,0.0,0.0,0.0,0.0,0.0,0.0,0.0,0.0,0.0,0.0,0.0,0.0,0.0,0.0,0.0,0.0,0.0,0.0,0.0,0.0,0.0,0.0,0.0,0.0,0.0,0.0,0.0,0.0,0.0,0.0,0.0,0.0,0.0,0.0,0.0,0.0,0.0,0.0,0.0,0.0,0.0,0.0,0.0,0.0,0.0,0.0,0.0,0.0,0.0,0.0,0.0,0.0,0.0,0.0,0.0,0.0,0.0,0.0,0.0,0.0,0.0,0.0,0.0,0.0,0.0,0.0,0.0,0.0,0.0,0.0,0.0,0.0,0.0,0.0,0.0,0.0,0.0,0.0,0.0,0.0,0.0,0.0,0.0,0.0,0.0,0.0,0.0,0.0,0.0,0.0,0.0,0.0,0.0,0.0,0.0,0.0,0.0,0.0,0.0,0.0,0.0,0.0,0.0,0.0,0.0,-1.4564,-1.4754,-1.5194,-1.5379,-1.4988,0.0,0.0,0.0,0.0,0.0,0.0,0.0,0.0,0.0,0.0,0.0,0.0,0.0,0.0,0.0,0.0,0.0,0.0,0.0,0.0,0.0,0.0,0.0,0.0,0.0,0.0,0.0,0.0,0.0,0.0,0.0,0.0,0.0,0.0,0.0,0.0,0.0,0.0,0.0,0.0,0.0,0.0,0.0,0.0,0.0,0.0,0.0,0.0,0.0,0.0,0.0,0.0,0.0,0.0,0.0,0.0,0.0,0.0,0.0,0.0,0.0,0.0,0.0,0.0,0.0,0.0,0.0,0.0,0.0,0.0,0.0,0.0,0.0,0.0,0.0,0.0,0.0,0.0,0.0,0.0,0.0,0.0,0.0,0.0,0.0,0.0,0.0,0.0,0.0,0.0,0.0,0.0,0.0,0.0,0.0,0.0,0.0,0.0,0.0,0.0,0.0,0.0,0.0,0.0,0.0,0.0,0.0,0.0,0.0,-1.3889,-1.417,-1.4874,-1.6003,-1.5816,-1.5398,0.0,0.0,0.0,0.0,0.0,0.0,0.0,0.0,0.0,0.0,0.0,0.0,0.0,0.0,0.0,0.0,0.0,0.0,0.0,0.0,0.0,0.0,0.0,0.0,0.0,0.0,0.0,0.0,0.0,0.0,0.0,0.0,0.0,0.0,0.0,0.0,0.0,0.0,0.0,0.0,0.0,0.0,0.0,0.0,0.0,0.0,0.0,0.0,0.0,0.0,0.0,0.0,0.0,0.0,0.0,0.0,0.0,0.0,0.0,0.0,0.0,0.0,0.0,0.0,0.0,0.0,0.0,0.0,0.0,0.0,0.0,0.0,0.0,0.0,0.0,0.0,0.0,0.0,0.0,0.0,0.0,0.0,0.0,0.0,0.0,0.0,0.0,0.0,0.0,0.0,0.0,0.0,0.0,0.0,0.0,0.0,0.0,0.0,0.0,0.0,0.0,0.0,0.0,0.0,0.0,0.0,0.0,0.0,0.0,-1.4363,0.0,-1.5655,-1.6393,-1.609,-1.5499,0.0,0.0,0.0,0.0,0.0,0.0,0.0,0.0,0.0,0.0,0.0,0.0,0.0,0.0,0.0,0.0,0.0,0.0,0.0,0.0,0.0,0.0,0.0,0.0,0.0,0.0,0.0,0.0,0.0,0.0,0.0,0.0,0.0,0.0,0.0,0.0,0.0,0.0,0.0,0.0,0.0,0.0,0.0,0.0,0.0,0.0,0.0,0.0,0.0,0.0,0.0,0.0,0.0,0.0,0.0,0.0,0.0,0.0,0.0,0.0,0.0,0.0,0.0,0.0,0.0,0.0,0.0,0.0,0.0,0.0,0.0,0.0,0.0,0.0,0.0,0.0,0.0,0.0,0.0,0.0,0.0,0.0,0.0,0.0,0.0,0.0,0.0,0.0,0.0,0.0,0.0,0.0,0.0,0.0,0.0,0.0,0.0,0.0,0.0,0.0,0.0,0.0,0.0,0.0,0.0,0.0,0.0,0.0,-1.4511,-1.626,-1.712,-1.713,-1.6454,-1.6181,-1.5278,0.0,0.0,0.0,0.0,0.0,0.0,0.0,0.0,0.0,0.0,0.0,0.0,0.0,0.0,0.0,0.0,0.0,0.0,0.0,0.0,0.0,0.0,0.0,0.0,0.0,0.0,0.0,0.0,0.0,0.0,0.0,0.0,0.0,0.0,0.0,0.0,0.0,0.0,0.0,0.0,0.0,0.0,0.0,0.0,0.0,0.0,0.0,0.0,0.0,0.0,0.0,0.0,0.0,0.0,0.0,0.0,0.0,0.0,0.0,0.0,0.0,0.0,0.0,0.0,0.0,0.0,0.0,0.0,0.0,0.0,0.0,0.0,0.0,0.0,0.0,0.0,0.0,0.0,0.0,0.0,0.0,0.0,0.0,0.0,0.0,0.0,0.0,0.0,0.0,0.0,0.0,0.0,0.0,0.0,0.0,0.0,0.0,0.0,0.0,0.0,0.0,0.0,0.0,0.0,0.0,0.0,0.0,0.0,0.0,-1.5448,-1.6011,-1.6643,-1.7233,-1.6732,-1.6311,0.0,0.0,0.0,0.0,0.0,0.0,0.0,0.0,0.0,0.0,0.0,0.0,0.0,0.0,0.0,0.0,0.0,0.0,0.0,0.0,0.0,0.0,0.0,0.0,0.0,0.0,0.0,0.0,0.0,0.0,0.0,0.0,0.0,0.0,0.0,0.0,0.0,0.0,0.0,0.0,0.0,0.0,0.0,0.0,0.0,0.0,0.0,0.0,0.0,0.0,0.0,0.0,0.0,0.0,0.0,0.0,0.0,0.0,0.0,0.0,0.0,0.0,0.0,0.0,0.0,0.0,0.0,0.0,0.0,0.0,0.0,0.0,0.0,0.0,0.0,0.0,0.0,0.0,0.0,0.0,0.0,0.0,0.0,0.0,0.0,0.0,0.0,0.0,0.0,0.0,0.0,0.0,0.0,0.0,0.0,0.0,0.0,0.0,0.0,0.0,0.0,0.0,0.0,0.0,0.0,0.0,0.0,0.0,0.0,-1.6564,-1.7116,-1.7754,-1.8363,-1.7952,-1.7413,-1.6657,0.0,0.0,0.0,0.0,0.0,0.0,0.0,0.0,0.0,0.0,0.0,0.0,0.0,0.0,0.0,0.0,0.0,0.0,0.0,0.0,0.0,0.0,0.0,0.0,0.0,0.0,0.0,0.0,0.0,0.0,0.0,0.0,0.0,0.0,0.0,0.0,0.0,0.0,0.0,0.0,0.0,0.0,0.0,0.0,0.0,0.0,0.0,0.0,0.0,0.0,0.0,0.0,0.0,0.0,0.0,0.0,0.0,0.0,0.0,0.0,0.0,0.0,0.0,0.0,0.0,0.0,0.0,0.0,0.0,0.0,0.0,0.0,0.0,0.0,0.0,0.0,0.0,0.0,0.0,0.0,0.0,0.0,0.0,0.0,0.0,0.0,0.0,0.0,0.0,0.0,0.0,0.0,0.0,0.0,0.0,0.0,0.0,0.0,0.0,0.0,0.0,0.0,0.0,0.0,0.0,0.0,0.0,0.0,-1.9157,-2.0102,-2.0288,-1.9754,-1.9727,-1.8557,0.0,0.0,0.0,0.0,0.0,0.0,0.0,0.0,0.0,0.0,0.0,0.0,0.0,0.0,0.0,0.0,0.0,0.0,0.0,0.0,0.0,0.0,0.0,0.0,0.0,0.0,0.0,0.0,0.0,0.0,0.0,0.0,0.0,0.0,0.0,0.0,0.0,0.0,0.0,0.0,0.0,0.0,0.0,0.0,0.0,0.0,0.0,0.0,0.0,0.0,0.0,0.0,0.0,0.0,0.0,0.0,0.0,0.0,0.0,0.0,0.0,0.0,0.0,0.0,0.0,0.0,0.0,0.0,0.0,0.0,0.0,0.0,0.0,0.0,0.0,0.0,0.0,0.0,0.0,0.0,0.0,0.0,0.0,0.0,0.0,0.0,0.0,0.0,0.0,0.0,0.0,0.0,0.0,0.0,0.0,0.0,0.0,0.0,0.0,0.0,0.0,0.0,0.0,0.0,0.0,0.0,0.0,0.0,0.0,-2.0007,-2.1944,-2.2673,-2.2136,-2.1215,-2.0158,0.0,0.0,0.0,0.0,0.0,0.0,0.0,0.0,0.0,0.0,0.0,0.0,0.0,0.0,0.0,0.0,0.0,0.0,0.0,0.0,0.0,0.0,0.0,0.0,0.0,0.0,0.0,0.0,0.0,0.0,0.0,0.0,0.0,0.0,0.0,0.0,0.0,0.0,0.0,0.0,0.0,0.0,0.0,0.0,0.0,0.0,0.0,0.0,0.0,0.0,0.0,0.0,0.0,0.0,0.0,0.0,0.0,0.0,0.0,0.0,0.0,0.0,0.0,0.0,0.0,0.0,0.0,0.0,0.0,0.0,0.0,0.0,0.0,0.0,0.0,0.0,0.0,0.0,0.0,0.0,0.0,0.0,0.0,0.0,0.0,0.0,0.0,0.0,0.0,0.0,0.0,0.0,0.0,0.0,0.0,0.0,0.0,0.0,0.0,0.0,0.0,0.0,0.0,0.0,0.0,0.0,0.0,0.0,-1.8679,-2.0674,-2.3285,-2.4763,-2.4957,-2.3184,-2.1687,0.0,0.0,0.0,0.0,0.0,0.0,0.0,0.0,0.0,0.0,0.0,0.0,0.0,0.0,0.0,0.0,0.0,0.0,0.0,0.0,0.0,0.0,0.0,0.0,0.0,0.0,0.0,0.0,0.0,0.0,0.0,0.0,0.0,0.0,0.0,0.0,0.0,0.0,0.0,0.0,0.0,0.0,0.0,0.0,0.0,0.0,0.0,0.0,0.0,0.0,0.0,0.0,0.0,0.0,0.0,0.0,0.0,0.0,0.0,0.0,0.0,0.0,0.0,0.0,0.0,0.0,0.0,0.0,0.0,0.0,0.0,0.0,0.0,0.0,0.0,0.0,0.0,0.0,0.0,0.0,0.0,0.0,0.0,0.0,0.0,0.0,0.0,0.0,0.0,0.0,0.0,0.0,0.0,0.0,0.0,0.0,0.0,0.0,0.0,0.0,0.0,0.0,0.0,0.0,0.0,0.0,0.0,0.0,-1.9972,-2.1331,-2.4421,-2.661,-2.7596,-2.5313,-2.3077,0.0,0.0,0.0,0.0,0.0,0.0,0.0,0.0,0.0,0.0,0.0,0.0,0.0,0.0,0.0,0.0,0.0,0.0,0.0,0.0,0.0,0.0,0.0,0.0,0.0,0.0,0.0,0.0,0.0,0.0,0.0,0.0,0.0,0.0,0.0,0.0,0.0,0.0,0.0,0.0,0.0,0.0,0.0,0.0,0.0,0.0,0.0,0.0,0.0,0.0,0.0,0.0,0.0,0.0,0.0,0.0,0.0,0.0,0.0,0.0,0.0,0.0,0.0,0.0,0.0,0.0,0.0,0.0,0.0,0.0,0.0,0.0,0.0,0.0,0.0,0.0,0.0,0.0,0.0,0.0,0.0,0.0,0.0,0.0,0.0,0.0,0.0,0.0,0.0,0.0,0.0,0.0,0.0,0.0,0.0,0.0,0.0,0.0,0.0,0.0,0.0,0.0,0.0,0.0,0.0,0.0,0.0,0.0,-2.1429,-2.2709,-2.5769,-2.7931,-2.8964,-2.6151,-2.3997,0.0,0.0,0.0,0.0,0.0,0.0,0.0,0.0,0.0,0.0,0.0,0.0,0.0,0.0,0.0,0.0,0.0,0.0,0.0,0.0,0.0,0.0,0.0,0.0,0.0,0.0,0.0,0.0,0.0,0.0,0.0,0.0,0.0,0.0,0.0,0.0,0.0,0.0,0.0,0.0,0.0,0.0,0.0,0.0,0.0,0.0,0.0,0.0,-1.9057,0.0,0.0,0.0,0.0,0.0,0.0,0.0,0.0,0.0,0.0,0.0,0.0,0.0,0.0,0.0,0.0,0.0,0.0,0.0,0.0,0.0,0.0,0.0,0.0,0.0,0.0,0.0,0.0,0.0,0.0,0.0,0.0,0.0,0.0,0.0,0.0,0.0,0.0,0.0,0.0,0.0,0.0,0.0,0.0,0.0,0.0,0.0,0.0,0.0,0.0,0.0,0.0,0.0,0.0,0.0,0.0,0.0,0.0,0.0,-2.2295,-2.4038,-2.6485,-2.8211,-2.9005,-2.7201,-2.5323,0.0,0.0,0.0,0.0,0.0,0.0,0.0,0.0,0.0,0.0,0.0,0.0,0.0,0.0,0.0,0.0,0.0,0.0,0.0,0.0,0.0,0.0,0.0,0.0,0.0,0.0,0.0,0.0,0.0,0.0,0.0,0.0,0.0,0.0,0.0,0.0,0.0,0.0,0.0,0.0,0.0,0.0,0.0,0.0,0.0,0.0,0.0,0.0,0.0,0.0,0.0,0.0,0.0,0.0,0.0,0.0,0.0,0.0,0.0,0.0,0.0,0.0,0.0,0.0,0.0,0.0,0.0,0.0,0.0,0.0,0.0,0.0,0.0,0.0,0.0,0.0,0.0,0.0,0.0,0.0,0.0,0.0,0.0,0.0,0.0,0.0,0.0,0.0,0.0,0.0,0.0,0.0,0.0,0.0,0.0,0.0,0.0,0.0,0.0,0.0,0.0,0.0,0.0,0.0,0.0,0.0,0.0,-2.0891,-2.3201,-2.5552,-2.7246,-2.8383,-2.891,-2.8187,-2.6531,-2.3932,0.0,0.0,0.0,0.0,0.0,0.0,0.0,0.0,0.0,0.0,0.0,0.0,0.0,0.0,0.0,0.0,0.0,0.0,0.0,0.0,0.0,0.0,0.0,0.0,0.0,0.0,0.0,0.0,0.0,0.0,0.0,0.0,0.0,0.0,0.0,0.0,0.0,0.0,-1.5312,-1.6255,0.0,0.0,0.0,0.0,0.0,0.0,0.0,0.0,-2.1028,0.0,0.0,0.0,0.0,0.0,0.0,0.0,0.0,0.0,0.0,0.0,0.0,0.0,0.0,0.0,0.0,0.0,0.0,0.0,0.0,0.0,0.0,0.0,0.0,0.0,0.0,0.0,0.0,0.0,0.0,0.0,0.0,0.0,0.0,0.0,0.0,0.0,0.0,0.0,0.0,0.0,0.0,0.0,0.0,0.0,0.0,0.0,0.0,0.0,0.0,0.0,0.0,0.0,0.0,0.0,0.0,-2.0813,-2.2568,-2.491,-2.7852,-2.8944,-2.9546,-2.9599,-2.8587,-2.6788,-2.4202,0.0,0.0,0.0,0.0,0.0,0.0,0.0,0.0,0.0,0.0,0.0,0.0,0.0,0.0,0.0,0.0,0.0,0.0,0.0,0.0,0.0,0.0,0.0,0.0,0.0,0.0,0.0,0.0,0.0,0.0,0.0,0.0,0.0,0.0,0.0,0.0,0.0,0.0,0.0,-1.7826,-1.8709,0.0,0.0,0.0,0.0,0.0,0.0,0.0,0.0,-2.2072,0.0,0.0,0.0,0.0,0.0,0.0,0.0,0.0,0.0,0.0,0.0,0.0,0.0,0.0,0.0,0.0,0.0,0.0,0.0,0.0,0.0,0.0,0.0,0.0,0.0,0.0,0.0,0.0,0.0,0.0,0.0,0.0,0.0,0.0,0.0,0.0,0.0,0.0,0.0,0.0,0.0,0.0,0.0,0.0,0.0,0.0,0.0,0.0,0.0,0.0,0.0,0.0,0.0,0.0,0.0,-2.1533,-2.3789,-2.6262,-2.8854,-2.9495,-2.9779,-2.9754,-2.8147,-2.6282,0.0,0.0,0.0,0.0,0.0,0.0,0.0,0.0,0.0,0.0,0.0,0.0,0.0,0.0,0.0,0.0,0.0,0.0,0.0,0.0,0.0,0.0,0.0,0.0,0.0,0.0,0.0,0.0,0.0,0.0,0.0,0.0,0.0,0.0,0.0,0.0,0.0,0.0,0.0,0.0,-1.9277,-2.0223,-2.1141,0.0,0.0,0.0,0.0,0.0,0.0,-2.2627,-2.2739,0.0,0.0,0.0,0.0,0.0,0.0,0.0,0.0,0.0,0.0,0.0,0.0,0.0,0.0,0.0,0.0,0.0,0.0,0.0,0.0,0.0,0.0,0.0,0.0,0.0,0.0,0.0,0.0,0.0,0.0,0.0,0.0,0.0,0.0,0.0,0.0,0.0,0.0,0.0,0.0,0.0,0.0,0.0,0.0,0.0,0.0,0.0,0.0,0.0,0.0,0.0,0.0,0.0,0.0,0.0,-2.1873,-2.4435,-2.694,-2.9256,-2.9611,-2.974,-2.9741,-2.7668,-2.5786,0.0,0.0,0.0,0.0,0.0,0.0,0.0,0.0,0.0,0.0,0.0,0.0,0.0,0.0,0.0,0.0,0.0,0.0,0.0,0.0,0.0,0.0,0.0,0.0,0.0,0.0,0.0,0.0,0.0,0.0,0.0,0.0,0.0,0.0,0.0,0.0,0.0,0.0,0.0,0.0,0.0,-2.2,-2.2718,-2.2409,0.0,0.0,0.0,0.0,-2.2628,-2.351,0.0,0.0,0.0,0.0,0.0,0.0,0.0,0.0,0.0,0.0,0.0,0.0,0.0,0.0,0.0,0.0,0.0,0.0,0.0,0.0,0.0,0.0,0.0,0.0,0.0,0.0,0.0,0.0,0.0,0.0,0.0,0.0,0.0,0.0,0.0,0.0,0.0,0.0,0.0,0.0,0.0,0.0,0.0,0.0,0.0,0.0,0.0,0.0,0.0,0.0,0.0,0.0,0.0,0.0,0.0,0.0,-2.2347,-2.414,-2.6428,-2.9218,-2.9419,-2.9548,-2.9767,-2.7668,-2.572,0.0,0.0,0.0,0.0,0.0,0.0,0.0,0.0,0.0,0.0,0.0,0.0,0.0,0.0,0.0,0.0,0.0,0.0,0.0,0.0,0.0,0.0,0.0,0.0,0.0,0.0,0.0,0.0,0.0,0.0,0.0,0.0,0.0,0.0,0.0,0.0,0.0,0.0,0.0,0.0,0.0,-2.4162,-2.3433,-2.2914,-2.2731,0.0,0.0,-2.4246,-2.513,-2.609,0.0,0.0,0.0,0.0,0.0,0.0,0.0,0.0,0.0,0.0,0.0,0.0,0.0,0.0,0.0,0.0,0.0,0.0,0.0,0.0,0.0,0.0,0.0,0.0,0.0,0.0,0.0,0.0,0.0,0.0,0.0,0.0,0.0,0.0,0.0,0.0,0.0,0.0,0.0,0.0,0.0,0.0,0.0,0.0,0.0,0.0,0.0,0.0,0.0,0.0,0.0,0.0,0.0,0.0,0.0,-2.0173,-2.234,-2.4901,-2.7188,-2.9149,-2.9043,-2.9048,-2.9289,-2.6226,-2.4092,0.0,0.0,0.0,0.0,0.0,0.0,0.0,0.0,0.0,0.0,0.0,0.0,0.0,0.0,0.0,0.0,0.0,0.0,0.0,0.0,0.0,0.0,0.0,0.0,0.0,0.0,0.0,0.0,0.0,0.0,0.0,0.0,0.0,0.0,0.0,0.0,0.0,0.0,0.0,0.0,0.0,0.0,-2.4766,-2.4636,0.0,0.0,0.0,-2.4759,-2.5253,0.0,0.0,0.0,0.0,0.0,0.0,0.0,0.0,0.0,0.0,0.0,0.0,0.0,0.0,0.0,0.0,0.0,0.0,0.0,0.0,0.0,0.0,0.0,0.0,0.0,0.0,0.0,0.0,0.0,0.0,0.0,0.0,0.0,0.0,0.0,0.0,0.0,0.0,0.0,0.0,0.0,0.0,0.0,0.0,0.0,0.0,0.0,0.0,0.0,0.0,0.0,0.0,0.0,0.0,0.0,0.0,0.0,-2.224,-2.5441,-2.766,-2.8756,-2.8457,-2.8362,-2.8512,-2.549,0.0,0.0,0.0,0.0,0.0,0.0,0.0,0.0,0.0,0.0,0.0,0.0,0.0,0.0,0.0,0.0,0.0,0.0,0.0,0.0,0.0,0.0,0.0,0.0,0.0,0.0,0.0,-1.789,0.0,0.0,0.0,0.0,0.0,0.0,0.0,0.0,0.0,0.0,0.0,0.0,0.0,0.0,-2.6433,-2.6432,-2.6615,-2.699,0.0,0.0,-2.5885,-2.62,-2.7822,-2.8098,0.0,0.0,0.0,0.0,0.0,0.0,0.0,0.0,0.0,0.0,0.0,0.0,0.0,0.0,0.0,0.0,0.0,0.0,0.0,0.0,0.0,0.0,0.0,0.0,0.0,0.0,0.0,0.0,0.0,0.0,0.0,0.0,0.0,0.0,0.0,0.0,0.0,0.0,0.0,0.0,0.0,0.0,0.0,0.0,0.0,0.0,0.0,0.0,0.0,0.0,0.0,0.0,0.0,0.0,0.0,-2.2258,-2.5324,-2.7301,-2.8013,-2.7564,-2.7396,-2.7582,-2.6553,-2.4723,0.0,0.0,0.0,0.0,0.0,0.0,0.0,0.0,0.0,0.0,0.0,0.0,0.0,0.0,0.0,0.0,0.0,0.0,0.0,0.0,0.0,0.0,0.0,0.0,0.0,0.0,0.0,0.0,0.0,0.0,0.0,0.0,0.0,0.0,0.0,0.0,0.0,0.0,0.0,0.0,0.0,-2.865,-2.852,-2.8656,-2.9353,0.0,0.0,-2.8427,-2.9487,-3.0564,-3.0339,-2.761,0.0,0.0,0.0,0.0,0.0,0.0,0.0,0.0,0.0,0.0,0.0,0.0,0.0,0.0,0.0,0.0,0.0,0.0,0.0,0.0,0.0,0.0,0.0,0.0,0.0,0.0,0.0,0.0,0.0,0.0,0.0,0.0,0.0,0.0,0.0,0.0,0.0,0.0,0.0,0.0,0.0,0.0,0.0,0.0,0.0,0.0,0.0,0.0,0.0,0.0,0.0,0.0,0.0,-2.0466,-2.1253,-2.4638,-2.6757,-2.7466,-2.698,-2.6785,-2.7004,-2.5674,-2.3836,0.0,0.0,0.0,0.0,0.0,0.0,0.0,0.0,0.0,0.0,0.0,0.0,0.0,0.0,0.0,0.0,0.0,0.0,0.0,0.0,0.0,0.0,0.0,0.0,0.0,0.0,0.0,0.0,-2.1327,-2.1341,-2.0498,0.0,0.0,0.0,0.0,0.0,0.0,0.0,0.0,0.0,0.0,-2.9548,-3.0258,-3.0759,0.0,0.0,-3.0745,-2.997,-3.0573,-3.0762,-2.9998,-2.7564,-2.6904,0.0,0.0,0.0,0.0,0.0,0.0,0.0,0.0,0.0,0.0,0.0,0.0,0.0,0.0,0.0,0.0,0.0,0.0,0.0,0.0,0.0,0.0,0.0,0.0,0.0,0.0,0.0,0.0,0.0,0.0,0.0,0.0,0.0,0.0,0.0,0.0,0.0,0.0,0.0,0.0,0.0,0.0,0.0,0.0,0.0,0.0,0.0,0.0,0.0,0.0,0.0,0.0,-2.0145,-2.0827,-2.4302,-2.6347,-2.6869,-2.636,-2.6129,-2.6248,-2.5208,-2.3668,0.0,0.0,0.0,0.0,0.0,0.0,0.0,0.0,0.0,0.0,0.0,0.0,0.0,0.0,0.0,0.0,0.0,0.0,0.0,0.0,0.0,0.0,0.0,0.0,0.0,0.0,0.0,0.0,-2.1805,-2.1805,-2.054,0.0,0.0,0.0,0.0,0.0,0.0,0.0,0.0,0.0,0.0,-3.073,-3.1349,-3.1904,-3.2209,-3.2142,-3.1108,-3.0488,-3.1029,-3.0845,-3.0035,-2.8302,0.0,0.0,0.0,0.0,0.0,0.0,0.0,0.0,0.0,0.0,0.0,0.0,0.0,0.0,0.0,0.0,0.0,0.0,0.0,0.0,0.0,0.0,0.0,0.0,0.0,0.0,0.0,0.0,0.0,0.0,0.0,0.0,0.0,0.0,0.0,0.0,0.0,0.0,0.0,0.0,0.0,0.0,0.0,0.0,0.0,0.0,0.0,0.0,0.0,0.0,0.0,0.0,0.0,-2.0298,-2.1404,-2.4458,-2.6081,-2.6105,-2.56,-2.5348,-2.5336,-2.5476,-2.4769,-2.3106,0.0,0.0,0.0,0.0,0.0,0.0,0.0,0.0,0.0,0.0,0.0,0.0,0.0,0.0,0.0,0.0,0.0,0.0,0.0,0.0,0.0,0.0,0.0,0.0,0.0,0.0,-1.8933,-1.9719,-2.0498,0.0,0.0,0.0,0.0,0.0,0.0,0.0,0.0,0.0,0.0,-3.0502,-3.2465,-3.1618,-3.1735,-3.1923,-3.1783,-3.0508,-2.9875,-3.1072,-3.1172,-3.0991,0.0,0.0,0.0,0.0,0.0,0.0,0.0,0.0,0.0,0.0,0.0,0.0,0.0,0.0,0.0,0.0,0.0,0.0,0.0,0.0,0.0,0.0,0.0,0.0,0.0,0.0,0.0,-1.8472,-1.7952,0.0,0.0,0.0,0.0,0.0,0.0,0.0,0.0,0.0,0.0,0.0,-2.2714,-2.2871,0.0,0.0,0.0,0.0,0.0,0.0,0.0,0.0,0.0,0.0,0.0,0.0,-2.0157,-2.0976,-2.3953,-2.5576,-2.5564,-2.5396,-2.5312,-2.5312,-2.5347,-2.5019,-2.4251,0.0,0.0,0.0,0.0,0.0,0.0,0.0,0.0,0.0,0.0,0.0,0.0,0.0,0.0,0.0,0.0,0.0,0.0,0.0,0.0,0.0,0.0,0.0,0.0,0.0,-2.1645,0.0,0.0,0.0,0.0,0.0,0.0,0.0,0.0,0.0,0.0,0.0,-2.7795,-2.9045,-3.0048,-3.0936,-3.1542,-3.1985,-3.2556,0.0,0.0,0.0,0.0,0.0,0.0,0.0,0.0,0.0,0.0,0.0,0.0,0.0,0.0,-3.1088,-2.9334,-2.9573,-2.9861,-2.9358,0.0,0.0,0.0,0.0,0.0,0.0,0.0,0.0,0.0,0.0,0.0,0.0,0.0,0.0,0.0,0.0,-2.0096,0.0,0.0,0.0,0.0,0.0,0.0,0.0,0.0,-2.4001,-2.4926,-2.4891,-2.5168,-2.518,0.0,-2.3797,-2.2113,0.0,0.0,0.0,0.0,0.0,0.0,0.0,0.0,-2.035,-2.0976,-2.3785,-2.5312,-2.5312,-2.5312,-2.5312,-2.5312,-2.5546,-2.5732,-2.5783,-2.4852,-2.3958,0.0,0.0,0.0,0.0,0.0,0.0,0.0,0.0,0.0,0.0,0.0,0.0,0.0,0.0,0.0,0.0,0.0,0.0,0.0,0.0,0.0,0.0,0.0,-2.2705,0.0,0.0,0.0,0.0,0.0,0.0,0.0,0.0,0.0,-2.6329,-2.8276,-2.9905,-3.0513,-3.1147,-3.1413,-3.1049,0.0,0.0,0.0,0.0,0.0,0.0,0.0,-3.0335,-3.0044,-3.0034,-3.0192,-3.0543,-3.1406,-3.228,-3.3014,0.0,0.0,-3.195,-3.2277,-3.2726,-3.245,-3.2399,-3.2399,-3.2374,-3.2405,-3.2382,0.0,0.0,0.0,0.0,0.0,0.0,0.0,0.0,-2.3499,-2.2766,0.0,-2.263,0.0,0.0,0.0,0.0,0.0,0.0,0.0,0.0,-2.7152,-2.7921,-2.6958,-2.6922,-2.6934,-2.6873,-2.5901,-2.5119,-2.4424,-2.1524,0.0,0.0,0.0,0.0,0.0,0.0,-2.0892,-2.1548,-2.4013,-2.5312,-2.5312,-2.5312,-2.5312,-2.5382,-2.6082,-2.6778,-2.7508,-2.6598,-2.6059,-2.6045,-2.3321,0.0,0.0,0.0,0.0,0.0,0.0,0.0,0.0,0.0,0.0,0.0,0.0,0.0,0.0,0.0,0.0,0.0,0.0,0.0,0.0,-2.2614,0.0,0.0,0.0,0.0,0.0,0.0,0.0,0.0,0.0,0.0,-2.8127,-2.9996,-3.1471,-3.1443,0.0,0.0,0.0,0.0,-3.1513,-2.9307,-2.8886,-2.9153,-2.9785,-3.0825,-3.1949,-3.3052,0.0,0.0,-3.4301,-3.3768,-3.3473,-3.3445,-3.4961,-3.5892,-3.5116,-3.5039,-3.5121,-3.5095,-3.5083,-3.5135,-3.5136,-3.5144,-3.5006,-2.3036,0.0,0.0,0.0,0.0,-2.2747,-2.3918,-2.5705,-2.5875,-2.5514,-2.4771,-2.4908,0.0,0.0,0.0,0.0,0.0,0.0,-2.5096,-2.6213,-2.6994,-2.7582,-2.8053,-2.8065,-2.8014,-2.8002,-2.7729,-2.7524,-2.7296,-2.5685,-2.3003,-1.9387,0.0,0.0,0.0,0.0,-2.1434,-2.3107,-2.4554,-2.5312,-2.5312,-2.5312,-2.5546,-2.607,-2.6812,-2.7525,-2.8229,-2.8433,-2.7966,-2.6764,-2.5422,0.0,0.0,0.0,0.0,0.0,0.0,0.0,0.0,0.0,0.0,0.0,0.0,0.0,0.0,0.0,0.0,0.0,0.0,0.0,-2.2677,-2.3938,-2.4582,0.0,0.0,0.0,0.0,0.0,0.0,0.0,0.0,0.0,-3.1064,-3.1302,-3.1316,0.0,0.0,-3.0164,-2.9083,-3.0164,-3.1241,-3.1893,0.0,0.0,0.0,-3.3129,-3.2918,-3.3234,-3.4373,-3.5133,-3.4964,-3.5475,-3.5939,-3.5925,-3.6712,-3.7293,-3.7137,-3.7509,-3.7772,-3.7532,-3.776,-3.7946,-3.7647,-3.7605,-3.7422,-2.5644,-2.4873,-2.3355,-2.341,-2.4419,-2.441,-2.547,-2.7108,-2.7179,-2.7034,-2.6717,-2.6681,-2.5444,-2.3436,-2.3445,0.0,0.0,0.0,-2.6152,-2.7522,-2.7522,-2.7909,-2.8486,-2.851,-2.851,-2.851,-2.851,-2.8402,-2.8186,-2.7115,-2.4939,-2.1728,0.0,0.0,-2.0286,-2.1349,-2.2505,-2.3782,-2.4783,-2.5312,-2.5312,-2.5581,-2.6104,-2.6824,-2.7537,-2.8228,-2.8917,-2.9355,-2.9113,-2.8076,-2.6877,-2.5286,0.0,0.0,0.0,0.0,0.0,0.0,0.0,0.0,0.0,0.0,0.0,-1.973,-1.8063,0.0,0.0,0.0,-2.3016,-2.4704,-2.5647,-2.6603,0.0,0.0,0.0,0.0,0.0,0.0,0.0,-3.0011,-3.1543,-3.2599,-3.2742,-3.244,-3.2258,-3.2342,-3.1724,-3.1078,-3.06,0.0,-3.2595,-3.3206,-3.3276,-3.3578,-3.4345,-3.4225,-3.4211,-3.4702,-3.5363,-3.5906,-3.5934,-3.6553,-3.6964,-3.7021,-3.7288,-3.7526,-3.754,-3.8153,-3.8727,-3.8916,-3.9259,-3.9461,-3.942,-3.9309,-3.9007,-2.7802,-2.68,-2.3802,-2.4107,-2.6444,-2.5731,-2.6391,-2.7887,-2.772,-2.7681,-2.7807,-2.7928,-2.7079,-2.5505,-2.4826,0.0,0.0,-2.659,-2.738,-2.851,-2.851,-2.851,-2.851,-2.851,-2.851,-2.851,-2.8474,-2.8198,-2.7654,-2.6622,-2.5552,-2.4484,-2.4013,-2.3276,-2.2306,-2.3147,-2.371,-2.3818,-2.4699,-2.5263,-2.537,-2.6035,-2.6778,-2.7537,-2.8141,-2.8784,-2.9557,-2.9546,-2.956,-2.956,-2.7959,-2.6947,-2.6694,0.0,0.0,0.0,0.0,0.0,0.0,0.0,0.0,0.0,0.0,0.0,0.0,0.0,0.0,0.0,-2.726,0.0,-3.0006,-3.0117,0.0,0.0,0.0,-3.0127,-3.1635,-3.2768,-3.3228,-3.2738,0.0,0.0,-3.3593,0.0,-3.3965,-3.5175,-3.5161,-3.4641,-3.348,-3.4289,-3.4781,-3.3691,-3.3578,-3.3649,-3.4,-3.4688,-3.5653,-3.6571,-3.6978,-3.6922,-3.6908,-3.6936,-3.6978,-3.6978,-3.6993,-3.7007,-3.6993,-3.7459,-3.8241,-3.9394,-3.9662,-3.9873,-4.0252,-4.0065,-3.9662,-2.5063,-2.5983,-2.489,-2.5465,-2.7018,-2.7249,-2.7666,-2.8221,-2.8533,-2.8709,-2.8688,-2.8726,-2.8274,-2.7496,-2.7466,-2.755,-2.7699,-2.7948,-2.823,-2.851,-2.851,-2.851,-2.851,-2.851,-2.851,-2.8486,-2.8102,-2.7798,-2.7642,-2.6635,-2.5552,-2.4508,-2.4047,-2.3276,-2.2246,-2.2469,-2.2967,-2.3806,-2.4047,-2.4813,-2.6079,-2.6311,-2.7015,-2.8233,-2.7958,-2.8369,-2.9543,-2.9167,-2.9125,-2.956,-2.9181,-2.8296,-2.6849,-2.4064,0.0,0.0,0.0,0.0,0.0,0.0,0.0,0.0,0.0,-2.1298,-1.8668,0.0,-2.3635,0.0,-2.7035,-3.0398,-3.2199,-3.2253,0.0,0.0,-3.2317,-3.2572,-3.5032,-3.5342,-3.5222,-3.5008,-3.5725,-3.6052,-3.5453,-3.5347,-3.5674,-3.6409,-3.4927,-3.3649,-3.3347,-3.4401,-3.5105,-3.4894,-3.5461,-3.6107,-3.6051,-3.637,-3.6666,-3.6975,-3.6978,-3.6978,-3.6978,-3.6978,-3.6978,-3.6978,-3.6978,-3.6978,-3.7031,-3.7119,-3.7653,-3.8745,-3.91,-3.9154,-3.9373,-3.9335,-3.9264,-2.4494,-2.5179,-2.5523,-2.5918,-2.6306,-2.7277,-2.7746,-2.7964,-2.814,-2.8367,-2.8497,-2.8619,-2.8412,-2.8082,-2.8271,-2.8299,-2.8207,-2.8299,-2.8431,-2.851,-2.851,-2.851,-2.851,-2.851,-2.835,-2.815,-2.7822,-2.7426,-2.6983,-2.6394,-2.5685,-2.4879,-2.4602,-2.3962,-2.2919,-2.2426,-2.2599,-2.3423,-2.4211,-2.5165,-2.6364,-2.7002,-2.7453,-2.7683,-2.7694,-2.7767,-2.7929,-2.7636,-2.751,-2.7551,-2.7804,-2.7369,-2.6048,-2.4151,-2.2802,0.0,0.0,0.0,0.0,0.0,0.0,0.0,0.0,0.0,0.0,0.0,-2.5871,0.0,-3.0051,-3.2855,-3.3876,-3.4288,-3.4897,-3.5843,-3.5412,-3.5835,-3.7732,-3.7952,-3.779,-3.7206,-3.7719,-3.7798,-3.7004,-3.7077,-3.7287,-3.7381,-3.6211,-3.5234,-3.5034,-3.5559,-3.6005,-3.6047,-3.6581,-3.6978,-3.6978,-3.6978,-3.6978,-3.6978,-3.6978,-3.6978,-3.6978,-3.6978,-3.6978,-3.6978,-3.6978,-3.7095,-3.7327,-3.7404,-3.771,-3.8471,-3.8808,-3.905,-3.9588,-3.9696,-3.9714,-2.4822,-2.4517,-2.5698,-2.5788,-2.5163,-2.6457,-2.7117,-2.7278,-2.7357,-2.762,-2.8069,-2.8189,-2.8125,-2.7987,-2.8094,-2.8139,-2.8139,-2.8167,-2.8311,-2.8459,-2.851,-2.851,-2.851,-2.851,-2.827,-2.7825,-2.7642,-2.7128,-2.6214,-2.6069,-2.5709,-2.5131,-2.5107,-2.459,-2.3601,-2.2737,-2.2574,-2.303,-2.4648,-2.5794,-2.6435,-2.7483,-2.7569,-2.6696,-2.7148,-2.6975,-2.595,-2.5823,-2.5597,-2.5175,-2.5612,-2.5725,-2.5358,-2.4151,-2.3533,0.0,-2.2072,0.0,0.0,0.0,0.0,0.0,0.0,0.0,0.0,-2.7332,-2.921,-3.1767,-3.4343,-3.5784,-3.5624,-3.6473,-3.7477,-3.86,-3.8769,-3.9045,-3.9728,-4.0211,-4.0126,-3.9111,-3.9487,-3.9379,-3.8316,-3.8598,-3.8657,-3.8136,-3.7785,-3.7467,-3.7179,-3.6958,-3.688,-3.6978,-3.6978,-3.6978,-3.6978,-3.6978,-3.6978,-3.6978,-3.6978,-3.6978,-3.6978,-3.6978,-3.6978,-3.6978,-3.7095,-3.7327,-3.781,-3.7924,-3.8211,-3.8826,-3.8996,-3.9253,-4.0076,-4.0349,-4.04,-2.384,-2.3987,-2.4832,-2.511,-2.5016,-2.5671,-2.6022,-2.6218,-2.775,-2.8553,-2.8784,-2.8615,-2.8398,-2.8232,-2.8028,-2.7829,-2.7644,-2.8007,-2.8219,-2.8259,-2.8431,-2.851,-2.851,-2.851,-2.8462,-2.8318,-2.7488,-2.6934,-2.6717,-2.5853,-2.4975,-2.4119,-2.4095,-2.3577,-2.2566,0.0,0.0,0.0,-2.4236,-2.5371,-2.6561,-2.5907,-2.5678,-2.6009,-2.5699,0.0,-2.5865,-2.5442,-2.5331,-2.5697,-2.5823,0.0,0.0,0.0,0.0,0.0,0.0,0.0,0.0,0.0,0.0,0.0,-2.7369,-2.6834,-2.714,-2.9411,-3.2227,-3.5495,-3.6635,-3.7761,-3.9281,-3.961,-3.9828,-4.0059,-4.012,-4.0178,-4.0335,-4.042,-4.0385,-4.0231,-4.0266,-4.0106,-3.9451,-3.9451,-3.9307,-3.8708,-3.8225,-3.7886,-3.7772,-3.7327,-3.7017,-3.6978,-3.6978,-3.6978,-3.6978,-3.6978,-3.6978,-3.6978,-3.6978,-3.6978,-3.6978,-3.7017,-3.7017,-3.7031,-3.7404,-3.7734,-3.7924,-3.83,-3.8819,-3.9415,-3.9538,-3.9622,-3.9845,-3.9873,-3.9962,-2.3297,0.0,-2.4091,-2.4227,0.0,-2.5208,-2.5706,-2.5903,-2.7315,-2.8343,-2.899,-2.8862,-2.8757,-2.863,-2.8637,-2.855,-2.8432,-2.8515,-2.8612,-2.8762,-2.8551,-2.851,-2.851,-2.851,-2.8378,-2.8102,-2.7546,-2.7006,-2.6514,-2.5961,-2.5464,-2.5087,-2.5108,-2.4979,-2.4822,-2.5135,-2.5086,-2.4532,-2.5625,-2.664,-2.7538,-2.7327,-2.7062,-2.6835,0.0,0.0,0.0,0.0,0.0,0.0,0.0,0.0,0.0,0.0,0.0,-2.8113,-2.7636,-2.7818,-2.9012,-2.9125,-2.9659,-3.0867,-3.0965,-3.0736,-3.025,-3.2638,-3.5299,-3.79,-3.8452,-3.9096,-4.0332,-4.0489,-4.0489,-4.0489,-4.0489,-4.0489,-4.0489,-4.0489,-4.0489,-4.0489,-4.0489,-4.0281,-3.9788,-3.993,-3.9859,-3.9343,-3.9002,-3.8745,-3.8671,-3.7734,-3.6978,-3.6978,-3.6978,-3.6978,-3.6978,-3.6978,-3.7017,-3.6978,-3.6978,-3.6978,-3.6978,-3.725,-3.7443,-3.7467,-3.7924,-3.8412,-3.8745,-3.9038,-3.9415,-3.993,-4.0071,-4.0086,-4.0097,-4.0101,-4.0176,-2.2996,-2.3046,-2.3605,-2.3556,-2.3335,-2.4819,-2.5654,-2.6131,0.0,0.0,0.0,-2.9144,-2.9109,-2.9097,-2.9211,-2.9234,-2.919,-2.8916,-2.8916,-2.9095,-2.8663,-2.8471,-2.851,-2.851,-2.8242,-2.7873,-2.7726,-2.7212,-2.6262,-2.6154,-2.6188,-2.6396,-2.6414,-2.6812,-2.7637,-2.7578,-2.7214,-2.6614,-2.7253,-2.7866,-2.8374,-2.8764,-2.8478,-2.7467,-2.7468,-2.699,-2.595,-2.5893,-2.5738,-2.5372,-2.5683,-2.6048,-2.6371,-2.6877,-2.7762,-2.9069,-2.9293,-3.008,-3.1682,-3.1822,-3.2286,-3.3361,-3.4122,-3.4292,-3.3807,-3.5739,-3.7739,-3.953,-3.9786,-4.0021,-4.0455,-4.0489,-4.0489,-4.0489,-4.0489,-4.0489,-4.0489,-4.0489,-4.0489,-4.0489,-4.0489,-4.0351,-3.993,-4.0211,-4.0351,-3.993,-3.9666,-3.9646,-3.9379,-3.8263,-3.7443,-3.7429,-3.7481,-3.7352,-3.7352,-3.7404,-3.7327,-3.7443,-3.7352,-3.7327,-3.739,-3.7734,-3.8037,-3.8075,-3.856,-3.909,-3.9574,-3.9753,-3.9985,-4.042,-4.0489,-4.0489,-4.0489,-4.0489,-4.0489,-2.2996,-2.3046,-2.3605,-2.3768,-2.3723,-2.4223,-2.5421,-2.7103,-2.8543,-2.9518,-3.002,-2.9606,-2.9433,-2.941,-2.8994,-2.8696,-2.8482,-2.84,-2.8369,0.0,-2.8295,-2.8339,-2.851,-2.851,-2.8474,-2.8366,-2.7945,-2.7366,-2.6789,-2.6334,-2.6188,-2.6386,-2.6414,-2.7056,-2.8206,-2.7826,-2.8089,-2.9014,-2.7618,-2.7196,-2.7839,-2.6947,-2.6343,-2.6174,-2.6217,-2.609,-2.5907,-2.5921,-2.6104,-2.6512,-2.6132,-2.6624,-2.8183,-2.838,-2.9223,-3.0951,-3.1583,-3.2244,-3.2988,-3.3038,-3.3333,-3.405,-3.5062,-3.5849,-3.6345,-3.7172,-3.8411,-4.0121,-4.0324,-4.042,-4.0489,-4.0489,-4.0489,-4.0489,-4.0489,-4.0489,-4.0489,-4.0489,-4.0489,-4.0489,-4.0489,-4.0489,-4.0385,-4.042,-4.0455,-4.0316,-4.0036,-3.9574,-3.9199,-3.8745,-3.856,-3.856,-3.8546,-3.856,-3.8412,-3.8523,-3.8435,-3.8575,-3.8435,-3.8412,-3.8375,-3.856,-3.8686,-3.8671,-3.9147,-3.9559,-3.9753,-4.0071,-4.0316,-4.0489,-4.0489,-4.0489,-4.0489,-4.0489,-4.0489,-2.2804,-2.2795,-2.3197,-2.3447,-2.3696,-2.5187,-2.633,-2.7358,-2.9091,-3.0009,-3.0181,-2.9975,-2.9883,-2.986,-2.963,-2.9533,-2.952,-2.9114,-2.8867,-2.8822,-2.8388,-2.8191,-2.8203,-2.8271,-2.8339,-2.8327,-2.8191,-2.7885,-2.738,-2.7519,-2.7551,-2.7456,-2.7571,-2.7981,-2.8533,-2.8011,-2.8177,-2.9083,-2.8232,-2.8107,-2.8745,-2.8212,-2.7917,-2.7902,-2.7917,-2.7902,-2.7917,-2.7917,-2.8029,-2.8324,-2.838,-2.8771,-2.9631,-3.001,-3.074,-3.1893,-3.2244,-3.2665,-3.3234,-3.3599,-3.3908,-3.4239,-3.5626,-3.6746,-3.7343,-3.8217,-3.9206,-4.0378,-4.0489,-4.0489,-4.0489,-4.0489,-4.0489,-4.0489,-4.0489,-4.0489,-4.0489,-4.0489,-4.0489,-4.0489,-4.0489,-4.0489,-4.0489,-4.0489,-4.0489,-4.0489,-4.0246,-4.0001,-3.9737,-3.9687,-3.9472,-3.8929,-3.8782,-3.8782,-3.8819,-3.8782,-3.8782,-3.8782,-3.8782,-3.8782,-3.8819,-3.9017,-3.9271,-3.9307,-3.9737,-4.0071,-4.0106,-4.0316,-4.0455,-4.0489,-4.0489,-4.0489,-4.0489,-4.0455,-4.0436,-2.2603,-2.2653,-2.2896,-2.3197,-2.3687,-2.5848,-2.6894,-2.7379,-2.9073,-2.9977,-3.017,-3.0216,-3.0216,-3.0216,-3.0216,-3.0225,-3.0148,-2.9526,-2.9164,-2.8986,-2.8344,-2.7978,-2.7933,-2.807,-2.8139,-2.8139,-2.8271,-2.8115,-2.7777,-2.8435,-2.8673,-2.8415,-2.8728,-2.8729,-2.836,-2.7831,-2.7872,-2.8437,-2.8489,-2.8844,-2.9574,-2.9602,-2.9602,-2.9602,-2.9588,-2.9602,-2.9602,-2.9602,-2.9673,-2.9827,-3.0231,-3.054,-3.0722,-3.1218,-3.1752,-3.2328,-3.2412,-3.2736,-3.3466,-3.4051,-3.4532,-3.4864,-3.6411,-3.7601,-3.8201,-3.9141,-3.992,-4.0397,-4.0489,-4.0489,-4.0489,-4.0489,-4.0489,-4.0489,-4.0489,-4.0489,-4.0489,-4.0489,-4.0489,-4.0489,-4.0489,-4.0489,-4.0489,-4.0489,-4.0489,-4.0489,-4.0489,-4.0489,-4.0489,-4.0489,-4.0091,-3.9508,-3.9184,-3.9256,-3.9184,-3.922,-3.922,-3.9199,-3.9235,-3.9292,-3.9328,-3.9646,-3.9839,-3.993,-4.0176,-4.0436,-4.0489,-4.0489,-4.0489,-4.0489,-4.0489,-4.0489,-4.047,-4.0401,-4.0366,-2.2594,-2.2644,-2.2846,-2.3306,-2.3845,-2.5001,-2.6147,-2.7237,-2.8387,-2.9382,-3.0125,-3.0216,-3.0216,-3.0216,-3.0216,-2.9834,-2.9213,-2.8876,-2.8537,-2.8099,-2.7702,-2.7696,-2.7893,-2.7933,-2.7933,-2.7933,-2.7973,-2.7822,-2.7544,-2.8244,-2.8613,-2.8568,-2.9174,-2.8789,-2.7577,-2.7084,-2.719,-2.7779,-2.7859,-2.8422,-2.9532,-2.9602,-2.9602,-2.9602,-2.9602,-2.9602,-2.9602,-2.9602,-2.9824,-3.0343,-3.0441,-3.0783,-3.1302,-3.1457,-3.1766,-3.2342,-3.2426,-3.2904,-3.4,-3.4668,-3.5482,-3.6656,-3.7777,-3.8802,-3.9399,-4.0019,-4.0413,-4.0489,-4.0489,-4.0489,-4.0489,-4.0489,-4.0489,-4.0489,-4.0489,-4.0489,-4.0489,-4.0489,-4.0489,-4.0489,-4.0489,-4.0489,-4.0489,-4.0489,-4.0489,-4.0489,-4.0489,-4.0489,-4.0489,-4.0489,-4.0443,-4.027,-4.0285,-4.0235,-4.017,-4.0316,-4.012,-4.0185,-4.0301,-4.0165,-4.0135,-4.02,-4.042,-4.0281,-4.0401,-4.047,-4.0505,-4.0489,-4.0455,-4.0436,-4.0436,-4.0436,-4.0366,-4.0366,-4.042,-2.2397,-2.2594,-2.2703,-2.2996,-2.3497,-2.4756,-2.5577,-2.6196,-2.7955,-2.8945,-2.9371,-2.9932,-3.0216,-3.0216,-3.0216,-2.987,-2.9291,-2.8722,-2.8279,-2.7911,-2.7342,-2.7203,-2.7493,-2.7626,-2.7655,-2.7696,-2.7841,-2.7855,-2.7846,-2.8519,-2.9137,-2.9504,-2.9219,-2.8441,-2.7482,-2.7001,-2.7048,-2.7623,-2.768,-2.8136,-2.8943,-2.9415,-2.9602,-2.9602,-2.9602,-2.9602,-2.9602,-2.9602,-2.9729,-2.9982,-3.0287,-3.061,-3.0909,-3.1274,-3.1766,-3.2336,-3.2856,-3.3465,-3.4312,-3.5289,-3.6031,-3.6573,-3.8271,-3.943,-3.9687,-4.0176,-4.0489,-4.0489,-4.0489,-4.0489,-4.0489,-4.0489,-4.0489,-4.0489,-4.0489,-4.0489,-4.0489,-4.0489,-4.0489,-4.0489,-4.0489,-4.0489,-4.0489,-4.0489,-4.0489,-4.0489,-4.0489,-4.0489,-4.0489,-4.0489,-4.032,-3.9997,-3.989,-3.9905,-3.992,-4.0259,-4.0105,-3.9724,-4.0031,-4.0413,-4.0028,-4.0305,-4.0489,-4.0489,-4.0436,-4.0401,-4.0366,-4.0261,-4.0191,-4.0207,-4.0207,-4.0207,-4.0137,-4.0051,-4.0086,-2.2102,-2.2577,-2.2603,-2.2745,-2.3088,-2.4421,-2.513,-2.5566,-2.7573,-2.8555,-2.8815,-2.9784,-3.0216,-3.0216,-3.0216,-2.9952,-2.9468,-2.8757,-2.8191,-2.7766,-2.7163,-2.6967,-2.7024,-2.7284,-2.74,-2.7441,-2.7586,-2.7841,-2.8171,-2.8932,-2.9546,-2.9703,-2.9112,-2.8233,-2.7305,-2.6837,-2.6914,-2.7328,-2.7508,-2.7868,-2.8473,-2.9035,-2.932,-2.932,-2.932,-2.932,-2.932,-2.9415,-2.9446,-2.9491,-3.0047,-3.0452,-3.062,-3.114,-3.177,-3.2563,-3.3492,-3.4302,-3.4974,-3.6122,-3.6919,-3.7255,-3.8894,-3.9839,-3.9874,-4.0176,-4.0401,-4.0366,-4.0366,-4.0366,-4.0489,-4.0489,-4.0489,-4.0489,-4.0489,-4.0489,-4.0489,-4.0489,-4.0489,-4.0489,-4.0489,-4.0489,-4.0489,-4.0489,-4.0489,-4.0436,-4.0436,-4.0401,-4.0339,-4.0197,-3.9876,-3.945,-3.9284,-3.918,-3.9244,-3.9505,-3.9385,-3.9139,-3.9367,-3.9721,-3.949,-3.9982,-4.0363,-4.0297,-4.0285,-4.0277,-4.0207,-4.0066,-3.9996,-4.0011,-4.0011,-3.996,-3.991,-3.9803,-3.9803,-2.1745,-2.2568,-2.2594,-2.2736,-2.3097,-2.3836,-2.4618,-2.5354,-2.7223,-2.8253,-2.8734,-2.9738,-3.0216,-3.0113,-3.0102,-2.9952,-2.9458,-2.8916,-2.8138,-2.7351,-2.7162,-2.6921,-2.6593,-2.699,-2.7196,-2.7093,-2.718,-2.7718,-2.8639,-2.9462,-2.9481,-2.867,-2.908,-2.8338,-2.6801,-2.6701,-2.6738,-2.6899,-2.7354,-2.7768,-2.813,-2.8471,-2.8651,-2.8651,-2.8651,-2.8683,-2.8716,-2.8972,-2.9131,-2.9099,-2.9684,-3.0251,-3.0798,-3.1144,-3.185,-3.2981,-3.4261,-3.5335,-3.6146,-3.7259,-3.8248,-3.9077,-3.9692,-4.0172,-3.996,-4.0156,-4.0191,-4.0031,-4.0066,-4.0172,-4.0401,-4.0436,-4.0455,-4.0489,-4.0455,-4.0455,-4.0489,-4.047,-4.0505,-4.0489,-4.047,-4.0436,-4.0455,-4.0489,-4.0355,-4.0285,-4.0266,-4.0185,-3.9862,-3.9412,-3.9097,-3.8872,-3.8589,-3.8371,-3.8473,-3.8846,-3.8736,-3.8365,-3.8381,-3.8798,-3.9213,-3.9582,-3.9803,-4.004,-4.0013,-4.0019,-4.0021,-3.9996,-3.994,-3.994,-3.9905,-3.9854,-3.9732,-3.9889,-3.9869,-2.1142,-2.2218,-2.25,-2.2644,-2.2795,-2.3247,-2.3699,-2.4268,-2.6016,-2.6832,-2.7278,-2.8888,-2.9421,-2.8877,-2.9485,-2.9665,-2.9424,-2.8632,-2.8046,-2.7598,-2.6726,-2.6324,-2.6501,-2.6347,-2.6227,-2.6301,-2.6588,-2.7528,-2.8848,-2.9291,-2.9314,-2.9086,-2.9227,-2.8549,-2.7341,-2.7155,-2.7222,-2.7229,-2.7439,-2.7611,-2.7709,-2.7835,-2.7888,-2.7921,-2.8346,-2.8587,-2.8587,-2.8716,-2.878,-2.878,-2.8998,-2.9381,-3.0037,-3.1153,-3.2535,-3.3921,-3.4367,-3.5006,-3.6178,-3.7082,-3.792,-3.873,-3.9595,-4.0081,-4.0046,-4.0066,-4.0066,-4.0011,-4.0011,-4.0066,-4.0137,-4.0172,-4.0242,-4.0331,-4.0261,-4.0226,-4.0296,-4.0277,-4.0242,-4.0312,-4.0277,-4.0156,-4.0207,-4.0156,-3.9989,-3.9558,-3.9466,-3.9264,-3.885,-3.8497,-3.8238,-3.7828,-3.759,-3.7319,-3.688,-3.7916,-3.8352,-3.7717,-3.7514,-3.7833,-3.8198,-3.8504,-3.8708,-3.9223,-3.9382,-3.9429,-3.9335,-3.941,-3.947,-3.957,-3.9585,-3.954,-3.9532,-3.964,-3.9604,-2.1151,-2.1841,-2.2259,-2.2414,-2.2464,-2.2912,-2.3224,-2.3612,-2.5212,-2.5936,-2.6301,-2.7972,-2.8533,-2.8251,-2.874,-2.9108,-2.916,-2.8367,-2.7989,-2.7862,-2.6577,-2.6048,-2.6129,-2.5865,-2.5796,-2.5991,-2.6329,-2.716,-2.8142,-2.8488,-2.8625,-2.8708,-2.8881,-2.8516,-2.7646,-2.7503,-2.7503,-2.7503,-2.7503,-2.749,-2.7503,-2.7503,-2.7503,-2.7556,-2.7987,-2.8262,-2.8262,-2.836,-2.8438,-2.8438,-2.8438,-2.877,-2.9517,-3.1244,-3.2925,-3.4289,-3.4869,-3.555,-3.6824,-3.7563,-3.8204,-3.8789,-3.9451,-3.9889,-3.9818,-3.9854,-3.9854,-3.9818,-3.9783,-3.9818,-3.9889,-3.9854,-3.9925,-4.0137,-4.0066,-4.0046,-4.0187,-4.0101,-4.0086,-4.0141,-4.0117,-4.0026,-3.9975,-3.9798,-3.9464,-3.8959,-3.8743,-3.8349,-3.7933,-3.7615,-3.7404,-3.6935,-3.671,-3.6455,-3.6262,-3.6924,-3.739,-3.6897,-3.6758,-3.6966,-3.7268,-3.7509,-3.7807,-3.8334,-3.8614,-3.8656,-3.8717,-3.8807,-3.8936,-3.9065,-3.9071,-3.9052,-3.9206,-3.9424,-3.9424,-2.1682,-2.1442,-2.1833,-2.1987,-2.2085,-2.2695,-2.3242,-2.357,-2.4894,-2.553,-2.5811,-2.6986,-2.7624,-2.7875,-2.8017,-2.8334,-2.848,-2.8138,-2.7943,-2.7862,-2.6938,-2.6152,-2.5784,-2.5681,-2.5869,-2.6327,-2.6449,-2.6543,-2.6918,-2.747,-2.7727,-2.7726,-2.8257,-2.8177,-2.7503,-2.7503,-2.7503,-2.7503,-2.7503,-2.7503,-2.7503,-2.7503,-2.7503,-2.7503,-2.757,-2.759,-2.7556,-2.7901,-2.8106,-2.8165,-2.8146,-2.851,-2.9626,-3.1453,-3.3066,-3.4099,-3.5695,-3.7181,-3.8138,-3.8767,-3.9126,-3.9502,-3.9646,-3.9625,-3.9532,-3.9589,-3.9625,-3.9481,-3.946,-3.9481,-3.9661,-3.9553,-3.9604,-3.9925,-3.996,-3.9925,-3.996,-4.0011,-3.9985,-3.9914,-3.9849,-3.998,-3.9844,-3.9511,-3.9057,-3.8601,-3.8159,-3.7658,-3.7237,-3.6832,-3.6525,-3.6394,-3.6162,-3.5883,-3.5827,-3.5893,-3.6002,-3.6034,-3.611,-3.626,-3.6607,-3.6844,-3.7098,-3.753,-3.7948,-3.8026,-3.7987,-3.8078,-3.8257,-3.8392,-3.8437,-3.8736,-3.914,-3.9388,-3.9388,-2.0546,-2.0607,-2.1287,-2.1602,-2.1641,-2.1874,-2.2123,-2.251,-2.3752,-2.4275,-2.4581,-2.611,-2.6594,-2.6432,-2.7078,-2.762,-2.7702,-2.7535,-2.7644,-2.7748,-2.6973,-2.6209,-2.5739,-2.5348,-2.5446,-2.5913,-2.6024,-2.6656,-2.7557,-2.7913,-2.8048,-2.8178,-2.8304,-2.8085,-2.7529,-2.7503,-2.7503,-2.7503,-2.7503,-2.7503,-2.7503,-2.7503,-2.7503,-2.7503,-2.7503,-2.7503,-2.7503,-2.7636,-2.79,-2.8289,-2.8307,-2.9105,-3.0738,-3.1667,-3.2752,-3.4151,-3.5371,-3.6464,-3.7319,-3.8173,-3.8922,-3.9322,-3.9481,-3.9481,-3.9424,-3.9445,-3.9496,-3.9409,-3.9388,-3.9445,-3.9445,-3.9445,-3.9532,-3.9783,-3.9661,-3.9661,-3.9722,-3.9773,-3.9496,-3.9063,-3.9309,-3.9553,-3.9553,-3.9243,-3.8732,-3.7976,-3.7597,-3.7203,-3.6312,-3.6058,-3.5818,-3.5774,-3.5569,-3.5557,-3.5621,-3.5653,-3.5701,-3.5765,-3.5797,-3.5812,-3.6082,-3.6245,-3.6466,-3.6718,-3.7102,-3.7338,-3.73,-3.736,-3.7509,-3.7958,-3.8257,-3.8691,-3.9209,-3.9313,-3.9209,-1.9796,-1.9997,-2.0668,-2.1018,-2.1208,-2.1216,-2.1643,-2.2346,-2.2914,-2.3444,-2.4129,-2.524,-2.5634,-2.5423,-2.6137,-2.6607,-2.6754,-2.6737,-2.6979,-2.7322,-2.6835,-2.629,-2.5945,-2.5451,-2.5108,-2.5269,-2.5595,-2.636,-2.7385,-2.7599,-2.7822,-2.8009,-2.8059,-2.7902,-2.7529,-2.7503,-2.7503,-2.7503,-2.7503,-2.7503,-2.7503,-2.7503,-2.7503,-2.7503,-2.7503,-2.7503,-2.7503,-2.7503,-2.7798,-2.836,-2.8765,-2.9784,-3.1079,-3.1784,-3.2752,-3.4087,-3.5438,-3.6543,-3.7333,-3.8248,-3.8811,-3.9301,-3.9388,-3.9388,-3.9388,-3.9388,-3.9388,-3.9388,-3.9388,-3.9388,-3.9388,-3.9388,-3.9445,-3.9553,-3.9481,-3.9326,-3.9304,-3.9234,-3.8857,-3.8382,-3.8372,-3.8601,-3.8657,-3.8382,-3.8048,-3.7225,-3.6851,-3.6567,-3.5714,-3.5534,-3.5504,-3.5519,-3.5537,-3.5522,-3.5489,-3.5489,-3.5489,-3.5554,-3.5619,-3.5619,-3.5737,-3.5767,-3.5914,-3.6049,-3.636,-3.666,-3.6701,-3.6552,-3.6626,-3.727,-3.7913,-3.7958,-3.8212,-3.8796,-3.8856,-1.9418,-1.9558,-1.9871,-2.0317,-2.0746,-2.0793,-2.1454,-2.2562,-2.2577,-2.313,-2.4067,-2.4547,-2.4816,-2.5084,-2.5349,-2.5613,-2.5812,-2.6001,-2.6188,-2.6419,-2.6341,-2.6262,-2.6198,-2.5704,-2.5113,-2.4674,-2.5309,-2.5841,-2.6328,-2.6684,-2.6952,-2.7535,-2.7581,-2.7516,-2.7503,-2.7503,-2.7503,-2.7503,-2.7503,-2.7503,-2.7503,-2.7503,-2.7503,-2.7503,-2.7503,-2.7503,-2.7503,-2.7581,-2.7889,-2.8525,-2.9523,-3.0179,-3.0557,-3.1797,-3.3077,-3.4084,-3.5839,-3.7139,-3.8121,-3.8797,-3.9301,-3.9388,-3.9388,-3.9388,-3.9388,-3.9388,-3.9388,-3.9388,-3.9388,-3.9388,-3.9388,-3.9388,-3.9424,-3.9409,-3.9305,-3.899,-3.8437,-3.8367,-3.8063,-3.7585,-3.7361,-3.7424,-3.7575,-3.7162,-3.6855,-3.6522,-3.6163,-3.5878,-3.5594,-3.5489,-3.5489,-3.5489,-3.5489,-3.5489,-3.5489,-3.5489,-3.5489,-3.5489,-3.5522,-3.5537,-3.5504,-3.5519,-3.5519,-3.5624,-3.5744,-3.5998,-3.6103,-3.6013,-3.6267,-3.6971,-3.718,-3.6956,-3.736,-3.8123,-3.8452,-1.8675,-1.8566,-1.8969,-1.9472,-1.9933,-1.9933,-2.0346,-2.1102,-2.2071,-2.2668,-2.3159,-2.4046,-2.4593,-2.4711,-2.5073,-2.5285,-2.5422,-2.5728,-2.5937,-2.5986,-2.568,-2.5678,-2.5748,-2.5383,-2.4994,-2.4776,-2.5075,-2.5645,-2.6452,-2.6645,-2.6985,-2.7469,-2.7503,-2.7503,-2.7503,-2.7503,-2.7503,-2.7503,-2.7503,-2.7503,-2.7503,-2.7503,-2.7503,-2.7503,-2.7503,-2.7503,-2.7542,-2.7941,-2.8438,-2.91,-3.0137,-3.0936,-3.1287,-3.2256,-3.3263,-3.4403,-3.6057,-3.7397,-3.8109,-3.8958,-3.9352,-3.9388,-3.9388,-3.9388,-3.9388,-3.9388,-3.9388,-3.9388,-3.9388,-3.9373,-3.9388,-3.9388,-3.9388,-3.9328,-3.902,-3.8467,-3.7928,-3.7644,-3.7424,-3.6914,-3.7128,-3.7233,-3.7226,-3.7117,-3.6836,-3.6492,-3.6222,-3.5968,-3.5624,-3.5489,-3.5489,-3.5489,-3.5489,-3.5489,-3.5489,-3.5489,-3.5489,-3.5489,-3.5489,-3.5489,-3.5504,-3.5504,-3.5504,-3.5534,-3.5579,-3.5789,-3.5744,-3.5669,-3.6207,-3.6731,-3.6641,-3.6582,-3.724,-3.7928,-3.7988,-1.8067,-1.8087,-1.8411,-1.8912,-1.9554,-1.9592,-2.0056,-2.0862,-2.1872,-2.258,-2.3028,-2.4003,-2.4507,-2.454,-2.4786,-2.4914,-2.4956,-2.5179,-2.5422,-2.5546,-2.5352,-2.5123,-2.4942,-2.4682,-2.4529,-2.4273,-2.4826,-2.5464,-2.6139,-2.6701,-2.7188,-2.7436,-2.7469,-2.7469,-2.7503,-2.7436,-2.7436,-2.749,-2.7503,-2.7503,-2.7503,-2.7503,-2.7503,-2.7503,-2.7503,-2.7503,-2.7568,-2.8072,-2.866,-2.9314,-3.0137,-3.0882,-3.1431,-3.2101,-3.2818,-3.3629,-3.5521,-3.6923,-3.7463,-3.8546,-3.9352,-3.9388,-3.9388,-3.9388,-3.9313,-3.92,-3.9035,-3.9343,-3.917,-3.917,-3.9343,-3.9388,-3.9388,-3.9313,-3.8811,-3.8257,-3.7838,-3.7614,-3.7158,-3.673,-3.6532,-3.6615,-3.6625,-3.6615,-3.6432,-3.6163,-3.5998,-3.5789,-3.5579,-3.5534,-3.5489,-3.5489,-3.5489,-3.5489,-3.5489,-3.5489,-3.5489,-3.5489,-3.5489,-3.5489,-3.5489,-3.5489,-3.5489,-3.5489,-3.5489,-3.5534,-3.5624,-3.5699,-3.5953,-3.6252,-3.6178,-3.6267,-3.6776,-3.7644,-3.7674,-1.7559,-1.7994,-1.7994,-1.8589,-1.9409,-1.9546,-2.0184,-2.1356,-2.2094,-2.2809,-2.3493,-2.4196,-2.4507,-2.4507,-2.4583,-2.455,-2.454,-2.4625,-2.4766,-2.4956,-2.4884,-2.4585,-2.383,-2.4309,-2.42,-2.3951,-2.4788,-2.5325,-2.5914,-2.6892,-2.7289,-2.7369,-2.7302,-2.7335,-2.7369,-2.7302,-2.7335,-2.7369,-2.7403,-2.7403,-2.7403,-2.7369,-2.7369,-2.7369,-2.7436,-2.7469,-2.7574,-2.7973,-2.859,-2.9284,-2.9787,-3.0487,-3.1099,-3.17,-3.223,-3.2898,-3.4952,-3.639,-3.6682,-3.8354,-3.9313,-3.9343,-3.9388,-3.9313,-3.9185,-3.8781,-3.8706,-3.9155,-3.8736,-3.8841,-3.9254,-3.9388,-3.9284,-3.9185,-3.8691,-3.8437,-3.8182,-3.7719,-3.7075,-3.6492,-3.5848,-3.5564,-3.5489,-3.5489,-3.5534,-3.5833,-3.5729,-3.5654,-3.5549,-3.5519,-3.5489,-3.5489,-3.5489,-3.5489,-3.5489,-3.5489,-3.5489,-3.5489,-3.5489,-3.5489,-3.5489,-3.5489,-3.5489,-3.5489,-3.5489,-3.5669,-3.5923,-3.5998,-3.5938,-3.5998,-3.6073,-3.5833,-3.5804,-3.7015,-3.7524,-1.738,-1.7466,-1.7473,-1.8032,-1.8874,-1.9004,-1.9911,-2.1401,-2.2094,-2.2809,-2.3493,-2.4196,-2.4507,-2.4507,-2.4507,-2.4507,-2.4507,-2.4487,-2.4417,-2.4138,-2.419,-2.3675,-2.3245,-2.3914,-2.4592,-2.4796,-2.4866,-2.5526,-2.6402,-2.6524,-2.6726,-2.7079,-2.7113,-2.7092,-2.7113,-2.7113,-2.7092,-2.7113,-2.7113,-2.7146,-2.7146,-2.7146,-2.7146,-2.7146,-2.7268,-2.7335,-2.7382,-2.7574,-2.8216,-2.9131,-2.9836,-3.0556,-3.1656,-3.2454,-3.3198,-3.4185,-3.5412,-3.6792,-3.773,-3.8243,-3.8871,-3.9328,-3.9358,-3.9185,-3.8646,-3.8482,-3.8437,-3.8601,-3.8482,-3.8661,-3.929,-3.9388,-3.9155,-3.8781,-3.8482,-3.8138,-3.7659,-3.7075,-3.6492,-3.5968,-3.5654,-3.5489,-3.5489,-3.5489,-3.5489,-3.5489,-3.5489,-3.5489,-3.5489,-3.5489,-3.5489,-3.5489,-3.5489,-3.5489,-3.5489,-3.5489,-3.5489,-3.5489,-3.5489,-3.531,-3.5325,-3.537,-3.5325,-3.5385,-3.5489,-3.5714,-3.5908,-3.5804,-3.5654,-3.5818,-3.5938,-3.5789,-3.5908,-3.6836,-3.7389,-1.7286,-1.7286,-1.7286,-1.7893,-1.8735,-1.8827,-1.96,-2.0907,-2.2006,-2.2624,-2.3125,-2.4013,-2.4507,-2.4507,-2.4507,-2.4507,-2.4507,-2.4497,-2.4383,-2.4188,-2.4054,-2.3732,-2.3587,-2.3858,-2.4426,-2.4835,-2.4989,-2.5642,-2.6369,-2.6649,-2.676,-2.6943,-2.6909,-2.6943,-2.6943,-2.6909,-2.6943,-2.7024,-2.7024,-2.7024,-2.7024,-2.7024,-2.7024,-2.7011,-2.7113,-2.7146,-2.718,-2.7485,-2.8317,-2.9249,-2.9846,-3.0652,-3.1929,-3.2791,-3.3571,-3.4266,-3.5375,-3.6325,-3.7187,-3.8067,-3.8706,-3.9349,-3.9388,-3.902,-3.8482,-3.8153,-3.8123,-3.8227,-3.8227,-3.8287,-3.9245,-3.9035,-3.8736,-3.8467,-3.8093,-3.7674,-3.709,-3.6671,-3.6387,-3.5968,-3.5729,-3.5564,-3.5489,-3.5489,-3.5489,-3.5489,-3.5489,-3.5489,-3.5489,-3.5489,-3.5489,-3.5489,-3.5489,-3.5489,-3.5489,-3.5489,-3.5489,-3.5489,-3.5489,-3.519,-3.4936,-3.5026,-3.51,-3.522,-3.5355,-3.5489,-3.5624,-3.5504,-3.5504,-3.5609,-3.5714,-3.5729,-3.5938,-3.6462,-3.6956,-1.7286,-1.7286,-1.7286,-1.7846,-1.8596,-1.8689,-1.9325,-2.0501,-2.1621,-2.2318,-2.2741,-2.3859,-2.4249,-2.4456,-2.4394,-2.4414,-2.4497,-2.4507,-2.4445,-2.4394,-2.4043,-2.4002,-2.4095,-2.4023,-2.4021,-2.3996,-2.4786,-2.5698,-2.6454,-2.6753,-2.6786,-2.6875,-2.676,-2.676,-2.6841,-2.6773,-2.6739,-2.6841,-2.6875,-2.6888,-2.6888,-2.6888,-2.6888,-2.6875,-2.6943,-2.6943,-2.7114,-2.7679,-2.8573,-2.9709,-3.0094,-3.1011,-3.2055,-3.2791,-3.3422,-3.3604,-3.4889,-3.5766,-3.663,-3.7545,-3.8467,-3.9185,-3.9358,-3.899,-3.8332,-3.7823,-3.7793,-3.7973,-3.8093,-3.8342,-3.9194,-3.8871,-3.8452,-3.8123,-3.7644,-3.703,-3.6522,-3.6327,-3.6222,-3.6163,-3.5774,-3.5519,-3.5489,-3.5489,-3.5489,-3.5489,-3.5489,-3.5489,-3.5489,-3.5489,-3.5489,-3.5489,-3.5489,-3.5489,-3.5489,-3.5489,-3.5489,-3.5474,-3.5474,-3.507,-3.4696,-3.4726,-3.4861,-3.507,-3.522,-3.5295,-3.5415,-3.5489,-3.5504,-3.5504,-3.5669,-3.5878,-3.5998,-3.6118,-3.6537,-1.7286,-1.7286,-1.7286,-1.766,-1.8179,-1.8218,-1.9134,-2.0477,-2.111,-2.2057,-2.3254,-2.3409,-2.3887,-2.4249,-2.4126,-2.4198,-2.4435,-2.4507,-2.4507,-2.4435,-2.4136,-2.4043,-2.4064,-2.4075,-2.4089,-2.4511,-2.5106,-2.5946,-2.6671,-2.6823,-2.6649,-2.6602,-2.6555,-2.6589,-2.6589,-2.6568,-2.6555,-2.6624,-2.6636,-2.6636,-2.6636,-2.6636,-2.6636,-2.6636,-2.6739,-2.6798,-2.7118,-2.8085,-2.9103,-2.9883,-3.1515,-3.2623,-3.3191,-3.3283,-3.3817,-3.4683,-3.5182,-3.5711,-3.645,-3.7088,-3.7868,-3.8497,-3.894,-3.8656,-3.7898,-3.7479,-3.7449,-3.7793,-3.8452,-3.9074,-3.9298,-3.8706,-3.8123,-3.7629,-3.7015,-3.6417,-3.5908,-3.5744,-3.5759,-3.5774,-3.5594,-3.5489,-3.5489,-3.5489,-3.5489,-3.5489,-3.5489,-3.5489,-3.5489,-3.5489,-3.5489,-3.5489,-3.5489,-3.5489,-3.5489,-3.5489,-3.5489,-3.5459,-3.5355,-3.4951,-3.4651,-3.4563,-3.4623,-3.4457,-3.4666,-3.4891,-3.507,-3.537,-3.5474,-3.5459,-3.5744,-3.6073,-3.5968,-3.5908,-3.6252,-1.7286,-1.7286,-1.7286,-1.7613,-1.804,-1.8087,-1.9004,-2.0385,-2.1104,-2.2083,-2.304,-2.3469,-2.3898,-2.4239,-2.4074,-2.4126,-2.4404,-2.4507,-2.4507,-2.4425,-2.428,-2.4219,-2.4209,-2.4209,-2.4269,-2.4585,-2.5149,-2.5875,-2.66,-2.6577,-2.6477,-2.6487,-2.6487,-2.6487,-2.6487,-2.6487,-2.6487,-2.6487,-2.6487,-2.6487,-2.6487,-2.6487,-2.6487,-2.6521,-2.6606,-2.6741,-2.7268,-2.8378,-2.9359,-3.0188,-3.1685,-3.2835,-3.3421,-3.3728,-3.4051,-3.5082,-3.5374,-3.5675,-3.6309,-3.6738,-3.7093,-3.7759,-3.8187,-3.7859,-3.7206,-3.6941,-3.709,-3.7554,-3.8153,-3.8886,-3.8841,-3.8272,-3.7629,-3.7,-3.6402,-3.5908,-3.5609,-3.5519,-3.5489,-3.5489,-3.5489,-3.5489,-3.5489,-3.5489,-3.5489,-3.5489,-3.5489,-3.5489,-3.5489,-3.5489,-3.5489,-3.5489,-3.5489,-3.5489,-3.5444,-3.537,-3.534,-3.531,-3.504,-3.4651,-3.4188,-3.3888,-3.3589,-3.3365,-3.3724,-3.4143,-3.4891,-3.5235,-3.531,-3.5415,-3.5624,-3.5759,-3.5684,-3.5759,-3.6073,-1.7194,-1.7135,-1.7135,-1.7374,-1.7697,-1.7743,-1.8407,-1.9684,-2.0616,-2.1627,-2.2703,-2.3271,-2.3856,-2.428,-2.426,-2.4219,-2.4497,-2.4507,-2.4507,-2.4497,-2.4466,-2.4476,-2.4497,-2.4469,-2.444,-2.4447,-2.5132,-2.5628,-2.5985,-2.6328,-2.649,-2.6487,-2.6487,-2.6487,-2.6487,-2.6487,-2.6487,-2.6487,-2.6487,-2.6487,-2.6487,-2.6487,-2.6487,-2.6537,-2.6587,-2.6946,-2.7615,-2.9048,-3.0055,-3.0931,-3.2036,-3.315,-3.3624,-3.3831,-3.4303,-3.4949,-3.5115,-3.5558,-3.5889,-3.6227,-3.6476,-3.7024,-3.7134,-3.6886,-3.6581,-3.6511,-3.6668,-3.7191,-3.7793,-3.8197,-3.8123,-3.7599,-3.7075,-3.6582,-3.5983,-3.5504,-3.5519,-3.5489,-3.5489,-3.5489,-3.5489,-3.5489,-3.5489,-3.5489,-3.5489,-3.5489,-3.5489,-3.5489,-3.5489,-3.5489,-3.5489,-3.5489,-3.5489,-3.5489,-3.54,-3.519,-3.5115,-3.5026,-3.4547,-3.4038,-3.3499,-3.2991,-3.2796,-3.2721,-3.2647,-3.3155,-3.4128,-3.5011,-3.5115,-3.5235,-3.54,-3.5504,-3.5549,-3.5579,-3.5774,-1.6785,-1.6484,-1.6536,-1.6529,-1.664,-1.6654,-1.6943,-1.7707,-1.8871,-2.0005,-2.1583,-2.2206,-2.3197,-2.4114,-2.4425,-2.4425,-2.4487,-2.4507,-2.4507,-2.4507,-2.4507,-2.4507,-2.4507,-2.4507,-2.4388,-2.4451,-2.5132,-2.5384,-2.5673,-2.6203,-2.6499,-2.6487,-2.6487,-2.6487,-2.6487,-2.6487,-2.6487,-2.6487,-2.6487,-2.6487,-2.6487,-2.6487,-2.6487,-2.66,-2.6936,-2.744,-2.8208,-2.9667,-3.0991,-3.1903,-3.3271,-3.4099,-3.4298,-3.4298,-3.4433,-3.4716,-3.485,-3.4997,-3.5252,-3.5592,-3.5872,-3.6221,-3.6478,-3.6492,-3.6162,-3.6089,-3.6265,-3.6567,-3.7165,-3.746,-3.74,-3.6952,-3.6626,-3.6297,-3.5863,-3.5564,-3.5489,-3.5489,-3.5489,-3.5489,-3.5489,-3.5489,-3.5489,-3.5489,-3.5489,-3.5489,-3.5489,-3.5489,-3.5489,-3.5489,-3.5489,-3.5489,-3.5444,-3.5429,-3.5175,-3.4981,-3.4741,-3.4651,-3.4038,-3.344,-3.3021,-3.2572,-3.2452,-3.2363,-3.2198,-3.2497,-3.3634,-3.4397,-3.4771,-3.51,-3.531,-3.5429,-3.5504,-3.5534,-3.5564,-1.6338,-1.6411,-1.6411,-1.6411,-1.6411,-1.6411,-1.6793,-1.7628,-1.8693,-1.9889,-2.0974,-2.1747,-2.2645,-2.3597,-2.4165,-2.4497,-2.4507,-2.4487,-2.4497,-2.4487,-2.4487,-2.4487,-2.4507,-2.4488,-2.4399,-2.46,-2.5031,-2.5384,-2.5589,-2.6072,-2.6487,-2.6487,-2.6487,-2.6487,-2.6487,-2.6487,-2.6487,-2.6487,-2.6487,-2.6487,-2.6487,-2.6487,-2.6487,-2.6524,-2.7052,-2.7642,-2.8563,-2.9705,-3.0868,-3.1706,-3.2898,-3.3707,-3.3859,-3.4079,-3.4448,-3.4515,-3.4582,-3.4702,-3.4927,-3.511,-3.5261,-3.5339,-3.556,-3.5482,-3.5358,-3.5459,-3.5733,-3.6145,-3.6382,-3.658,-3.6697,-3.6492,-3.6216,-3.5935,-3.5648,-3.5591,-3.5472,-3.5489,-3.5489,-3.5489,-3.5489,-3.5489,-3.5489,-3.5489,-3.5489,-3.5489,-3.5489,-3.5489,-3.5489,-3.5489,-3.5489,-3.5489,-3.5429,-3.5355,-3.4981,-3.4698,-3.4262,-3.4008,-3.3365,-3.2856,-3.2632,-3.2333,-3.2153,-3.1989,-3.1809,-3.2348,-3.329,-3.3814,-3.4218,-3.4726,-3.525,-3.5307,-3.5412,-3.5442,-3.5502,-1.5928,-1.6133,-1.6133,-1.6176,-1.6126,-1.6133,-1.6667,-1.7597,-1.8625,-1.971,-2.078,-2.1687,-2.2423,-2.3032,-2.3759,-2.4182,-2.4411,-2.4341,-2.4289,-2.4332,-2.4332,-2.4311,-2.4459,-2.4513,-2.4889,-2.479,-2.5592,-2.5901,-2.6068,-2.6251,-2.6487,-2.6487,-2.6487,-2.6487,-2.6487,-2.6487,-2.6487,-2.6487,-2.6487,-2.6487,-2.6487,-2.6487,-2.6587,-2.6826,-2.7276,-2.7948,-2.8929,-3.0043,-3.0947,-3.214,-3.3024,-3.3742,-3.3776,-3.4147,-3.438,-3.4414,-3.4448,-3.4501,-3.4635,-3.4742,-3.4683,-3.4716,-3.4716,-3.4844,-3.4905,-3.485,-3.5019,-3.5602,-3.5647,-3.5773,-3.584,-3.5844,-3.567,-3.5517,-3.5404,-3.5407,-3.5439,-3.5472,-3.5504,-3.5489,-3.5489,-3.5489,-3.5489,-3.5489,-3.5489,-3.5489,-3.5489,-3.5489,-3.5474,-3.5459,-3.5444,-3.5429,-3.5385,-3.5205,-3.4743,-3.4354,-3.3949,-3.338,-3.2736,-3.2332,-3.2108,-3.1914,-3.1735,-3.157,-3.1496,-3.1795,-3.2452,-3.308,-3.3709,-3.4427,-3.504,-3.52,-3.5287,-3.5335,-3.5442,-1.5433,-1.5447,-1.5469,-1.5491,-1.5533,-1.5496,-1.599,-1.6824,-1.776,-1.9057,-2.0533,-2.1774,-2.2654,-2.3047,-2.3252,-2.3651,-2.4125,-2.3757,-2.374,-2.3877,-2.3929,-2.3991,-2.4273,-2.4892,-2.567,-2.6001,-2.6201,-2.6513,-2.6897,-2.6477,-2.6549,-2.6487,-2.6487,-2.6487,-2.6487,-2.6487,-2.6487,-2.6487,-2.6487,-2.6549,-2.6562,-2.6625,-2.6801,-2.7268,-2.7866,-2.8929,-3.0899,-3.1375,-3.2225,-3.343,-3.3791,-3.4113,-3.4113,-3.4264,-3.438,-3.438,-3.438,-3.4448,-3.4481,-3.4481,-3.4448,-3.4433,-3.4433,-3.4515,-3.4683,-3.4731,-3.4857,-3.4997,-3.5052,-3.506,-3.5064,-3.5008,-3.5101,-3.5189,-3.5261,-3.5326,-3.5374,-3.5472,-3.5504,-3.5504,-3.5489,-3.5489,-3.5489,-3.5489,-3.5489,-3.5489,-3.5489,-3.5489,-3.5415,-3.5385,-3.5355,-3.534,-3.531,-3.5026,-3.4474,-3.3964,-3.332,-3.2781,-3.2168,-3.1869,-3.166,-3.1496,-3.1496,-3.1496,-3.1496,-3.1555,-3.1735,-3.2617,-3.3485,-3.4292,-3.4786,-3.4782,-3.4942,-3.5061,-3.5228,-1.5389,-1.5389,-1.5389,-1.5389,-1.5389,-1.5389,-1.559,-1.6105,-1.7399,-1.8949,-2.0524,-2.151,-2.208,-2.229,-2.2704,-2.2958,-2.3193,-2.3185,-2.3217,-2.3412,-2.3608,-2.3846,-2.4232,-2.4703,-2.5393,-2.6064,-2.6225,-2.6549,-2.7149,-2.6763,-2.6562,-2.6487,-2.6487,-2.6487,-2.6487,-2.6487,-2.6499,-2.6512,-2.6549,-2.6625,-2.6989,-2.7027,-2.7266,-2.7783,-2.8323,-2.9191,-3.0365,-3.1037,-3.2195,-3.3262,-3.3659,-3.4011,-3.4346,-3.438,-3.438,-3.438,-3.438,-3.438,-3.438,-3.438,-3.438,-3.438,-3.4414,-3.4448,-3.4563,-3.4515,-3.4549,-3.4582,-3.4601,-3.4668,-3.4798,-3.4798,-3.4879,-3.5016,-3.5148,-3.5195,-3.5294,-3.5374,-3.5392,-3.5359,-3.5424,-3.5489,-3.5489,-3.5489,-3.5489,-3.5489,-3.5489,-3.5474,-3.54,-3.519,-3.51,-3.4891,-3.4816,-3.4277,-3.3649,-3.314,-3.2632,-3.2168,-3.169,-3.16,-3.1496,-3.1496,-3.1496,-3.1496,-3.1496,-3.1525,-3.1809,-3.2482,-3.3156,-3.3785,-3.4098,-3.4247,-3.4437,-3.4758,-3.5091,-1.5389,-1.5389,-1.5389,-1.5389,-1.5389,-1.5389,-1.5548,-1.6031,-1.735,-1.8957,-2.0586,-2.1125,-2.1392,-2.16,-2.1919,-2.235,-2.2441,-2.2483,-2.2524,-2.2778,-2.3197,-2.3557,-2.3909,-2.4647,-2.568,-2.6131,-2.6291,-2.6676,-2.7233,-2.6751,-2.6537,-2.6487,-2.6487,-2.6487,-2.6487,-2.6499,-2.6562,-2.67,-2.6776,-2.7014,-2.7457,-2.7544,-2.7795,-2.8273,-2.8712,-2.9388,-3.0359,-3.1156,-3.2019,-3.2967,-3.3555,-3.3894,-3.4196,-3.438,-3.438,-3.438,-3.438,-3.438,-3.438,-3.438,-3.438,-3.438,-3.438,-3.4414,-3.438,-3.438,-3.4448,-3.4414,-3.4414,-3.4481,-3.4631,-3.4616,-3.465,-3.4769,-3.4916,-3.4997,-3.5096,-3.5162,-3.5213,-3.5246,-3.5311,-3.5392,-3.5424,-3.5424,-3.5472,-3.5472,-3.5489,-3.5474,-3.54,-3.51,-3.4681,-3.4412,-3.4128,-3.344,-3.2691,-3.2602,-3.2437,-3.1959,-3.1585,-3.1555,-3.1496,-3.1496,-3.1496,-3.1496,-3.1496,-3.1496,-3.1705,-3.2093,-3.2557,-3.3095,-3.3454,-3.3855,-3.4334,-3.4686,-3.5061,-1.5389,-1.5389,-1.5389,-1.5389,-1.5389,-1.5389,-1.5831,-1.6509,-1.7553,-1.8926,-2.0362,-2.0644,-2.0879,-2.1153,-2.1341,-2.1588,-2.1878,-2.1729,-2.172,-2.204,-2.2585,-2.2839,-2.3768,-2.4813,-2.5918,-2.6371,-2.6663,-2.693,-2.7268,-2.6763,-2.6537,-2.6587,-2.6637,-2.6562,-2.6512,-2.6512,-2.6776,-2.7216,-2.7241,-2.7595,-2.7971,-2.8097,-2.8386,-2.8812,-2.9013,-2.963,-3.0598,-3.1456,-3.2218,-3.2861,-3.3811,-3.4147,-3.4162,-3.4346,-3.438,-3.438,-3.438,-3.438,-3.438,-3.438,-3.438,-3.438,-3.438,-3.438,-3.438,-3.438,-3.438,-3.438,-3.4414,-3.4414,-3.4414,-3.4414,-3.4481,-3.4582,-3.4731,-3.4865,-3.4916,-3.5016,-3.5082,-3.51,-3.5148,-3.5228,-3.5294,-3.5326,-3.5407,-3.5439,-3.5489,-3.5429,-3.5295,-3.4816,-3.4247,-3.3709,-3.335,-3.2886,-3.2332,-3.2407,-3.2213,-3.1735,-3.1496,-3.1496,-3.1496,-3.1496,-3.1496,-3.1496,-3.1496,-3.1496,-3.1496,-3.1555,-3.2034,-3.2527,-3.3227,-3.3687,-3.4165,-3.4586,-3.4902,-1.5389,-1.5389,-1.5389,-1.5389,-1.5389,-1.5389,-1.559,-1.6064,-1.7359,-1.8647,-1.9687,-2.0294,-2.0654,-2.0801,-2.082,-2.0957,-2.1085,-2.1243,-2.1202,-2.1311,-2.1969,-2.2824,-2.3708,-2.4672,-2.591,-2.6679,-2.7099,-2.7099,-2.7268,-2.6728,-2.6801,-2.6927,-2.6889,-2.6826,-2.6713,-2.6776,-2.7178,-2.7331,-2.7632,-2.8084,-2.8574,-2.8687,-2.89,-2.9466,-2.9517,-3.0011,-3.0944,-3.1783,-3.2326,-3.2791,-3.3673,-3.4147,-3.4011,-3.4045,-3.438,-3.438,-3.438,-3.438,-3.438,-3.438,-3.438,-3.438,-3.438,-3.438,-3.438,-3.438,-3.438,-3.438,-3.438,-3.438,-3.4414,-3.4414,-3.4448,-3.4631,-3.4731,-3.4817,-3.4883,-3.4916,-3.4968,-3.4968,-3.5016,-3.5001,-3.5067,-3.5103,-3.5169,-3.516,-3.5148,-3.4991,-3.4859,-3.4218,-3.3589,-3.2961,-3.2467,-3.2153,-3.1929,-3.2019,-3.2004,-3.166,-3.1496,-3.1496,-3.1496,-3.1496,-3.1496,-3.1496,-3.1496,-3.1496,-3.1496,-3.1511,-3.1585,-3.2004,-3.2646,-3.3063,-3.3303,-3.3917,-3.4592,-1.5389,-1.5389,-1.5389,-1.5389,-1.5389,-1.5389,-1.5548,-1.6064,-1.7399,-1.8479,-1.9381,-2.0216,-2.0615,-2.0615,-2.0615,-2.0615,-2.0605,-2.0731,-2.079,-2.0878,-2.151,-2.2189,-2.3087,-2.4317,-2.524,-2.624,-2.6716,-2.6833,-2.6708,-2.6536,-2.6744,-2.7067,-2.7118,-2.6952,-2.6839,-2.6989,-2.7216,-2.7482,-2.7971,-2.8448,-2.8963,-2.9302,-2.953,-2.9999,-3.0266,-3.0558,-3.1304,-3.1915,-3.247,-3.2804,-3.343,-3.4113,-3.3928,-3.4011,-3.438,-3.438,-3.438,-3.438,-3.438,-3.438,-3.438,-3.438,-3.438,-3.438,-3.438,-3.438,-3.438,-3.438,-3.438,-3.438,-3.438,-3.438,-3.4448,-3.4597,-3.4631,-3.4683,-3.4683,-3.4702,-3.4735,-3.4735,-3.4802,-3.4835,-3.4839,-3.4861,-3.4898,-3.4845,-3.4777,-3.4579,-3.4334,-3.3647,-3.3035,-3.2497,-3.2004,-3.178,-3.1646,-3.1645,-3.1615,-3.1511,-3.1496,-3.1467,-3.1496,-3.1496,-3.1496,-3.1496,-3.1496,-3.1496,-3.1496,-3.1525,-3.1555,-3.1705,-3.2079,-3.2363,-3.2437,-3.3185,-3.4068,-1.5389,-1.5389,-1.5389,-1.5389,-1.5389,-1.5389,-1.5824,-1.6706,-1.7594,-1.8447,-1.9262,-2.0128,-2.0654,-2.0644,-2.0635,-2.0654,-2.0654,-2.0644,-2.0644,-2.0771,-2.1204,-2.165,-2.2496,-2.3795,-2.4626,-2.5043,-2.5617,-2.6311,-2.6009,-2.6282,-2.6706,-2.711,-2.7022,-2.7082,-2.712,-2.7055,-2.7281,-2.777,-2.8222,-2.8787,-2.9402,-2.9666,-2.9935,-3.0279,-3.0507,-3.0809,-3.1489,-3.2241,-3.2684,-3.3157,-3.3811,-3.4147,-3.4346,-3.438,-3.438,-3.438,-3.438,-3.438,-3.438,-3.438,-3.438,-3.438,-3.438,-3.438,-3.438,-3.438,-3.438,-3.438,-3.438,-3.438,-3.438,-3.438,-3.4414,-3.4448,-3.4448,-3.4448,-3.4448,-3.4448,-3.4448,-3.4515,-3.4616,-3.4668,-3.4725,-3.4714,-3.4424,-3.4144,-3.4006,-3.3657,-3.3398,-3.3092,-3.2541,-3.2214,-3.1782,-3.1557,-3.1453,-3.138,-3.1438,-3.1409,-3.1438,-3.1453,-3.1467,-3.1496,-3.1496,-3.1496,-3.1496,-3.1496,-3.1496,-3.1496,-3.1511,-3.169,-3.1854,-3.1929,-3.2093,-3.2781,-3.3559,-1.5389,-1.5389,-1.5389,-1.5389,-1.5389,-1.5389,-1.5548,-1.5948,-1.7277,-1.8198,-1.8487,-1.9962,-2.0703,-2.1006,-2.0762,-2.0781,-2.0801,-2.0742,-2.0644,-2.0732,-2.0899,-2.1499,-2.229,-2.3161,-2.3974,-2.4762,-2.5401,-2.5877,-2.5966,-2.6228,-2.6781,-2.731,-2.7204,-2.7379,-2.7426,-2.7247,-2.7632,-2.8009,-2.8386,-2.9026,-2.9553,-2.9779,-3.0037,-3.0203,-3.0305,-3.0595,-3.1009,-3.2001,-3.229,-3.2024,-3.3534,-3.4162,-3.3555,-3.4045,-3.438,-3.438,-3.438,-3.438,-3.438,-3.438,-3.438,-3.438,-3.438,-3.438,-3.438,-3.438,-3.438,-3.438,-3.438,-3.438,-3.438,-3.438,-3.438,-3.438,-3.438,-3.438,-3.438,-3.438,-3.438,-3.4414,-3.4515,-3.4549,-3.4572,-3.4186,-3.3867,-3.3513,-3.3164,-3.2834,-3.2545,-3.2256,-3.2064,-3.1768,-3.159,-3.1352,-3.1249,-3.119,-3.1278,-3.1322,-3.1351,-3.1395,-3.1438,-3.1467,-3.1496,-3.1496,-3.1496,-3.1496,-3.1496,-3.1496,-3.1496,-3.1496,-3.163,-3.1675,-3.1839,-3.2407,-3.308,-1.5166,-1.5389,-1.5389,-1.5389,-1.5389,-1.5389,-1.5389,-1.5707,-1.7277,-1.7997,-1.8238,-1.9844,-2.0752,-2.0859,-2.0723,-2.0723,-2.0869,-2.0693,-2.0615,-2.0615,-2.0615,-2.1035,-2.1732,-2.2452,-2.3067,-2.3958,-2.4731,-2.5224,-2.5493,-2.6005,-2.6564,-2.7434,-2.7396,-2.7618,-2.7753,-2.7649,-2.7758,-2.8185,-2.8637,-2.9101,-2.949,-2.9818,-2.9921,-3.0139,-3.0177,-3.0317,-3.0735,-3.1942,-3.211,-3.1988,-3.3756,-3.4162,-3.3742,-3.4196,-3.438,-3.438,-3.438,-3.438,-3.438,-3.438,-3.438,-3.438,-3.438,-3.438,-3.438,-3.438,-3.438,-3.438,-3.438,-3.438,-3.438,-3.438,-3.438,-3.438,-3.438,-3.438,-3.438,-3.438,-3.438,-3.438,-3.4414,-3.4414,-3.4186,-3.3762,-3.3328,-3.2961,-3.2433,-3.1913,-3.1729,-3.1618,-3.1516,-3.1368,-3.1294,-3.1146,-3.1087,-3.1058,-3.1132,-3.119,-3.122,-3.1278,-3.138,-3.1409,-3.1409,-3.1467,-3.1496,-3.1496,-3.1496,-3.1496,-3.1496,-3.1524,-3.1611,-3.1656,-3.1702,-3.1824,-3.2542,-1.4866,-1.5389,-1.5389,-1.5389,-1.5389,-1.5389,-1.5389,-1.5631,-1.7277,-1.7997,-1.8318,-1.9717,-2.0547,-2.0732,-2.0693,-2.0683,-2.0742,-2.0703,-2.0615,-2.0615,-2.0615,-2.0829,-2.1133,-2.1771,-2.2202,-2.2664,-2.3444,-2.4549,-2.4633,-2.5254,-2.6273,-2.7311,-2.6803,-2.7024,-2.799,-2.7749,-2.7934,-2.8586,-2.8674,-2.8863,-2.9528,-2.9895,-3.0101,-3.062,-3.0833,-3.1119,-3.1856,-3.2577,-3.3227,-3.3451,-3.3825,-3.4346,-3.4346,-3.4346,-3.438,-3.438,-3.438,-3.438,-3.438,-3.438,-3.438,-3.438,-3.438,-3.438,-3.438,-3.438,-3.438,-3.438,-3.438,-3.438,-3.438,-3.438,-3.438,-3.438,-3.438,-3.438,-3.438,-3.438,-3.438,-3.438,-3.438,-3.4356,-3.3983,-3.3558,-3.2876,-3.246,-3.1845,-3.1193,-3.1051,-3.1027,-3.1043,-3.1028,-3.0999,-3.0955,-3.0955,-3.0925,-3.1014,-3.1043,-3.1073,-3.1161,-3.1234,-3.1292,-3.1351,-3.138,-3.1438,-3.1482,-3.1511,-3.1611,-3.171,-3.1796,-3.1824,-3.1739,-3.1741,-3.1887,-3.2332,-1.5249,-1.5389,-1.5389,-1.5389,-1.5389,-1.5389,-1.5389,-1.5548,-1.7237,-1.8006,-1.8238,-1.9152,-2.0182,-2.0878,-2.0713,-2.0713,-2.0898,-2.0703,-2.0625,-2.0615,-2.0615,-2.0615,-2.0644,-2.1171,-2.1468,-2.2067,-2.2933,-2.4146,-2.4838,-2.5348,-2.5779,-2.659,-2.6415,-2.7027,-2.7965,-2.7713,-2.8186,-2.8825,-2.89,-2.9038,-2.9641,-2.9779,-2.996,-3.0266,-3.0482,-3.0871,-3.1599,-3.247,-3.2967,-3.3332,-3.4011,-3.4312,-3.438,-3.438,-3.438,-3.438,-3.438,-3.438,-3.438,-3.438,-3.438,-3.438,-3.438,-3.438,-3.438,-3.438,-3.438,-3.438,-3.438,-3.438,-3.438,-3.438,-3.438,-3.438,-3.438,-3.438,-3.438,-3.438,-3.438,-3.438,-3.438,-3.4124,-3.3783,-3.3249,-3.2492,-3.1866,-3.1222,-3.0757,-3.0772,-3.0746,-3.079,-3.0806,-3.0746,-3.0702,-3.0762,-3.0791,-3.0866,-3.0851,-3.0881,-3.0969,-3.1117,-3.1205,-3.1292,-3.1322,-3.1336,-3.1438,-3.164,-3.1966,-3.2064,-3.2064,-3.2216,-3.2216,-3.2516,-3.2711,-3.297,-1.5131,-1.5389,-1.5389,-1.5389,-1.5389,-1.5389,-1.5389,-1.5695,-1.7072,-1.7817,-1.8207,-1.9262,-2.0281,-2.0898,-2.0664,-2.0693,-2.0898,-2.0723,-2.0635,-2.0615,-2.0615,-2.0615,-2.0683,-2.0867,-2.1405,-2.1983,-2.3058,-2.4179,-2.5123,-2.536,-2.5636,-2.6178,-2.6371,-2.6698,-2.7495,-2.7878,-2.8237,-2.8863,-2.9051,-2.9389,-2.9715,-2.9754,-2.9779,-2.9998,-3.0165,-3.0444,-3.0921,-3.1833,-3.2506,-3.3087,-3.3756,-3.4312,-3.438,-3.438,-3.438,-3.438,-3.438,-3.438,-3.438,-3.438,-3.438,-3.438,-3.438,-3.438,-3.438,-3.438,-3.438,-3.438,-3.438,-3.438,-3.438,-3.438,-3.438,-3.438,-3.438,-3.438,-3.438,-3.438,-3.438,-3.438,-3.4327,-3.4128,-3.3783,-3.35,-3.2727,-3.1803,-3.109,-3.0771,-3.0743,-3.0612,-3.0612,-3.0612,-3.0612,-3.0612,-3.0672,-3.0672,-3.0672,-3.0702,-3.0717,-3.0881,-3.1043,-3.1146,-3.1234,-3.1263,-3.1336,-3.1438,-3.1682,-3.1994,-3.2203,-3.2231,-3.2477,-3.2761,-3.3093,-3.3445,-3.3846,-1.4915,-1.5389,-1.5389,-1.5389,-1.5389,-1.5389,-1.5418,-1.5701,-1.6962,-1.7838,-1.8374,-1.9955,-2.0547,-2.0615,-2.0615,-2.0615,-2.0615,-2.0635,-2.0615,-2.0615,-2.0615,-2.0615,-2.0838,-2.1165,-2.1614,-2.2349,-2.3415,-2.4348,-2.5276,-2.5348,-2.5492,-2.5853,-2.6069,-2.6211,-2.7115,-2.7607,-2.7927,-2.8525,-2.8887,-2.9388,-2.9589,-2.9665,-2.9691,-2.9716,-2.9832,-2.9871,-3.0393,-3.1121,-3.2015,-3.2627,-3.336,-3.3859,-3.423,-3.4264,-3.438,-3.438,-3.438,-3.438,-3.438,-3.438,-3.438,-3.438,-3.438,-3.438,-3.438,-3.438,-3.438,-3.438,-3.438,-3.438,-3.438,-3.438,-3.438,-3.438,-3.438,-3.438,-3.438,-3.438,-3.438,-3.438,-3.4254,-3.4084,-3.3779,-3.3543,-3.2899,-3.1961,-3.1393,-3.1134,-3.0887,-3.0714,-3.0612,-3.0612,-3.0612,-3.0612,-3.0612,-3.0612,-3.0612,-3.0612,-3.0672,-3.0821,-3.0925,-3.094,-3.1058,-3.1234,-3.1322,-3.1351,-3.1524,-3.1796,-3.2007,-3.2299,-3.268,-3.3013,-3.3439,-3.3848,-3.4577,-1.5298,-1.5389,-1.5389,-1.5389,-1.5389,-1.5396,-1.5535,-1.6052,-1.7611,-1.8573,-1.9134,-2.0227,-2.0937,-2.0615,-2.0615,-2.0615,-2.0615,-2.0615,-2.0615,-2.0615,-2.0615,-2.0615,-2.0722,-2.1098,-2.1728,-2.2686,-2.3708,-2.4492,-2.5206,-2.5324,-2.5419,-2.567,-2.5693,-2.5993,-2.6649,-2.7028,-2.7262,-2.7879,-2.8312,-2.8671,-2.8759,-2.8923,-2.9377,-2.9631,-2.997,-3.0311,-3.0826,-3.1586,-3.1978,-3.2412,-3.2981,-3.3485,-3.3825,-3.4162,-3.4346,-3.438,-3.438,-3.438,-3.438,-3.438,-3.438,-3.438,-3.438,-3.438,-3.438,-3.438,-3.438,-3.438,-3.438,-3.438,-3.438,-3.438,-3.438,-3.438,-3.438,-3.438,-3.438,-3.438,-3.438,-3.438,-3.437,-3.4042,-3.3652,-3.3419,-3.3187,-3.2367,-3.1727,-3.1453,-3.1061,-3.0859,-3.0627,-3.0612,-3.0612,-3.0612,-3.0612,-3.0612,-3.0612,-3.0612,-3.0642,-3.0732,-3.0762,-3.0657,-3.0807,-3.1087,-3.119,-3.1234,-3.1424,-3.1611,-3.1979,-3.2327,-3.2841,-3.3251,-3.3672,-3.4196,-3.4841]}]]